GFSGL_925_thetae_000.txt.gz
Theta_e
303 302 301 301 299 297 295 295 296 296 298 297 295 293 293 293 292 292 292 293 292 292 291 290 290 290 291 292 292 292 293 293 293 294 294 295 295 295 295 295 297 297 298
304 301 300 299 296 295 295 295 295 294 294 294 293 293 292 292 292 292 291 290 290 289 289 289 289 290 290 290 291 291 292 292 292 292 292 293 294 295 295 296 296 296 296
304 301 298 296 294 294 294 294 294 294 293 293 292 292 292 292 291 290 290 289 289 289 289 289 289 289 289 290 290 289 289 289 290 290 290 291 292 292 293 294 295 295 295
302 298 295 294 293 295 294 294 294 293 293 292 292 292 292 290 289 289 289 289 288 288 287 287 287 287 287 287 287 287 287 287 287 288 288 289 290 291 292 292 292 292 293
300 295 294 295 295 295 294 294 295 294 293 293 292 290 289 288 288 288 288 287 286 285 285 285 285 285 286 286 286 286 286 285 285 285 286 286 287 288 289 290 292 293 294
300 298 298 296 296 295 296 293 294 294 292 290 289 288 287 287 287 287 285 284 283 283 283 283 283 283 283 283 283 284 284 285 284 284 285 285 285 285 286 288 290 291 291
299 297 298 297 295 294 294 294 294 291 289 288 287 287 287 287 286 285 284 282 283 283 283 283 282 282 283 283 283 283 284 284 284 284 284 285 285 285 285 286 288 289 289
299 297 297 297 295 294 292 290 289 288 287 287 286 286 286 285 285 283 282 282 283 283 283 283 283 283 283 283 283 283 283 283 283 284 284 284 285 285 285 285 286 286 287
291 291 291 292 291 289 289 288 287 286 286 285 285 285 284 283 283 282 282 282 282 282 282 282 282 283 283 283 284 284 284 284 284 284 284 284 285 285 286 286 285 285 285
290 290 290 289 288 288 287 287 285 285 285 285 284 283 282 281 281 281 282 282 282 281 282 282 282 282 282 283 283 283 284 284 284 285 285 285 285 285 286 287 286 286 286
290 289 288 288 287 287 286 285 285 284 284 283 282 282 281 281 280 281 281 282 281 281 281 282 282 282 283 283 283 283 284 284 284 285 284 285 285 285 285 286 287 287 287
288 288 287 287 287 285 285 284 284 283 282 281 281 281 281 280 280 280 281 281 281 282 283 282 283 283 283 284 284 283 283 283 284 284 284 285 285 285 285 286 286 287 287
287 286 286 286 285 284 284 284 283 282 281 281 281 281 280 280 280 280 280 281 282 283 282 282 282 282 281 282 283 283 284 284 284 284 284 284 285 285 285 286 286 286 287
287 286 286 285 283 284 284 283 282 281 282 281 281 280 280 279 279 279 281 282 283 283 281 280 280 280 280 280 281 282 282 283 284 284 284 284 283 284 285 286 286 286 286
286 285 284 284 283 283 282 282 281 281 281 281 280 280 279 278 279 281 281 282 283 282 282 280 279 279 279 279 279 280 281 283 285 285 285 284 283 283 284 285 285 286 287
287 286 285 284 284 282 282 282 282 281 280 280 280 279 278 279 280 280 280 281 281 281 280 280 278 278 278 279 278 279 280 281 282 285 284 284 284 284 285 286 286 287 285
287 286 285 285 283 282 282 282 280 280 279 279 279 278 278 278 278 278 278 279 279 279 280 279 278 278 278 278 278 278 278 279 281 283 286 286 285 286 287 286 286 285 284
286 286 285 284 282 282 282 281 280 279 278 278 277 277 277 277 277 276 276 277 277 277 277 277 277 277 278 278 277 277 277 278 279 279 281 283 285 285 285 284 284 283 281
285 284 283 283 283 282 281 280 280 278 278 278 276 276 275 275 275 275 275 274 274 274 274 275 275 275 276 277 277 277 277 277 277 278 279 280 282 284 283 284 283 282 281
284 284 283 282 282 282 280 280 279 278 277 277 275 275 274 274 274 273 273 272 272 272 273 273 273 274 275 276 277 277 277 277 277 277 278 278 279 280 281 281 281 281 280
284 284 282 282 282 280 280 279 279 277 277 276 275 274 274 273 273 272 272 271 271 271 271 272 273 273 274 275 276 277 277 277 277 277 277 277 277 277 277 278 278 278 278
283 284 282 281 281 280 280 279 278 277 276 276 274 274 273 273 272 272 271 271 270 270 271 271 272 273 273 274 275 276 277 277 277 276 276 276 277 277 277 277 277 277 277
283 282 281 281 280 280 279 279 278 277 276 275 274 273 272 272 272 271 271 270 270 269 270 270 271 273 274 275 275 276 276 276 276 277 276 276 276 276 276 276 276 276 276
283 282 281 281 280 279 278 278 277 277 276 274 274 273 272 272 271 271 271 270 269 269 268 269 269 270 272 273 274 275 276 276 276 276 276 276 276 276 276 276 276 276 276
282 281 281 280 280 279 278 277 277 276 275 274 273 273 272 271 271 271 270 270 269 268 268 268 268 269 270 271 272 274 275 275 275 275 275 275 275 276 276 276 276 275 275
282 282 281 280 280 279 278 276 276 276 275 274 273 273 272 271 271 271 270 270 269 269 268 268 268 268 268 269 270 272 273 273 274 274 274 273 274 274 274 274 275 275 275

GFSGL_925_thetae_003.txt.gz
Theta_e
304 304 304 302 300 297 297 297 295 297 296 294 295 294 293 294 293 293 292 292 291 290 289 289 289 288 289 289 289 290 291 292 292 292 292 293 293 293 293 293 294 294 295
303 302 301 300 298 295 295 295 295 294 294 292 292 292 292 292 292 292 291 290 289 289 289 289 289 289 289 289 289 290 290 291 291 291 292 292 292 293 293 293 293 294 294
301 300 300 298 295 294 294 294 294 293 292 292 292 292 292 292 291 289 288 288 288 288 288 288 288 288 288 288 288 288 288 288 288 288 288 289 290 290 291 291 292 292 292
300 300 298 293 292 293 293 293 294 295 293 292 292 292 291 289 288 288 288 288 288 287 286 286 286 285 285 285 285 286 286 286 287 287 286 287 288 288 289 289 290 290 290
300 298 294 293 293 293 295 294 294 293 293 292 292 291 289 288 288 287 287 286 285 284 284 284 283 283 284 284 285 285 285 285 285 285 285 285 285 286 287 287 287 288 288
299 297 297 295 294 294 294 293 293 293 293 292 289 288 287 287 287 287 285 284 283 283 282 282 282 282 282 282 283 283 283 284 284 284 284 284 284 284 285 285 285 286 287
298 297 296 296 296 295 294 294 294 291 289 288 287 287 287 287 286 285 284 283 282 282 282 282 282 282 282 282 282 283 283 283 284 284 284 284 284 284 284 285 285 286 287
293 292 292 292 292 292 291 289 288 287 286 286 286 286 286 285 284 283 282 282 282 282 281 281 282 282 282 282 282 282 282 282 283 283 283 284 284 284 284 284 285 285 285
290 291 291 290 289 288 288 287 286 285 285 285 285 284 283 282 281 281 281 281 281 281 281 281 281 281 282 282 282 283 283 283 283 284 284 284 284 284 284 284 285 285 285
292 290 288 288 287 287 286 285 285 284 284 284 283 282 281 281 280 280 281 281 281 280 281 281 281 281 282 282 282 283 283 283 283 283 284 284 284 284 284 285 285 285 285
289 288 287 287 287 286 285 284 284 284 283 282 281 281 280 280 280 280 280 281 281 280 281 281 282 282 282 283 283 283 284 283 283 283 283 284 284 284 284 284 285 286 286
287 286 286 286 286 285 284 284 283 282 281 281 281 280 280 280 279 279 280 281 281 281 281 282 281 281 281 281 281 282 283 283 283 283 284 284 284 284 284 284 285 285 286
287 286 285 285 284 283 283 283 282 281 281 281 281 279 279 279 278 279 280 280 281 281 282 280 280 280 279 279 280 280 281 282 283 283 283 284 284 284 284 284 285 285 286
287 286 285 284 283 283 282 282 282 281 281 281 280 279 279 278 278 278 281 280 281 282 281 281 278 278 278 278 279 279 280 280 281 282 283 283 283 283 284 285 285 285 285
287 286 285 284 283 283 282 281 281 281 280 280 279 279 278 278 278 280 280 280 281 281 280 279 279 277 277 277 277 278 278 279 280 281 283 284 283 283 283 284 284 285 285
287 286 286 285 284 283 281 281 281 280 279 278 278 278 278 278 279 278 278 279 279 279 279 278 277 276 276 276 276 276 277 278 278 280 283 283 283 283 282 283 284 285 285
287 286 285 284 283 282 282 281 279 279 278 277 277 277 277 277 277 277 277 277 277 277 277 276 276 275 276 276 276 275 275 277 278 278 281 283 284 284 283 284 284 285 285
286 285 283 283 282 282 281 280 279 278 277 277 276 275 275 276 276 275 275 276 275 275 274 275 274 274 274 275 275 275 275 276 277 277 278 279 282 283 283 283 284 283 282
285 283 283 282 281 282 281 280 279 278 276 276 275 275 274 274 274 273 273 272 272 272 272 273 273 273 273 274 275 276 275 276 276 276 277 278 279 281 281 281 281 281 281
284 283 282 282 281 281 279 279 278 277 276 276 274 274 273 273 272 272 272 271 271 271 271 271 272 272 273 274 274 275 275 275 276 276 276 277 277 278 279 280 280 280 279
283 283 282 281 280 280 279 278 278 277 276 275 274 273 273 272 272 271 271 270 270 270 270 271 271 272 273 273 274 275 275 275 275 276 276 276 277 277 277 277 278 278 278
282 283 281 281 280 279 279 278 278 277 275 275 274 273 272 272 271 271 270 270 269 269 270 270 271 272 272 273 273 274 274 275 275 275 276 276 276 276 277 277 277 277 277
283 282 281 280 280 279 279 278 277 277 275 274 273 272 272 271 271 271 270 270 269 268 268 269 270 271 272 273 274 274 274 274 275 275 275 276 276 276 276 276 276 276 276
282 281 281 280 280 279 278 277 277 276 275 274 273 272 272 271 271 270 270 269 268 268 268 268 269 269 271 272 273 273 274 274 274 274 275 275 276 276 276 275 275 275 275
282 281 281 280 280 279 278 277 276 276 275 274 273 272 272 271 271 270 270 269 269 268 268 268 268 269 269 270 271 272 273 274 274 273 273 274 274 275 275 275 275 275 275
282 282 281 281 280 279 278 277 276 276 275 274 273 272 272 271 271 270 270 270 269 269 268 268 268 268 268 268 269 271 271 272 273 273 273 273 273 273 273 274 274 274 274

GFSGL_925_thetae_006.txt.gz
Theta_e
303 303 301 300 299 297 296 296 295 297 295 294 293 294 293 292 292 293 293 293 291 291 290 289 288 288 288 288 288 289 289 290 291 290 291 291 291 291 292 291 291 292 292
302 300 299 299 297 294 293 294 295 293 292 293 293 292 292 291 291 291 291 290 289 288 288 288 288 288 288 288 288 288 288 289 289 289 290 291 292 292 292 293 292 291 291
299 299 298 296 292 292 292 293 293 294 293 293 292 293 292 291 291 290 288 288 288 287 287 287 287 286 286 286 286 286 286 286 287 287 287 287 288 288 288 289 290 290 291
299 298 296 293 291 292 294 294 294 294 294 293 293 292 291 290 288 288 287 287 287 287 286 285 284 284 283 283 283 284 284 284 285 285 286 286 286 287 287 287 287 288 288
298 297 296 295 294 294 294 294 294 294 293 293 293 292 289 287 287 287 287 287 286 285 285 284 283 282 283 283 284 284 284 284 284 285 285 285 285 285 285 286 286 286 286
297 297 296 296 295 295 292 292 292 292 292 292 291 287 287 287 287 287 285 285 284 283 283 282 282 282 282 282 282 283 283 283 283 283 283 284 283 283 284 284 284 284 285
294 291 291 291 291 291 291 290 289 288 287 286 286 286 286 286 285 284 284 283 282 282 281 281 281 281 281 281 282 282 282 282 283 283 284 284 284 283 283 283 284 284 284
291 292 292 291 288 288 287 287 286 286 285 285 285 285 284 283 282 282 282 282 281 281 281 281 281 281 281 281 282 282 282 282 282 282 282 282 283 283 283 283 284 284 284
293 292 290 288 287 287 286 285 285 284 284 284 284 282 281 281 280 280 281 281 281 280 281 280 280 281 281 282 282 282 282 282 282 283 283 283 283 283 283 283 283 284 284
291 289 287 287 286 286 285 284 284 283 283 282 282 281 281 280 279 280 280 280 280 281 280 280 280 281 282 282 282 282 282 283 283 283 283 283 283 283 284 284 284 285 284
288 287 286 286 285 285 284 284 283 282 282 281 281 281 280 279 279 279 280 280 280 280 281 281 281 282 281 281 281 281 281 282 283 283 283 283 283 283 284 284 284 284 285
287 286 285 285 285 284 283 282 282 282 281 281 280 280 279 279 278 278 279 280 280 281 281 281 281 280 280 280 279 280 280 281 281 282 283 283 283 283 283 284 284 284 284
287 286 285 285 284 283 282 282 282 281 281 280 280 279 278 278 278 277 279 279 280 280 281 281 280 279 278 278 278 279 279 279 280 281 283 283 283 283 284 284 284 284 284
287 286 286 285 284 283 283 281 281 281 280 280 279 278 278 277 277 277 279 279 279 281 280 279 278 277 277 277 277 277 278 278 279 280 281 282 283 283 283 284 284 284 284
287 286 286 285 284 284 283 281 281 280 280 279 278 278 278 277 277 279 279 279 280 279 279 278 277 276 276 276 276 276 277 277 277 278 280 282 283 283 283 283 284 284 284
287 286 285 284 284 283 282 281 281 280 279 278 278 277 277 277 278 278 277 277 278 277 277 276 276 275 274 275 275 275 275 275 276 277 279 281 282 283 282 282 283 284 284
286 285 284 284 282 282 282 281 280 279 278 277 276 276 276 276 277 276 275 276 275 276 275 275 274 274 274 274 274 274 274 274 275 276 277 279 280 283 283 283 283 284 284
285 285 284 283 282 281 281 280 279 278 277 276 276 275 274 275 275 275 273 274 273 273 273 273 272 272 273 273 273 273 274 274 275 275 276 277 279 280 280 281 282 283 282
285 284 282 282 281 281 280 279 279 278 277 276 275 274 273 273 273 273 272 271 271 271 271 271 271 271 272 272 273 274 274 274 274 275 275 276 277 279 280 279 280 281 281
283 283 283 282 281 280 279 279 278 278 277 275 275 273 273 272 272 271 271 270 270 270 270 270 271 271 271 272 273 273 274 273 274 274 275 276 276 277 277 278 278 278 278
283 282 282 281 280 280 279 279 278 277 276 275 274 273 272 272 271 271 270 270 269 269 269 270 271 271 272 272 273 273 273 273 273 274 275 275 276 276 276 277 277 277 277
283 282 281 280 280 279 279 278 278 277 276 275 274 273 272 271 271 270 270 269 269 268 268 269 270 270 271 271 272 273 273 273 273 274 275 275 275 276 276 276 276 276 276
283 282 281 280 280 279 279 277 277 276 276 275 274 273 272 271 271 270 270 269 268 268 268 268 269 270 271 271 272 272 272 272 272 273 274 275 275 275 275 275 275 275 275
282 282 281 280 280 279 279 277 277 276 275 275 273 273 272 271 271 270 270 269 269 268 268 268 268 268 269 270 271 272 272 273 273 273 273 274 275 275 275 275 275 275 274
281 282 281 281 280 280 279 278 277 276 275 275 274 273 272 271 271 270 270 269 269 269 268 268 268 268 268 268 270 270 271 272 273 273 273 273 273 273 274 274 274 274 274
281 282 281 280 280 280 279 278 277 276 276 275 274 273 272 271 271 271 271 270 270 269 268 268 268 268 268 268 268 268 269 270 271 271 272 272 272 271 272 272 273 273 273

GFSGL_925_thetae_009.txt.gz
Theta_e
302 300 299 298 296 294 293 294 294 296 295 293 293 293 293 292 292 291 292 293 293 292 292 291 290 290 289 290 289 289 289 289 291 290 290 290 290 290 291 291 292 292 292
300 299 297 295 294 292 293 293 293 293 292 293 293 293 293 293 293 292 291 290 289 289 289 288 288 288 289 289 289 289 289 289 289 290 289 290 290 290 291 291 292 292 292
298 298 296 296 294 294 294 294 294 294 294 294 294 293 292 291 290 289 288 288 287 288 288 288 287 287 287 287 286 286 286 287 287 287 288 288 288 288 288 289 289 290 290
298 297 296 295 294 294 294 294 294 293 293 293 292 292 292 291 289 288 287 288 287 287 286 286 285 285 285 285 284 284 285 285 285 286 286 286 287 287 287 288 288 288 288
298 297 297 296 296 293 292 292 292 293 293 293 292 291 287 286 287 287 287 287 287 286 286 285 284 284 283 283 283 284 284 285 285 285 285 285 286 286 286 287 287 288 288
297 294 292 292 293 292 292 291 291 290 288 286 286 285 285 286 285 286 286 286 285 284 284 283 283 282 282 282 282 283 283 283 284 284 284 285 285 285 285 285 285 286 288
293 292 292 292 290 289 288 287 287 286 286 285 285 285 285 284 283 282 283 283 283 283 282 282 282 282 282 282 282 282 282 282 282 282 283 284 284 284 284 285 285 285 286
292 293 292 290 288 288 287 286 285 285 285 284 285 284 283 282 281 281 281 281 282 281 281 281 282 282 282 282 282 282 283 283 283 283 283 283 283 283 283 284 284 285 285
292 291 289 287 287 286 286 285 284 284 284 284 282 282 282 281 280 280 280 281 281 281 281 281 282 282 282 282 282 283 283 283 283 283 283 283 283 283 283 283 284 285 286
290 289 287 286 286 285 284 284 284 283 283 282 281 281 281 280 279 279 280 280 280 281 281 281 282 282 281 282 282 282 283 282 282 284 284 284 284 284 284 284 284 285 285
288 288 287 285 285 285 284 283 283 283 282 281 281 280 280 279 279 279 279 279 280 281 281 282 282 282 281 281 280 281 281 281 281 282 283 283 284 284 284 284 284 285 285
290 287 286 285 285 284 283 283 282 282 282 281 280 280 280 279 279 278 278 279 280 281 281 282 282 280 279 279 279 279 279 279 281 281 282 283 284 284 284 284 284 285 285
288 287 286 286 285 284 283 283 283 282 282 281 281 280 279 278 278 278 278 279 279 280 281 280 279 278 278 278 278 278 278 280 280 281 283 283 284 284 285 284 284 285 284
287 287 286 286 285 285 283 283 282 282 281 280 280 279 278 278 278 278 279 279 279 280 280 279 278 277 277 277 278 278 278 279 279 280 282 282 284 284 284 285 285 285 285
287 286 286 285 284 284 283 282 282 281 279 279 279 278 277 277 277 278 278 278 278 278 278 278 277 277 277 277 277 277 278 278 279 279 281 283 284 285 284 284 285 285 285
286 286 285 284 283 282 282 281 281 280 279 277 277 277 277 276 277 277 276 276 276 276 277 276 276 276 276 276 277 277 277 277 277 278 280 281 282 284 284 284 284 285 286
285 285 284 284 282 282 281 281 280 279 278 277 276 275 275 276 276 275 275 274 274 274 275 275 275 274 275 276 276 276 276 276 276 277 278 279 280 283 284 284 285 285 285
285 285 284 282 282 281 280 279 278 278 277 277 275 274 274 274 274 274 273 273 273 273 273 274 273 273 274 274 274 275 275 276 276 276 277 277 278 282 283 283 284 285 285
284 283 283 282 281 280 279 279 278 278 277 276 275 274 273 273 273 272 272 272 272 272 271 272 272 272 272 273 273 273 274 275 275 275 276 276 277 278 280 281 282 281 283
283 282 282 282 281 280 279 279 278 277 277 276 275 274 273 273 273 272 271 271 271 270 270 271 271 271 271 272 272 272 274 274 275 275 275 276 276 277 278 279 280 281 281
282 282 282 281 280 280 279 278 277 277 276 276 275 273 272 272 272 272 271 270 270 269 269 269 270 270 270 271 271 272 272 273 273 273 274 275 275 276 277 278 279 279 279
283 282 282 280 280 279 279 277 276 276 276 275 274 273 272 272 271 271 270 269 269 268 268 268 268 269 269 269 269 270 271 272 272 272 273 274 276 276 277 277 278 278 278
282 282 281 281 280 279 279 277 276 276 276 275 274 273 272 272 271 271 270 269 269 268 268 268 268 268 268 269 270 270 270 270 271 272 272 274 275 275 276 276 276 277 276
281 281 281 281 280 279 278 278 277 276 275 275 274 273 272 272 271 271 270 269 269 268 268 268 268 268 268 268 269 269 270 271 272 272 272 272 273 273 274 275 275 275 275
281 281 281 281 280 279 278 278 277 276 275 275 274 273 272 272 271 271 270 270 270 269 268 268 267 268 268 268 268 268 269 270 271 271 272 271 271 272 272 272 272 274 273
281 281 282 281 280 279 278 277 277 277 276 275 274 273 273 272 271 271 271 270 270 269 268 268 268 268 267 267 267 268 268 268 269 269 270 270 270 270 271 271 271 272 272

GFSGL_925_thetae_012.txt.gz
Theta_e
305 303 302 300 298 297 297 297 297 297 296 296 296 296 296 294 293 293 294 294 293 292 292 291 291 290 291 291 291 291 291 291 292 291 291 291 292 292 292 292 292 292 293
302 301 300 298 297 297 297 297 297 296 296 296 296 295 294 293 295 293 292 292 291 291 290 290 290 289 289 289 290 290 290 290 291 291 291 291 291 291 292 292 292 292 292
301 300 299 298 298 297 297 296 296 296 296 296 295 294 294 294 293 292 292 291 291 290 290 289 289 289 289 288 288 288 288 288 288 289 289 289 290 290 290 290 291 291 291
300 299 299 298 297 297 295 295 294 294 294 294 293 293 291 290 289 289 289 289 289 289 288 288 288 287 287 287 287 286 286 287 287 288 288 288 289 289 289 289 290 290 290
299 298 297 296 295 294 293 292 292 292 290 289 289 289 288 288 288 287 287 287 288 287 287 287 287 286 285 284 284 284 285 286 287 288 288 288 288 289 289 289 289 289 290
298 297 295 294 294 292 291 290 289 288 288 288 288 288 288 287 285 283 283 285 285 286 286 286 285 285 284 284 283 283 283 284 285 286 286 287 287 287 288 288 288 288 289
296 295 294 294 293 291 290 288 288 288 288 287 287 287 287 286 284 282 282 282 283 284 285 284 284 284 284 284 284 283 283 283 283 283 284 285 285 285 286 286 287 287 287
295 295 294 292 291 290 288 288 288 287 287 287 287 286 285 285 283 281 281 282 283 284 284 283 283 284 284 283 283 283 283 284 284 284 284 284 284 284 284 285 286 286 287
295 294 293 291 290 288 288 288 287 287 287 286 285 285 284 284 282 281 280 281 282 282 282 282 282 283 283 283 283 283 284 284 284 284 284 283 283 283 283 284 286 286 287
294 293 292 290 289 288 288 288 287 286 286 285 285 284 283 283 282 280 280 280 281 282 282 282 283 283 283 282 283 283 283 283 283 284 283 284 285 284 284 284 285 286 286
293 292 291 290 288 288 288 288 287 286 286 285 283 283 283 282 281 280 279 279 280 281 281 282 283 283 282 281 280 281 281 281 281 282 283 283 284 285 286 286 286 285 286
294 293 291 289 288 287 288 287 287 286 285 284 283 283 282 281 281 280 279 279 280 281 281 282 283 280 280 280 279 280 279 279 281 283 284 284 285 285 286 286 286 286 286
292 291 290 289 288 288 288 287 286 285 284 283 282 282 281 281 280 280 279 280 280 280 281 281 280 279 279 279 279 279 279 281 282 283 284 285 286 286 286 286 286 286 286
292 290 290 289 288 288 287 286 285 284 283 282 281 281 280 280 279 279 279 279 279 280 279 281 279 278 279 279 280 280 281 281 281 282 283 284 285 286 286 286 286 287 286
289 289 289 288 288 287 286 285 284 283 281 280 280 279 279 278 278 277 277 277 278 278 278 279 279 279 280 280 280 279 280 280 281 281 282 283 284 286 287 286 286 286 287
288 288 288 287 287 286 285 284 283 281 279 277 277 277 277 277 276 277 276 276 276 276 278 278 278 277 278 279 279 279 279 279 279 280 282 283 283 285 286 286 285 286 287
287 287 287 286 286 285 284 283 283 282 280 278 277 276 275 275 275 275 275 275 275 276 277 277 277 277 277 278 278 278 278 278 279 280 281 281 282 284 286 287 286 286 287
285 285 285 286 285 284 283 282 282 281 281 280 278 276 275 274 274 274 274 275 275 275 275 275 275 275 276 276 277 277 277 278 278 279 279 280 281 282 283 284 285 286 287
285 285 284 284 283 282 282 282 281 281 280 280 278 277 276 275 275 274 274 274 274 274 274 274 274 274 275 275 276 276 277 277 277 278 278 279 279 281 282 283 284 284 285
284 283 283 283 283 282 282 281 281 280 280 279 278 276 275 276 275 275 274 273 273 273 273 273 273 274 274 274 275 275 276 276 277 277 278 278 279 280 281 281 281 282 283
284 283 283 283 283 282 281 281 280 280 279 279 278 276 273 275 274 274 273 272 272 271 271 272 272 273 273 273 273 274 275 275 276 276 277 278 279 279 280 280 280 281 281
283 284 283 283 282 282 281 281 280 280 279 279 278 276 274 275 274 274 273 272 271 271 271 271 271 271 271 272 272 273 274 274 274 274 275 277 278 279 279 279 279 280 280
282 283 283 283 282 281 281 281 280 280 279 279 278 277 276 275 274 274 273 272 271 271 270 270 270 270 270 271 271 271 271 272 272 273 274 275 277 277 278 278 278 279 279
282 282 283 283 282 281 281 281 280 280 278 278 278 277 276 275 274 274 273 273 272 271 270 270 269 269 269 269 269 269 269 270 270 271 273 274 274 275 276 277 277 277 278
282 283 283 283 283 282 281 281 281 280 279 279 278 277 276 275 274 274 274 273 272 271 270 270 269 269 269 268 268 268 268 268 269 270 272 273 273 273 274 275 275 276 276
283 283 283 283 283 282 281 281 280 280 280 279 278 277 276 275 274 273 273 273 272 272 270 270 269 268 268 269 267 267 268 268 268 269 270 272 272 272 273 273 273 274 275

GFSGL_925_thetae_015.txt.gz
Theta_e
305 304 303 302 301 299 299 299 298 298 297 298 297 297 297 296 295 295 295 295 295 294 293 293 293 292 292 291 291 292 293 292 293 292 292 293 293 293 293 293 294 294 294
303 302 301 300 300 299 299 297 297 296 297 297 297 296 295 295 295 294 294 294 293 293 293 293 292 292 291 291 291 291 291 291 292 293 292 292 292 292 292 293 293 293 293
301 300 300 299 299 298 297 296 295 295 295 295 295 295 294 293 292 291 291 291 291 291 291 290 290 290 290 290 290 290 290 290 290 290 291 290 291 291 291 291 292 292 292
300 299 299 299 297 297 296 295 294 293 292 291 290 290 290 290 290 290 290 289 289 289 289 289 289 289 289 289 289 288 288 288 288 289 289 290 290 290 290 291 291 291 292
299 299 298 297 296 295 294 293 292 291 290 290 289 289 289 289 289 288 287 286 286 287 287 288 288 288 287 286 286 286 286 286 287 288 289 290 290 290 291 291 291 291 291
298 298 297 296 295 295 293 292 290 290 289 289 289 289 289 288 286 285 284 284 284 285 286 286 287 287 287 286 285 284 284 284 285 286 287 288 288 288 288 289 289 290 291
297 297 296 296 295 293 292 290 290 289 289 289 289 288 288 287 285 284 283 283 283 284 285 286 286 286 286 285 286 285 285 284 284 284 284 285 286 286 286 287 287 288 288
298 297 296 295 294 292 291 290 289 289 289 288 288 288 287 287 285 283 282 282 283 283 284 285 285 285 285 284 284 284 284 284 285 285 284 285 285 285 285 286 286 286 287
297 296 295 295 294 292 291 290 289 289 289 288 287 287 286 285 284 283 281 281 282 282 282 283 283 283 283 283 283 284 284 284 285 285 284 284 284 284 284 284 285 286 288
297 295 294 294 293 292 290 290 289 289 288 288 287 286 285 284 284 282 281 281 280 281 281 282 282 283 283 283 284 284 284 284 283 284 284 284 284 285 284 285 284 285 286
296 295 295 295 293 291 290 289 289 289 288 287 286 285 284 285 283 282 281 280 280 281 281 282 283 282 281 281 281 281 282 282 281 282 282 283 284 284 285 286 286 285 286
296 295 294 293 292 290 290 289 289 288 287 286 285 284 284 283 283 282 280 280 280 280 281 281 283 281 280 280 280 280 280 279 281 282 284 285 286 286 286 286 287 287 287
294 293 293 292 291 290 290 289 288 287 286 285 284 284 283 282 282 281 279 279 279 279 280 280 280 280 280 280 281 280 280 281 283 283 284 285 286 286 286 287 287 287 287
291 291 291 291 290 289 289 288 287 286 285 283 283 282 281 280 280 279 278 278 278 279 278 279 280 280 280 281 282 282 282 282 282 283 284 284 285 286 287 288 287 287 287
290 289 289 290 289 289 288 287 286 285 283 281 280 279 279 278 278 277 277 277 277 277 277 280 280 279 279 281 281 281 282 281 282 282 283 284 285 285 287 288 287 287 288
288 289 289 289 288 287 287 286 284 284 282 280 278 277 277 276 276 276 276 276 276 276 279 279 279 278 279 279 280 280 280 280 280 281 282 283 284 284 286 287 287 287 287
286 286 286 287 287 286 286 285 284 284 282 281 279 277 276 276 276 275 276 276 276 276 277 278 277 277 277 278 278 278 279 279 280 280 281 282 282 283 285 286 287 288 288
285 285 286 286 286 285 284 283 283 283 283 282 281 278 277 276 276 275 275 277 277 277 276 276 276 276 277 277 277 277 278 279 279 280 280 281 281 283 284 284 286 285 286
284 285 285 285 285 284 284 283 283 283 283 282 281 280 278 277 277 276 276 276 276 276 275 275 275 275 276 276 276 277 278 278 278 279 279 280 280 282 283 283 283 284 285
286 284 284 284 284 284 283 283 283 282 282 282 281 280 277 276 277 277 276 275 274 274 274 274 274 275 275 275 275 276 277 277 277 277 278 280 280 281 281 282 282 283 283
285 285 284 283 284 283 283 283 282 282 282 281 281 279 276 276 277 276 276 275 274 273 273 273 274 274 274 274 274 274 275 276 276 276 277 278 279 280 281 281 281 282 282
283 284 284 284 284 284 283 282 282 282 282 281 280 280 277 278 277 276 275 275 274 273 272 272 273 272 272 273 273 273 273 274 274 274 275 276 278 278 280 280 280 281 281
283 284 284 284 284 283 283 283 283 283 282 281 280 280 279 278 277 276 276 275 274 273 272 272 272 271 271 271 271 271 271 271 271 272 273 275 276 276 278 278 279 279 279
283 283 284 284 284 284 283 283 282 282 282 281 281 280 279 278 277 276 276 275 274 274 272 272 271 271 270 270 270 270 269 268 269 269 272 274 275 275 276 277 277 278 278
284 284 284 284 284 284 284 283 283 282 282 282 281 280 279 278 277 276 276 275 275 274 273 271 271 270 270 270 269 268 268 268 268 269 271 273 273 274 275 275 275 277 276
284 284 284 284 284 284 284 283 282 282 282 282 281 280 279 278 277 276 276 275 274 273 273 272 271 270 270 270 269 268 269 269 269 269 270 272 272 272 272 274 273 275 275

GFSGL_925_thetae_018.txt.gz
Theta_e
305 304 303 301 300 300 300 299 297 296 296 296 297 297 296 296 295 293 293 294 293 293 294 293 293 293 293 293 292 292 293 293 294 293 293 292 293 294 293 293 293 293 294
303 302 300 300 300 300 298 298 296 296 296 295 294 294 294 294 294 294 292 292 293 292 292 292 292 292 291 291 290 291 291 291 291 291 291 291 291 291 291 291 292 293 293
301 300 300 300 299 298 297 297 296 295 294 293 291 291 290 290 290 290 290 290 288 288 288 289 289 290 290 290 290 290 289 289 289 289 289 289 289 289 290 290 290 291 291
301 299 299 299 298 297 296 296 295 293 292 291 290 290 290 290 290 289 289 288 287 286 286 286 287 287 288 289 289 288 288 287 286 287 287 288 288 289 290 290 290 290 290
300 299 299 298 297 296 296 295 294 292 290 290 290 290 289 289 288 287 286 285 285 285 285 285 286 286 287 287 287 287 286 286 286 286 286 287 288 289 289 289 289 289 290
300 300 299 298 297 296 295 294 293 291 290 290 290 289 289 288 287 285 285 284 284 284 283 284 285 286 286 287 286 286 285 285 285 285 284 284 285 285 286 287 287 288 286
301 300 299 298 297 296 295 293 292 290 290 290 289 289 288 288 286 285 284 283 282 282 283 283 284 284 284 285 285 285 285 285 285 284 284 284 284 284 285 286 286 287 287
299 299 298 297 296 295 294 293 291 290 290 289 289 288 287 287 286 285 284 283 282 281 281 281 282 283 283 283 283 284 284 284 284 285 285 284 284 284 285 286 286 286 286
297 297 297 296 295 295 294 292 290 290 289 289 288 288 287 286 285 285 284 282 282 281 281 281 282 282 282 283 283 284 284 284 284 284 285 284 284 284 285 285 284 284 284
297 297 296 296 295 294 292 291 290 290 289 288 288 287 286 285 285 284 283 281 281 281 281 281 281 282 282 281 281 282 282 282 282 282 282 282 282 283 283 284 284 285 284
295 295 294 294 294 292 291 290 290 289 289 287 286 285 284 284 284 283 282 281 280 280 280 280 281 282 282 281 281 280 280 281 281 280 281 281 282 283 284 284 285 285 285
293 293 293 293 293 292 291 290 290 288 288 286 285 284 284 283 282 281 280 279 279 279 279 279 280 280 281 280 280 281 281 280 280 280 281 282 284 285 286 286 286 286 286
291 291 292 292 291 291 291 289 288 287 286 285 284 283 282 281 280 280 278 278 278 278 278 278 279 280 280 280 281 281 281 281 281 283 283 284 284 284 285 286 286 287 287
291 290 290 290 290 290 289 288 287 286 286 284 283 281 280 279 278 277 277 277 277 277 277 278 280 279 279 279 280 281 281 282 281 282 282 283 284 285 285 286 287 287 287
289 289 289 289 289 288 288 286 286 285 284 282 281 280 279 278 277 277 277 277 277 277 277 279 278 278 278 279 279 279 280 280 280 280 281 282 283 284 284 285 287 287 287
287 287 286 287 287 287 287 286 285 285 284 283 281 279 278 277 277 277 276 277 277 277 278 278 277 277 277 278 278 278 278 279 279 280 281 281 282 282 284 285 287 287 287
286 285 285 286 287 286 285 285 284 284 283 283 282 280 278 277 277 277 276 277 278 277 276 277 277 277 277 277 277 277 278 279 278 279 280 280 280 281 284 284 285 285 286
286 285 286 286 286 285 284 284 284 284 283 283 283 281 278 278 277 277 277 276 276 276 275 276 276 276 276 276 276 276 277 278 277 278 279 280 280 281 283 283 283 284 284
286 285 284 284 284 284 284 284 284 283 283 283 282 281 279 278 277 278 277 275 275 275 274 275 275 275 275 275 275 275 276 277 277 277 277 278 280 281 281 282 282 283 283
286 285 284 284 284 285 284 283 283 283 283 283 282 281 279 277 277 277 276 276 275 274 273 274 274 274 274 274 274 274 275 275 275 275 275 276 278 280 280 281 281 282 282
286 285 285 284 284 284 283 283 283 283 283 282 282 281 279 277 278 277 276 276 275 274 273 272 273 273 272 272 272 272 273 273 272 273 274 275 277 278 279 280 280 280 280
284 283 284 284 285 284 284 283 282 283 283 282 282 281 280 279 278 277 277 276 275 274 273 272 272 272 271 271 272 271 271 270 270 270 272 274 275 276 277 278 279 278 279
283 283 283 283 284 284 284 283 283 283 283 282 281 281 280 280 278 277 277 276 275 274 274 272 272 271 271 270 270 270 270 269 268 269 271 273 274 274 275 276 276 278 277
283 283 283 284 284 284 284 284 284 283 283 283 282 281 281 280 278 278 277 276 275 274 274 273 272 271 270 270 270 269 268 268 268 269 271 272 273 273 274 275 274 276 276
284 284 284 284 284 284 285 284 284 283 282 283 282 282 281 280 279 278 277 276 275 275 274 273 272 271 270 270 270 269 269 269 269 269 270 271 271 272 272 273 273 275 275
284 284 284 283 284 284 284 284 284 283 282 282 282 282 281 280 279 278 277 276 275 275 273 273 272 271 270 270 270 269 269 269 269 269 270 270 270 270 270 271 272 272 272

GFSGL_925_thetae_021.txt.gz
Theta_e
303 302 302 300 299 300 300 298 297 295 295 295 294 293 291 291 291 292 291 290 291 292 291 289 289 290 292 291 291 291 291 292 293 292 292 291 290 291 291 292 293 292 293
303 302 300 300 299 299 298 297 296 296 295 294 292 291 290 290 290 290 290 289 289 288 287 286 286 286 287 288 289 289 289 289 289 288 288 288 288 288 289 289 289 291 292
303 301 300 299 299 299 298 296 296 295 294 292 291 290 290 289 289 289 289 288 287 286 286 285 285 285 285 286 287 288 289 288 288 287 286 286 286 287 287 288 289 289 289
302 301 300 299 299 298 296 296 295 294 293 291 290 289 289 289 289 288 287 286 285 285 284 284 284 284 284 285 286 287 287 287 287 286 285 285 286 286 287 288 288 288 289
301 301 301 300 299 297 297 296 295 293 292 290 289 289 289 289 288 287 286 286 285 284 282 282 282 283 285 285 286 286 286 286 286 285 285 285 284 285 285 285 285 286 287
297 297 299 300 298 298 297 295 293 292 290 290 289 289 289 288 287 286 285 285 284 282 281 281 281 282 283 283 284 284 284 285 286 284 284 283 284 284 284 284 284 285 284
295 296 297 296 297 297 296 295 293 291 290 289 289 289 288 287 286 285 284 284 283 283 281 281 280 280 281 281 282 283 283 283 283 284 284 284 284 284 284 284 284 284 285
295 296 296 296 296 295 295 293 291 290 290 289 289 288 287 286 285 284 285 284 283 282 281 281 280 281 281 281 282 283 283 283 283 283 284 284 284 284 284 284 284 285 286
295 295 295 294 294 294 293 293 291 290 289 289 288 287 285 284 284 284 284 282 281 280 280 280 280 280 281 282 281 281 281 282 283 284 284 284 284 283 284 285 284 284 284
293 293 293 293 294 293 292 290 290 289 289 288 286 285 284 284 283 283 282 281 279 279 279 279 279 280 281 281 282 281 280 280 280 281 281 281 281 281 281 282 283 284 284
292 291 291 292 291 292 292 291 290 288 287 286 285 284 283 282 281 281 280 279 278 278 278 278 278 279 279 281 281 281 280 280 281 280 280 280 281 282 283 284 284 284 284
291 290 290 290 290 291 291 290 288 287 286 285 284 283 281 280 279 279 278 278 278 277 277 277 278 279 280 280 280 281 281 281 281 281 280 281 282 284 284 284 285 285 285
290 289 289 289 289 289 288 287 287 286 285 284 283 282 281 279 277 277 277 277 277 277 277 277 278 278 278 279 280 280 281 281 281 282 282 282 283 284 285 285 285 286 286
289 288 288 288 288 288 287 286 285 285 284 283 282 281 280 278 277 277 277 277 277 278 277 278 277 277 278 278 278 278 279 279 279 280 281 282 282 282 283 284 285 287 287
288 287 286 285 286 286 286 285 285 284 284 283 282 281 279 278 277 278 277 277 278 278 277 277 276 276 277 277 277 278 278 278 279 279 280 281 281 281 283 284 286 287 287
287 286 285 285 286 286 285 285 284 283 283 283 283 282 280 278 278 278 278 277 277 276 276 276 276 276 276 276 276 277 277 278 278 278 279 280 280 281 282 283 284 284 285
287 286 285 285 286 285 284 284 283 283 283 283 283 282 280 278 278 278 277 276 276 275 275 275 275 275 275 275 275 276 276 277 277 277 278 278 280 281 281 282 282 283 283
287 286 285 284 284 284 284 283 283 283 283 283 283 282 280 278 278 278 277 276 274 274 274 274 274 274 274 274 274 274 275 275 275 275 276 277 278 280 281 281 282 282 282
286 286 285 284 283 283 283 284 283 283 283 282 282 281 280 279 277 277 276 276 274 274 273 273 273 273 273 273 273 273 273 273 273 274 274 275 276 278 279 280 281 281 281
286 285 285 284 284 283 283 284 283 283 283 282 282 282 281 279 277 277 276 276 274 274 273 272 272 272 272 272 272 272 271 271 271 272 273 274 275 276 277 279 279 280 279
285 284 283 284 284 284 284 283 283 282 282 282 282 282 281 279 278 277 277 276 275 274 273 273 272 272 271 271 271 271 271 270 269 270 272 273 274 274 276 276 278 278 278
284 283 283 283 283 283 284 284 283 282 283 283 283 281 281 280 279 278 277 276 275 275 274 273 272 271 271 270 270 270 269 269 268 269 270 272 273 273 274 275 276 277 276
283 283 283 283 283 283 283 284 284 283 283 282 282 282 281 281 280 279 278 277 276 275 274 274 273 271 271 270 270 270 268 268 268 268 270 272 272 272 273 273 274 275 275
283 283 283 283 283 283 284 284 284 284 283 282 282 283 282 281 280 279 278 277 276 276 275 274 273 272 271 270 270 270 269 269 268 268 270 271 271 271 272 273 273 274 274
285 284 283 284 283 283 284 284 284 284 283 282 282 282 282 281 280 279 278 277 276 275 275 274 273 272 271 270 270 270 269 269 268 269 270 270 270 270 270 271 271 272 272
285 284 284 284 284 283 283 283 284 283 283 282 281 281 281 280 280 280 279 278 276 275 275 274 273 272 271 270 270 270 269 269 268 269 269 269 269 269 270 270 270 270 271

GFSGL_925_thetae_024.txt.gz
Theta_e
303 303 302 301 300 299 299 299 299 297 295 295 294 292 290 290 289 289 289 289 289 288 288 287 287 286 285 285 285 286 288 290 291 290 289 289 289 289 288 288 289 290 292
303 303 302 300 299 299 299 299 298 296 296 294 293 291 290 289 289 289 289 288 287 286 286 285 285 285 284 284 284 285 286 287 288 287 288 287 287 287 287 287 287 288 289
301 301 300 300 299 299 299 298 297 296 294 293 292 290 289 289 289 289 288 287 286 286 285 284 283 282 282 283 284 285 285 286 287 287 286 286 286 285 285 286 287 288 288
298 296 297 298 299 299 298 297 296 295 295 293 290 289 289 289 289 288 287 286 286 285 284 283 281 281 282 283 284 285 285 285 285 285 285 285 285 285 284 284 285 285 286
295 296 296 296 295 296 297 297 296 295 293 292 290 289 289 289 288 287 286 285 284 284 283 282 281 281 281 282 283 283 284 284 284 285 284 284 284 284 284 284 283 283 283
294 296 296 295 295 295 295 295 295 294 292 290 289 289 289 287 286 286 285 284 284 284 283 282 281 281 280 281 281 282 282 283 283 284 284 283 283 283 284 283 283 283 283
296 295 294 293 293 293 293 294 294 292 290 289 289 288 287 286 285 284 284 285 284 283 282 281 281 280 280 280 280 281 282 282 283 283 284 284 283 283 283 284 283 283 283
294 293 293 293 292 293 292 291 291 291 289 288 288 287 285 284 284 284 283 282 281 281 280 279 279 279 279 280 281 282 281 281 282 283 283 283 283 283 284 284 284 284 284
293 292 292 291 291 292 292 291 290 290 289 288 286 284 284 283 283 282 282 280 279 278 278 278 279 279 279 280 280 281 281 281 280 281 282 283 283 283 284 284 284 284 283
292 291 291 291 291 291 292 291 291 289 288 286 284 283 282 281 280 281 280 279 278 278 278 277 278 278 279 280 281 281 280 280 280 280 280 280 280 280 280 281 281 282 282
291 290 290 289 289 289 291 291 290 288 286 284 283 282 281 280 279 278 278 278 277 277 277 277 278 278 280 280 280 280 280 281 281 281 280 280 281 282 282 283 283 282 282
291 290 289 289 288 288 288 288 287 286 285 284 283 281 280 279 278 278 277 277 277 277 277 277 278 279 279 279 279 280 280 281 281 281 281 281 282 283 283 283 284 284 284
290 289 288 288 288 287 286 286 285 284 284 283 282 281 280 279 278 278 277 277 277 277 277 278 277 277 277 278 278 279 279 279 279 280 280 281 282 282 283 284 285 285 285
289 288 287 286 285 286 285 285 284 284 283 283 282 282 281 279 278 278 278 277 278 277 276 276 276 276 276 276 277 277 278 278 278 279 280 280 281 282 283 283 285 286 286
288 287 286 285 285 286 285 284 283 283 283 283 283 282 281 279 278 279 278 277 277 276 275 275 275 275 275 276 276 276 276 277 277 278 279 279 280 281 282 283 284 284 285
288 287 286 284 285 286 284 284 283 283 283 283 283 282 281 279 278 279 278 277 276 275 274 275 274 274 274 275 275 275 275 276 276 276 277 277 278 280 281 282 282 283 283
287 286 285 285 285 285 284 283 283 283 282 282 282 282 281 279 279 278 278 276 275 274 273 274 274 274 273 273 273 273 274 274 274 275 275 276 277 279 280 281 281 282 283
287 286 285 284 284 283 283 283 283 283 282 282 282 282 281 279 278 277 277 275 274 273 273 273 273 273 272 272 272 272 272 272 272 273 274 275 276 277 278 279 280 280 281
286 286 285 285 284 283 283 283 284 282 283 282 282 282 281 280 278 277 276 276 274 274 273 272 272 272 271 271 271 271 270 269 270 272 273 274 275 275 276 277 278 279 278
286 285 285 285 284 283 283 283 283 283 282 282 282 282 281 280 279 278 277 276 275 274 274 273 272 271 271 270 271 270 270 269 269 271 272 273 273 274 275 276 276 277 277
285 284 284 283 283 283 284 284 284 283 282 282 283 282 281 281 280 279 278 276 276 275 274 273 273 271 271 270 270 269 269 268 268 269 271 272 272 272 274 274 276 275 276
285 284 283 282 282 282 282 283 283 284 283 283 282 282 282 281 281 280 279 277 276 275 274 274 273 272 271 270 270 270 269 268 268 268 270 271 272 271 273 273 275 274 274
285 284 283 282 282 282 283 283 283 284 284 283 282 282 282 282 281 280 279 278 277 276 275 274 274 273 271 270 270 270 270 268 268 268 270 270 271 270 272 272 273 274 273
284 284 283 283 283 283 283 283 283 284 284 284 283 282 282 282 281 280 279 278 277 276 275 274 274 273 272 271 270 270 270 269 268 269 270 270 270 270 270 271 272 272 272
286 285 285 285 284 283 283 283 283 283 283 283 282 281 281 281 281 280 280 278 277 277 276 275 274 273 272 271 270 270 269 269 268 269 270 269 269 269 270 270 270 271 271
286 286 285 285 284 284 283 283 283 282 283 283 282 282 281 280 280 280 279 279 278 277 276 275 274 273 272 271 271 270 269 269 268 269 269 269 269 268 270 270 269 270 270

GFSGL_925_thetae_030.txt.gz
Theta_e
302 302 301 300 298 296 296 295 293 294 295 296 297 295 295 293 293 290 290 289 288 288 287 286 286 285 285 284 283 281 281 282 283 284 284 284 285 286 288 288 287 287 287
300 300 296 296 295 294 294 294 295 294 294 294 295 294 293 294 292 289 289 288 288 287 286 285 285 284 283 282 281 281 281 281 282 283 284 284 285 286 286 286 286 286 285
296 295 295 295 294 294 293 292 292 292 293 294 293 293 292 289 289 289 289 287 286 285 285 284 283 283 282 282 281 281 281 281 282 283 284 284 284 285 285 285 285 285 284
295 295 295 294 293 292 292 291 291 291 293 294 293 292 291 289 289 288 286 286 285 285 284 284 283 283 282 282 282 281 281 281 281 281 282 283 283 284 284 284 284 284 284
294 294 295 293 293 292 291 291 291 292 292 292 292 290 289 288 287 286 285 285 284 283 283 283 282 281 282 281 281 280 280 280 281 281 281 282 283 283 283 283 283 283 283
293 294 294 292 292 291 290 291 291 290 290 290 290 288 287 286 285 284 284 283 282 281 280 279 278 278 279 279 279 279 280 280 281 281 281 281 282 282 282 282 282 282 283
293 294 292 292 291 290 290 291 289 290 290 289 288 286 285 284 284 283 282 281 280 279 278 277 277 278 278 278 278 279 279 280 281 280 282 281 282 282 282 282 282 282 282
293 292 292 291 290 290 290 290 291 289 289 288 286 285 284 283 281 281 281 280 278 277 277 277 277 278 278 279 280 281 280 280 280 280 281 281 281 281 281 282 282 282 282
292 292 291 290 289 289 288 289 290 291 290 287 285 284 283 281 280 279 279 278 277 277 277 277 278 278 278 280 280 280 280 280 280 281 281 281 281 281 281 282 282 282 283
292 291 291 290 289 288 288 288 289 290 288 286 284 283 282 281 279 279 279 278 277 277 277 277 277 278 279 279 279 278 279 280 280 280 281 281 281 281 281 280 281 281 282
291 291 290 289 288 287 287 288 288 288 286 284 283 282 281 280 279 278 279 278 278 278 277 276 277 277 278 278 278 278 279 278 278 279 280 280 281 281 281 281 281 280 280
291 290 289 289 288 287 286 286 286 286 284 284 283 282 281 280 279 278 279 278 278 277 276 275 276 277 277 277 277 277 277 277 277 278 278 279 280 280 281 282 282 282 282
289 289 288 288 287 285 285 285 284 284 284 283 282 282 282 280 279 278 278 278 277 276 275 275 275 275 275 275 275 276 276 276 276 276 277 278 278 280 281 282 283 283 283
289 289 288 288 287 284 285 284 284 283 283 282 282 282 282 281 279 279 279 278 276 276 274 274 274 274 273 273 273 274 274 274 274 275 275 276 278 279 281 281 282 284 284
288 288 288 288 286 284 285 284 284 283 283 282 283 282 282 282 280 279 279 278 276 275 273 273 273 273 272 272 272 272 272 272 273 274 274 275 276 278 279 281 282 282 282
288 287 287 287 286 284 284 284 284 283 282 282 282 282 282 281 280 279 278 277 276 274 273 272 272 272 271 271 271 271 270 270 271 272 273 274 274 276 277 279 280 280 281
288 287 287 286 286 285 284 283 283 282 282 282 282 282 281 281 280 279 278 277 275 274 273 272 272 272 271 271 271 270 270 269 270 272 272 273 274 275 276 277 277 277 278
288 288 287 286 286 285 284 283 283 282 282 282 282 282 281 281 281 279 278 277 276 275 274 273 272 271 271 270 270 270 269 268 269 271 272 272 273 274 274 274 275 276 276
288 287 287 286 285 285 284 284 283 282 282 283 282 281 281 281 281 280 278 277 277 276 274 274 273 272 271 270 270 269 269 268 268 269 271 271 272 272 273 273 274 275 275
287 287 287 286 285 284 284 283 283 283 283 282 282 281 281 282 281 281 280 279 278 277 275 274 274 273 272 271 270 270 269 269 268 268 270 271 271 271 272 272 273 273 273
287 286 286 285 285 284 283 282 282 282 282 282 283 283 282 281 281 281 280 279 279 278 277 275 274 273 273 271 270 270 270 269 268 268 269 270 270 270 271 272 273 273 273
287 286 286 285 285 284 283 282 282 282 282 282 282 283 283 282 282 281 281 281 280 279 277 276 275 274 273 272 271 270 270 269 268 268 269 270 269 270 270 271 272 272 272
285 286 286 285 285 284 282 282 282 282 282 282 282 283 283 283 282 281 281 281 280 279 277 276 276 275 274 273 272 270 270 270 269 268 269 270 269 269 269 270 270 271 271
286 286 286 285 285 284 284 283 283 283 283 282 282 282 282 283 283 282 281 281 280 279 278 277 276 275 274 273 272 271 270 270 269 268 269 269 269 269 269 270 269 270 270
286 285 285 285 285 284 285 284 284 284 284 283 283 282 282 283 282 281 281 280 280 279 278 277 277 276 275 274 273 271 271 271 269 269 269 269 269 268 268 269 269 269 270
285 285 285 285 284 284 283 283 283 283 283 284 284 283 282 282 282 282 281 280 279 279 279 278 277 276 275 274 273 272 271 271 269 269 269 268 268 268 268 269 269 269 269

GFSGL_925_thetae_033.txt.gz
Theta_e
301 301 299 296 295 294 294 293 293 293 292 292 294 295 295 294 293 293 293 291 289 289 288 288 287 287 286 286 285 284 284 284 284 284 283 284 284 285 285 286 287 288 288
299 297 296 295 294 294 293 292 292 292 292 292 293 294 293 293 293 291 289 290 289 288 287 286 286 286 285 285 284 284 283 283 283 283 283 283 284 284 285 286 287 287 287
296 295 294 294 294 293 292 292 291 292 292 293 293 293 292 290 290 290 289 289 286 286 286 286 285 284 284 284 283 283 282 282 282 282 282 282 282 283 284 285 286 286 286
295 294 294 294 293 292 292 291 290 291 292 292 292 291 290 290 289 288 287 286 286 285 285 284 283 283 282 282 282 282 282 282 281 281 281 282 282 282 283 284 285 286 286
294 294 294 294 292 292 291 290 290 290 291 291 290 290 288 287 286 287 286 285 284 283 282 281 280 280 280 280 280 280 280 280 280 281 281 281 282 282 282 283 284 284 285
293 293 294 292 292 291 290 290 290 290 290 290 289 288 286 286 285 284 284 284 282 281 280 280 279 279 279 279 279 279 279 280 281 281 281 282 282 282 282 283 283 283 285
292 294 293 292 291 290 290 290 290 291 289 289 288 286 285 285 283 282 281 282 280 280 279 279 279 279 279 279 279 280 281 281 281 281 282 281 281 282 282 282 283 283 283
293 292 292 291 291 290 289 289 289 290 290 289 286 285 284 283 282 281 280 280 280 279 279 279 279 279 279 279 280 280 280 280 281 281 282 282 282 282 282 282 282 283 283
292 292 292 291 290 289 289 288 288 289 290 289 286 284 283 282 281 280 280 280 279 279 279 279 278 278 278 279 279 280 279 279 280 280 280 281 281 281 281 282 282 283 284
292 291 291 290 289 289 288 287 288 289 289 287 285 284 283 282 281 279 279 280 280 279 279 278 278 277 278 278 278 279 279 279 279 279 280 281 282 282 281 281 282 282 283
291 290 290 289 289 288 287 286 286 287 286 285 284 283 282 281 280 279 279 280 279 279 278 277 277 277 277 277 277 278 278 277 278 279 279 280 281 281 282 283 282 282 282
290 289 289 289 288 288 287 286 285 285 285 284 284 283 282 281 281 279 278 279 279 278 278 276 276 276 276 275 276 276 276 276 277 278 279 280 280 281 281 282 282 282 282
288 289 288 288 288 287 286 285 285 284 284 284 283 283 283 282 281 280 279 278 278 277 277 275 274 274 274 275 274 275 275 275 276 277 278 278 279 279 280 282 282 283 283
288 289 288 288 287 287 286 285 284 284 284 283 283 283 283 282 281 280 279 280 278 277 276 274 273 273 273 274 274 274 274 273 274 275 276 277 278 279 281 281 283 284 285
288 288 288 288 287 287 285 285 284 284 284 283 283 283 283 282 282 280 279 280 278 277 275 274 274 273 273 274 274 273 272 272 273 274 275 276 277 278 280 281 282 283 284
288 288 288 288 287 286 285 285 284 284 283 282 282 282 282 282 282 281 280 279 277 276 275 275 274 273 273 273 273 273 272 271 271 273 274 275 276 277 278 280 280 281 282
287 287 288 287 287 286 286 285 285 284 282 282 282 282 282 282 281 281 280 279 277 276 276 275 274 273 273 273 272 272 272 271 270 271 273 273 274 275 277 278 279 279 280
286 286 287 287 287 286 286 285 285 284 284 283 282 282 282 282 281 282 280 279 278 277 276 275 275 274 273 273 272 271 271 270 270 270 271 272 272 274 276 276 277 277 278
287 286 287 286 286 286 285 284 284 284 283 283 283 282 282 281 281 281 280 279 279 278 277 276 275 274 274 273 272 271 270 270 269 269 270 271 271 272 274 274 275 275 275
287 287 287 286 286 285 284 284 283 283 283 283 283 283 282 281 281 281 280 279 278 278 278 277 276 275 274 273 272 271 271 271 270 270 269 270 270 271 272 273 274 275 275
286 286 286 286 285 285 285 284 284 283 283 282 282 282 282 282 282 282 281 280 279 279 278 277 276 275 274 273 272 272 271 271 270 269 269 270 270 271 271 272 273 273 273
286 285 285 285 285 284 284 284 283 282 282 282 282 282 282 282 281 280 280 280 281 281 280 278 277 276 275 274 273 272 271 271 270 269 268 269 270 270 270 271 271 272 272
286 286 286 285 284 284 283 283 283 282 281 281 281 281 282 281 281 281 281 282 281 281 281 279 278 277 276 275 273 272 271 271 270 269 268 269 269 270 270 271 271 271 271
284 284 285 285 284 284 283 283 283 283 283 282 282 282 282 282 282 281 282 282 282 281 281 280 278 277 276 275 274 273 272 271 271 269 269 269 269 269 269 270 270 270 271
284 284 285 285 285 285 284 283 283 283 283 283 283 283 282 282 282 282 282 282 282 281 280 280 279 278 277 276 275 274 272 271 271 270 269 269 268 268 268 270 270 270 270
284 284 284 284 284 285 284 284 284 284 284 283 283 283 282 282 282 282 282 282 281 281 280 280 279 278 277 276 275 274 273 272 271 270 269 268 268 269 269 269 269 270 269

GFSGL_925_thetae_039.txt.gz
Theta_e
307 306 305 304 302 301 300 299 298 297 296 295 295 295 295 295 296 296 295 295 294 294 293 293 292 292 291 290 290 289 289 289 290 289 288 287 287 287 286 286 286 286 287
304 303 304 302 301 300 299 298 297 296 295 295 295 295 295 294 294 294 294 292 292 292 292 291 290 290 289 289 288 288 288 287 288 287 286 286 286 286 285 285 286 286 286
303 303 302 301 300 300 298 297 297 296 295 295 295 295 294 293 293 293 292 292 291 291 290 289 289 288 288 287 286 286 285 285 286 285 285 285 285 285 285 285 285 285 286
303 302 301 300 300 298 297 297 296 295 295 295 294 294 293 293 292 292 291 291 290 289 289 288 287 286 286 285 283 284 284 284 284 284 284 284 284 284 285 285 285 285 285
302 300 300 299 298 297 297 296 295 295 295 294 294 293 293 292 291 290 289 289 288 288 287 287 286 285 283 282 282 282 282 282 282 283 283 284 285 285 285 284 285 285 285
300 300 298 297 297 296 296 295 294 294 294 294 294 293 292 291 289 288 286 287 287 287 286 286 285 284 284 283 282 281 281 281 282 283 283 283 283 283 284 284 285 285 286
299 298 297 297 296 295 295 294 294 294 294 293 293 292 292 291 289 287 285 285 286 286 286 285 285 284 284 283 282 281 281 281 282 282 283 283 283 283 283 283 283 284 285
298 296 296 296 295 294 294 294 294 294 293 293 293 292 291 290 289 287 285 284 286 286 285 285 284 284 282 280 280 280 281 281 281 282 282 281 281 281 281 282 283 283 284
296 295 295 294 294 294 294 294 294 293 292 292 292 291 291 290 288 286 284 284 285 285 285 284 283 282 281 279 278 280 280 280 281 280 280 280 281 281 281 282 283 284 285
295 294 294 294 293 293 293 293 293 292 292 291 291 291 291 289 287 286 285 283 284 284 284 284 283 281 279 278 278 278 279 280 279 279 280 281 281 282 283 283 284 285 285
294 294 293 293 292 292 292 292 292 292 291 290 290 289 289 288 287 285 284 282 283 283 283 283 283 281 279 277 277 277 278 277 278 279 280 281 282 282 283 283 283 284 285
293 293 293 292 292 292 292 292 292 291 291 290 289 288 288 287 287 285 284 282 281 281 282 282 282 279 277 277 277 277 276 277 279 279 280 281 281 281 282 282 284 284 284
293 292 292 292 292 292 291 291 291 290 290 290 289 288 288 287 287 285 284 283 281 281 282 281 279 279 278 278 278 277 277 279 278 278 279 280 280 281 281 283 283 284 285
291 292 292 292 292 292 291 291 290 289 289 289 288 287 287 286 286 286 285 283 282 282 282 282 280 280 280 279 279 280 279 279 277 278 278 279 280 280 281 281 283 284 285
291 291 291 291 292 292 291 291 290 289 288 288 288 287 287 286 285 285 285 284 284 283 281 280 281 282 281 281 280 280 279 279 278 277 278 278 279 279 280 281 282 283 284
291 291 291 291 291 291 290 289 289 288 288 287 286 285 284 284 284 283 282 282 282 281 280 281 282 282 282 281 281 280 280 279 278 277 277 277 278 278 279 280 281 282 282
290 290 290 289 289 288 288 289 289 289 288 287 286 285 284 283 283 283 283 282 282 281 280 281 282 282 282 281 281 280 279 279 277 278 277 278 277 277 278 279 280 280 281
290 290 290 290 290 289 289 288 288 289 289 288 287 286 285 284 283 282 282 282 282 282 281 282 282 282 282 281 281 280 279 278 278 277 277 277 277 277 277 278 279 279 279
291 291 291 290 290 289 288 288 287 287 288 288 287 286 286 285 284 283 282 283 283 284 283 283 283 283 282 281 281 280 279 278 277 277 277 277 277 277 277 277 278 278 279
292 292 291 290 290 289 288 288 288 287 288 288 288 286 286 285 285 284 283 283 283 283 283 283 283 283 282 281 281 280 279 279 278 278 277 276 277 276 277 277 277 277 278
292 292 291 290 290 290 289 288 288 287 288 288 288 287 286 285 285 285 285 285 284 284 284 283 283 282 282 281 280 280 279 279 278 277 276 276 276 276 277 277 277 276 277
291 291 291 290 289 289 288 288 288 287 287 287 287 287 286 285 285 284 284 284 284 285 284 283 283 283 282 281 280 280 279 279 278 277 277 275 276 276 277 276 277 276 276
290 289 288 288 288 287 286 286 287 288 287 287 287 287 287 286 286 285 285 284 284 284 284 283 283 282 282 281 280 280 279 279 278 277 276 275 276 276 276 276 276 276 276
289 288 288 288 287 287 287 286 287 287 287 286 286 286 286 286 286 286 285 285 285 284 284 284 283 282 282 281 280 279 278 278 277 276 274 274 275 275 275 275 275 276 275
289 288 288 287 287 286 286 286 286 286 286 286 286 286 286 286 286 286 285 286 286 285 284 284 283 282 282 281 280 279 278 277 276 275 274 273 273 273 273 274 274 274 275
286 287 287 286 286 285 285 284 284 284 285 285 285 286 285 285 285 285 285 285 285 285 285 284 283 282 282 281 280 279 278 277 275 274 273 273 274 274 274 274 274 274 275

GFSGL_925_thetae_042.txt.gz
Theta_e
311 310 307 306 304 303 302 300 299 298 297 296 296 295 296 296 295 294 294 294 293 293 293 292 292 292 291 291 290 289 289 288 288 287 287 287 286 286 286 286 286 285 285
310 307 305 304 303 302 301 300 298 297 297 296 295 295 295 295 294 293 293 293 293 292 292 291 290 290 289 288 287 287 286 285 285 285 286 285 285 285 285 285 285 285 285
306 305 304 304 302 301 300 298 298 297 296 295 295 295 295 294 293 293 292 292 292 291 290 289 289 288 287 286 285 284 284 284 284 284 283 284 284 284 284 284 285 285 285
305 305 303 302 301 300 299 298 297 296 295 295 295 295 294 293 293 293 292 291 289 289 288 288 287 287 286 285 284 283 283 282 282 282 282 283 283 284 284 284 285 284 284
305 303 302 300 300 299 298 297 297 296 295 295 295 295 294 293 293 291 290 288 288 288 287 287 287 286 285 284 283 282 282 282 281 281 282 282 283 283 283 284 284 284 284
304 302 300 299 298 298 297 297 296 295 295 295 294 294 293 293 291 290 289 288 287 286 287 286 286 285 284 284 283 282 281 281 281 281 282 282 282 283 283 282 282 282 283
301 300 299 298 298 297 296 295 294 294 294 294 294 294 293 292 291 290 289 287 286 286 286 286 285 285 284 283 282 281 280 280 281 281 281 282 282 281 281 281 281 281 282
300 299 297 297 296 296 295 294 294 294 294 293 293 293 292 292 291 290 288 286 285 286 286 285 285 284 283 282 281 279 279 280 280 281 281 280 280 280 281 281 281 282 282
298 297 296 295 295 294 294 294 294 294 293 293 292 292 292 292 289 289 287 286 285 285 285 285 284 284 283 282 280 277 278 278 279 279 278 279 280 281 281 282 283 283 283
295 295 295 294 294 293 293 293 293 293 293 292 292 291 291 291 289 287 286 285 284 284 284 284 284 282 281 280 278 277 277 278 278 277 279 280 280 281 282 282 283 283 283
295 294 294 294 293 293 293 292 292 292 292 292 291 290 290 289 289 288 287 285 284 283 283 282 283 282 281 280 278 277 277 278 277 278 279 280 281 281 281 281 282 283 284
294 294 293 293 292 292 292 292 292 292 292 291 291 290 289 288 287 287 287 285 284 282 281 282 282 282 280 279 278 278 278 278 278 278 278 279 280 280 280 281 282 282 283
293 292 292 292 292 292 292 292 292 291 290 290 290 289 289 289 288 288 287 285 284 282 282 281 281 281 280 280 280 279 279 279 279 278 278 279 279 279 280 281 281 282 282
292 292 292 292 292 292 292 292 292 292 290 290 289 289 288 288 287 287 286 285 284 282 282 282 282 281 281 281 281 281 280 279 279 278 277 278 278 278 279 280 280 282 282
291 291 292 291 291 292 292 292 291 290 289 289 289 289 288 288 287 286 285 286 285 284 283 282 281 281 283 282 281 281 280 280 279 278 277 278 278 278 278 278 280 281 282
291 291 291 291 291 291 290 290 289 289 289 289 288 288 287 287 286 285 284 284 283 282 281 281 281 281 283 282 281 281 281 280 279 278 278 278 278 277 277 278 280 280 280
290 290 290 291 290 290 289 289 289 289 289 288 289 288 287 286 285 284 283 283 283 282 281 281 280 282 283 282 281 281 281 280 278 278 277 277 277 277 277 278 278 279 279
291 290 291 290 290 291 290 289 288 288 288 288 287 288 288 287 286 285 283 282 283 283 282 282 281 282 282 282 282 281 280 279 278 278 277 277 277 277 277 277 277 278 278
291 291 291 291 292 291 291 290 289 288 288 288 287 288 288 286 286 286 285 283 283 283 283 282 282 282 283 283 282 281 280 279 278 277 277 277 277 277 276 277 277 277 277
292 292 292 292 292 291 291 290 289 289 288 288 288 288 288 287 286 285 285 284 283 283 283 283 284 283 283 283 282 281 280 279 279 279 278 277 277 276 276 277 277 277 276
292 292 292 292 291 291 290 289 290 289 289 288 287 288 288 288 287 286 286 285 284 284 284 284 284 283 283 282 282 281 280 280 279 278 278 277 276 275 276 277 277 277 276
289 290 290 290 290 289 289 288 288 287 287 286 288 287 287 287 287 286 286 285 285 285 285 285 284 284 283 283 282 281 280 280 279 278 277 277 276 276 276 276 277 276 276
287 288 288 288 289 288 288 288 287 287 287 287 287 287 287 286 287 286 286 285 285 285 284 284 285 284 283 283 282 282 280 280 279 278 277 277 275 276 276 275 276 276 275
284 285 286 286 288 288 288 287 286 286 286 286 286 286 287 286 286 286 286 286 286 286 285 285 285 284 284 283 282 282 281 280 279 278 277 276 275 275 275 275 275 275 275
284 284 285 285 286 288 287 286 285 284 284 284 285 285 286 286 285 285 285 285 285 285 285 285 285 285 284 283 283 282 281 280 278 277 276 275 273 274 274 273 274 274 275
283 284 285 286 286 285 283 282 281 281 280 280 280 280 280 281 282 283 285 285 284 285 285 285 285 285 284 284 283 282 281 280 278 277 275 274 274 274 274 274 274 274 274

GFSGL_925_thetae_045.txt.gz
Theta_e
314 311 309 307 305 304 304 302 301 299 298 297 296 295 295 295 295 295 293 293 294 292 292 292 291 290 289 288 287 287 286 284 284 284 284 284 283 284 284 284 284 284 285
311 309 307 305 304 303 302 301 300 298 297 297 295 295 295 295 294 294 292 292 293 292 291 290 289 289 288 287 286 285 284 283 283 282 282 282 282 282 283 283 283 284 284
310 308 306 305 304 303 301 300 298 297 297 296 295 295 295 295 294 293 293 292 292 290 288 288 288 287 287 286 285 284 283 283 282 282 281 281 281 282 282 283 283 283 284
307 306 305 304 303 301 300 298 298 297 296 295 295 295 295 294 293 292 292 292 290 289 288 287 287 286 285 285 284 283 282 282 282 281 280 280 281 281 282 282 283 282 282
306 305 304 303 302 299 299 299 297 297 296 295 294 295 295 293 293 292 292 290 289 288 287 286 286 286 285 285 283 283 282 281 281 281 280 281 281 281 282 282 281 281 280
305 304 300 299 299 300 299 297 296 296 295 294 294 294 294 293 293 292 291 289 288 287 286 286 286 286 285 284 283 282 281 280 280 280 280 280 281 281 281 280 280 280 280
301 299 298 299 299 297 296 296 295 294 294 294 294 293 293 293 293 291 291 289 288 286 286 286 286 285 284 284 283 282 281 279 279 280 280 280 280 279 279 280 280 280 280
299 298 297 297 297 296 295 295 294 294 294 294 293 293 293 293 292 292 290 288 287 286 285 285 285 285 284 283 282 281 281 277 277 279 279 278 278 280 281 281 281 282 282
298 296 295 295 295 294 294 294 293 293 293 293 293 292 292 292 291 291 290 289 286 285 285 284 284 284 283 282 281 281 278 276 277 278 278 279 279 280 281 282 281 282 282
295 295 295 294 294 293 293 293 293 292 292 292 292 292 291 291 290 290 289 287 285 285 284 284 284 283 282 282 281 279 277 277 278 278 278 278 279 280 280 280 280 281 282
294 294 294 293 293 293 292 292 292 292 292 292 292 291 291 290 289 289 288 287 286 285 284 283 283 282 282 281 280 278 278 278 278 278 278 277 278 278 279 279 280 281 281
295 295 293 293 293 292 292 292 292 292 292 292 290 290 290 290 289 288 287 287 286 285 284 283 282 282 282 281 280 280 279 279 279 279 278 278 277 278 278 279 279 280 281
294 293 292 291 291 292 292 292 292 292 292 291 290 290 289 289 289 288 288 287 286 285 284 283 282 281 281 281 281 280 280 280 279 279 278 277 277 278 277 277 278 280 280
292 291 292 292 292 292 291 292 292 292 290 290 290 289 289 289 288 288 287 286 286 285 284 283 282 282 282 281 282 281 281 280 280 279 278 278 277 278 277 277 278 280 280
292 291 291 291 291 291 292 291 291 290 289 289 289 288 288 288 288 287 287 286 285 285 284 283 282 281 281 281 282 281 281 281 280 279 278 278 277 277 277 277 278 279 279
291 291 290 290 290 291 290 290 289 289 289 289 289 288 288 288 288 287 286 285 285 284 283 282 281 281 280 281 282 282 281 281 280 279 278 277 277 277 277 277 277 277 278
291 291 290 290 290 290 290 290 289 290 289 288 288 287 287 287 288 287 286 285 283 283 283 282 281 281 280 280 282 282 281 281 279 279 278 277 277 277 277 277 277 277 277
291 291 291 291 291 291 290 290 290 289 289 288 289 288 288 287 287 288 286 285 284 283 282 282 282 281 281 281 282 282 281 280 280 278 278 277 277 277 277 276 277 277 276
291 291 291 291 291 291 290 290 290 289 289 288 288 288 288 288 287 287 287 285 284 283 283 282 281 282 282 282 281 282 281 281 280 279 278 277 277 276 276 276 276 277 276
289 289 289 289 289 290 290 290 289 289 289 288 288 287 288 287 287 287 286 286 285 284 283 283 282 282 283 282 282 283 282 281 280 279 278 278 277 276 276 276 277 277 276
285 286 286 287 287 288 288 289 289 289 288 288 288 286 286 286 287 287 286 286 285 285 284 284 283 283 283 283 283 283 282 281 280 279 279 278 277 276 276 276 276 277 276
283 283 283 283 284 284 285 286 288 288 288 287 286 286 286 287 286 286 286 286 286 286 285 285 284 284 284 284 283 283 282 282 280 279 279 278 277 276 275 276 276 276 276
279 281 281 282 283 284 284 285 287 287 287 287 286 286 286 286 286 286 286 286 286 286 286 285 285 284 284 284 284 283 283 282 281 280 279 278 277 276 275 276 275 275 275
279 280 280 282 283 284 284 284 285 286 285 283 282 282 282 283 285 286 285 285 285 285 285 285 285 285 285 284 284 284 283 282 281 280 279 278 277 276 275 275 275 274 274
275 276 277 277 279 279 280 280 281 280 279 278 278 278 278 278 279 280 280 281 284 285 285 285 284 284 285 285 284 284 283 282 281 280 279 278 277 275 274 275 274 274 274
272 273 272 273 273 275 276 276 277 276 275 275 275 275 275 275 275 275 276 277 278 280 281 285 284 284 284 285 284 284 283 282 281 280 279 278 276 274 274 274 274 274 274

GFSGL_925_thetae_048.txt.gz
Theta_e
317 314 311 309 306 304 303 302 301 301 302 300 297 296 295 295 295 295 294 292 291 293 292 291 290 289 289 288 287 287 286 284 283 283 282 282 282 280 281 281 282 282 283
316 311 307 305 304 304 303 301 301 301 300 298 297 296 295 295 295 294 294 292 292 292 291 289 288 288 287 287 286 285 284 283 282 282 282 282 281 280 281 281 281 281 282
311 308 306 305 305 306 303 301 301 300 297 296 296 295 295 295 295 294 293 292 293 292 290 288 288 287 287 286 285 284 283 283 282 282 281 281 280 280 281 281 281 282 281
307 307 306 306 305 302 301 301 299 297 296 296 296 294 294 295 294 293 293 292 292 291 289 288 288 286 286 285 285 283 283 283 282 281 280 280 280 280 280 281 281 280 280
308 306 306 304 302 301 300 298 299 297 296 296 294 294 295 294 294 293 293 292 291 289 288 288 286 286 286 285 284 283 283 282 281 280 279 280 280 280 280 281 279 279 279
307 305 304 301 299 299 300 298 297 296 295 294 294 294 294 294 293 293 292 291 290 289 288 286 286 286 285 285 284 283 282 281 280 279 279 279 279 279 279 279 279 279 280
303 301 299 299 299 298 296 295 295 295 294 294 294 294 294 293 293 293 292 291 290 288 287 286 285 285 284 284 283 282 282 281 280 277 278 279 278 278 279 279 280 280 281
298 297 297 296 295 295 295 296 294 294 294 294 293 294 293 292 292 293 292 291 289 287 286 286 285 285 284 283 282 282 281 281 278 277 278 278 278 279 280 280 281 281 281
295 295 295 295 295 296 296 294 294 293 293 293 292 293 292 292 292 292 291 290 289 288 287 285 284 284 284 283 282 281 281 280 278 278 278 278 278 279 279 280 280 280 280
294 295 295 297 298 297 294 293 293 292 292 292 292 292 291 291 291 291 290 289 288 288 286 285 284 283 283 282 282 281 280 278 278 278 279 278 278 278 278 278 279 279 280
297 298 299 297 294 293 293 293 292 292 292 292 292 291 291 291 291 290 289 288 288 287 286 285 283 283 282 282 282 281 280 279 279 278 278 279 278 277 277 277 278 278 279
298 295 294 293 293 293 292 291 292 292 292 292 291 291 291 290 290 289 289 288 288 287 286 285 284 282 281 282 282 281 280 280 280 279 279 279 277 277 277 277 277 278 279
293 293 292 292 291 291 291 291 291 291 291 291 291 290 290 290 289 289 289 288 288 287 287 286 285 283 282 281 282 281 281 281 280 280 279 279 277 277 277 277 277 278 279
292 291 291 291 291 291 291 291 291 291 291 290 289 289 289 289 288 288 288 288 287 287 286 286 285 283 282 282 282 281 281 281 281 280 279 278 277 277 277 277 277 277 278
291 291 291 290 290 290 289 290 291 290 290 290 289 288 288 288 288 287 288 288 287 287 286 285 284 283 282 282 281 281 282 281 281 280 279 278 277 277 277 276 277 276 277
291 291 291 291 290 290 289 289 290 290 290 290 289 289 289 288 287 287 287 287 287 286 285 283 282 283 282 282 281 280 281 282 281 280 279 278 277 277 277 276 277 277 276
290 290 290 290 290 290 290 289 288 290 290 290 290 289 289 288 288 287 287 287 287 286 284 283 283 282 282 281 281 280 280 282 281 280 279 278 277 277 276 276 276 276 276
289 289 289 288 288 288 288 288 288 288 288 289 289 289 289 289 288 288 287 287 286 285 284 283 281 281 282 282 281 281 281 282 281 280 279 278 277 277 276 276 276 276 276
284 285 285 286 286 287 287 287 287 288 288 288 288 288 288 288 287 287 287 286 286 285 284 283 283 282 282 282 281 282 281 281 282 280 279 278 277 277 276 276 276 276 276
282 281 281 282 282 283 283 283 284 285 286 287 287 287 287 287 286 286 285 285 286 286 284 284 283 283 283 282 282 282 282 282 281 280 280 278 278 277 276 275 276 276 276
278 278 279 280 280 281 281 282 282 283 284 285 286 287 287 286 285 285 286 285 285 285 285 284 284 284 283 283 283 282 282 282 282 281 280 279 278 277 276 275 276 276 276
277 277 278 279 279 279 281 282 283 283 284 284 285 286 286 285 285 285 284 285 285 285 285 285 285 285 284 284 284 283 283 283 283 282 281 279 278 277 276 275 275 275 275
275 275 275 275 276 276 278 279 279 278 280 283 283 282 281 280 280 281 282 284 285 285 285 285 285 285 285 284 284 284 283 283 283 282 281 279 278 277 276 275 275 275 275
272 273 271 272 272 273 274 274 276 276 275 275 275 275 276 276 276 278 277 278 280 281 282 284 285 285 285 285 285 284 284 284 284 283 282 280 279 277 276 275 275 274 274
270 270 269 269 269 270 270 271 271 271 271 271 272 272 272 272 272 272 273 274 275 276 279 281 282 284 284 284 284 284 284 284 284 283 282 280 279 278 277 275 275 274 274
268 267 267 267 267 267 267 268 268 268 268 269 269 269 269 270 269 269 269 271 272 273 274 277 281 282 284 284 284 284 284 284 283 283 282 280 279 277 276 274 274 273 273

GFSGL_925_thetae_051.txt.gz
Theta_e
325 323 322 317 314 311 309 305 303 302 302 302 300 299 296 295 295 295 294 294 293 292 291 291 291 290 289 288 288 287 286 285 283 283 283 282 282 281 279 280 280 281 281
323 321 315 312 309 305 304 302 302 305 302 299 299 296 295 295 294 294 294 294 293 292 292 292 290 288 288 287 287 286 285 284 283 282 282 282 281 280 280 280 280 281 281
317 311 308 306 304 303 302 303 306 301 300 298 295 296 295 294 294 294 294 294 293 292 292 291 289 288 287 288 286 285 284 283 282 281 281 281 280 279 280 280 280 280 280
310 307 305 304 304 303 306 303 301 300 297 296 296 295 294 294 294 294 294 293 293 292 292 289 288 289 288 286 285 285 284 283 282 282 281 280 279 279 279 280 280 279 279
306 306 305 305 306 306 300 300 298 297 297 296 295 294 294 294 294 294 294 293 293 292 290 289 288 288 286 286 285 285 283 283 282 280 279 278 278 279 279 279 278 278 279
307 306 306 305 302 300 298 299 299 296 295 295 295 294 294 294 294 293 293 293 292 291 290 288 287 286 286 285 285 284 283 282 281 280 278 277 278 278 278 277 278 278 280
306 304 303 300 298 297 295 295 295 297 298 296 294 294 294 294 293 293 292 292 291 291 289 288 287 286 286 285 284 283 282 281 280 279 277 277 278 278 278 278 279 280 280
299 298 298 296 295 296 297 299 299 298 296 294 293 293 293 293 293 292 292 292 291 290 289 288 287 287 285 284 284 282 282 281 281 278 277 278 278 279 279 279 279 279 279
295 295 295 296 298 299 298 298 296 294 293 293 292 292 291 291 292 292 292 292 291 290 289 287 287 286 285 284 283 282 281 281 279 278 278 278 278 278 278 278 278 278 279
295 296 298 299 299 298 296 293 293 292 292 292 292 292 291 291 291 291 291 291 290 289 288 288 287 285 284 283 282 281 281 281 279 279 279 279 279 278 278 277 277 277 278
297 298 299 298 295 293 293 292 292 292 291 291 291 292 291 291 291 291 291 290 289 289 288 287 287 286 284 283 282 281 281 280 280 279 279 279 279 278 277 277 277 277 277
296 295 295 293 293 292 292 291 291 291 291 291 291 291 291 291 291 290 290 290 289 288 288 287 287 286 285 283 282 281 282 281 281 280 280 280 279 278 277 277 277 277 277
293 292 292 291 291 291 291 291 291 291 290 290 291 291 291 290 290 289 289 289 289 288 288 288 287 286 285 283 282 282 281 281 281 281 280 280 279 278 277 277 276 277 277
291 291 291 290 290 290 290 290 289 289 290 291 290 290 290 290 289 288 288 288 288 288 288 288 287 286 285 283 282 282 282 281 281 281 281 280 279 278 277 276 276 276 276
290 290 290 290 290 289 289 289 289 290 289 289 289 289 288 288 289 289 288 288 287 287 287 287 286 285 283 283 282 282 282 281 281 281 281 280 279 278 277 276 276 276 276
290 289 289 288 287 287 287 288 288 288 288 288 288 288 289 289 289 289 289 288 287 287 286 285 283 283 282 282 282 282 282 281 280 281 281 280 279 278 276 276 276 276 276
284 284 284 284 284 285 285 286 286 286 286 286 287 287 288 288 289 288 288 288 287 287 285 284 283 283 283 283 282 282 281 281 280 282 281 280 279 277 276 276 276 276 276
281 281 280 280 281 282 282 283 283 283 283 283 283 285 286 287 287 287 288 288 287 286 286 284 283 283 282 282 282 281 281 281 280 281 281 279 278 277 276 276 276 276 276
278 278 278 279 279 280 280 280 280 281 281 282 282 283 284 285 287 287 287 286 286 286 285 284 284 283 283 282 282 282 281 281 281 281 281 279 279 277 277 276 275 276 276
277 277 277 277 278 279 278 279 280 281 281 281 282 282 283 284 284 285 286 285 285 285 285 285 284 284 283 283 282 282 282 281 281 281 281 280 279 277 277 276 275 276 276
275 275 275 276 276 276 276 277 278 278 277 277 277 280 281 283 285 285 284 284 284 284 284 285 285 284 283 283 283 283 282 282 282 282 281 280 279 278 277 276 275 275 275
273 273 272 272 273 272 273 274 275 275 274 274 274 274 274 275 276 279 279 279 280 282 283 284 284 284 284 283 283 283 282 283 282 282 282 282 280 279 277 276 275 275 275
272 271 270 270 270 270 270 270 271 270 271 271 271 272 272 273 272 271 272 273 275 276 279 280 281 284 284 284 284 284 283 283 284 283 282 282 280 279 277 276 275 275 275
270 268 268 268 268 267 267 268 268 267 267 268 268 269 269 270 269 269 269 270 272 273 274 276 278 280 282 284 284 284 284 284 284 283 283 282 281 279 277 276 275 275 274
267 267 266 266 266 265 265 266 265 265 265 266 266 267 267 267 268 267 267 267 269 271 271 272 274 277 280 282 283 284 283 283 283 283 283 282 281 279 278 277 275 275 274
266 266 265 265 264 264 264 263 263 263 263 264 264 265 265 266 266 265 266 266 266 268 270 271 272 274 277 281 282 284 284 284 284 283 282 282 281 279 278 276 275 274 274

GFSGL_925_thetae_054.txt.gz
Theta_e
324 324 324 323 322 320 315 311 309 305 301 304 306 303 299 296 297 295 294 294 293 292 292 291 291 291 290 289 288 288 287 286 284 284 283 283 282 282 281 279 280 280 280
325 324 323 323 320 314 311 310 306 302 304 307 302 299 298 297 295 294 294 294 293 292 292 292 292 291 289 288 287 287 286 285 283 282 282 282 282 281 280 278 279 279 279
323 321 317 314 311 307 306 304 303 304 305 300 299 298 295 296 294 294 294 294 293 293 292 292 292 289 288 287 288 288 286 284 283 282 281 281 281 281 279 278 279 279 279
317 313 311 307 305 304 303 303 303 303 301 299 296 296 297 294 295 294 294 294 293 293 292 292 291 289 288 288 288 286 285 284 283 282 281 281 280 280 278 278 278 278 278
311 308 305 305 304 303 302 302 301 301 298 297 297 295 295 295 294 294 294 293 293 293 292 291 290 289 287 287 286 285 285 284 283 282 281 280 279 277 277 278 277 278 278
308 306 305 304 303 303 303 300 298 296 295 295 296 295 296 294 294 294 293 293 293 292 292 291 290 288 287 286 286 286 285 284 283 281 280 279 278 277 278 277 277 278 279
306 305 304 303 300 298 298 296 295 296 298 298 296 296 293 294 293 293 293 292 292 292 292 291 290 288 288 287 287 285 284 283 282 281 280 279 277 277 278 278 278 278 279
300 299 298 297 296 296 298 299 299 299 298 296 294 293 293 292 292 292 292 292 292 292 291 291 289 288 287 286 285 284 283 282 281 281 281 278 278 278 279 278 278 278 278
296 295 296 298 299 299 299 298 299 296 294 293 293 292 292 291 291 291 291 291 291 291 291 290 289 287 287 287 284 284 283 282 282 281 279 279 279 279 279 278 277 277 277
296 297 298 298 299 299 298 295 293 293 292 292 292 291 291 291 291 291 291 291 291 291 291 290 289 288 287 286 284 283 282 282 281 281 279 278 279 279 278 278 277 277 277
298 299 299 298 296 294 293 292 292 291 291 291 291 291 291 291 291 291 291 290 290 290 290 289 288 288 287 286 284 283 282 282 281 280 279 279 279 279 279 278 277 277 276
295 294 293 293 292 291 291 290 290 290 290 290 290 290 290 290 290 290 290 290 290 289 289 289 288 288 287 286 286 284 283 281 281 281 280 280 280 280 279 278 277 276 276
291 291 290 290 290 290 289 289 289 289 289 288 288 288 289 289 289 289 289 289 289 289 289 289 288 288 287 287 285 285 283 281 282 281 281 280 280 280 279 278 277 276 276
290 290 290 290 289 289 289 289 288 288 288 287 287 287 287 287 288 289 289 289 288 288 288 287 288 288 287 287 286 284 283 282 282 281 281 280 280 280 279 277 276 276 276
288 287 286 285 284 284 283 284 284 284 285 286 286 286 286 286 286 287 287 287 287 288 287 286 286 285 284 284 283 283 283 282 281 281 281 280 281 280 278 278 276 276 276
284 282 281 280 280 281 282 282 281 281 282 282 283 283 283 284 284 286 286 287 287 287 286 285 285 283 282 283 283 282 282 282 282 282 281 280 280 280 278 277 276 276 275
279 279 279 279 279 280 279 279 279 279 280 280 281 281 281 282 282 283 284 285 286 287 286 285 284 283 282 283 282 283 282 283 282 281 280 280 281 279 278 277 276 275 275
278 278 277 277 278 278 278 278 278 279 279 280 278 278 279 279 281 282 282 284 286 287 286 286 285 284 284 283 282 282 282 282 282 281 280 280 281 279 278 277 276 275 275
276 276 276 276 277 277 277 276 276 277 278 276 276 276 275 276 277 281 282 283 285 286 285 285 285 285 284 282 282 282 282 281 282 281 280 280 281 279 278 277 276 275 275
275 275 274 274 274 274 273 274 275 276 274 274 274 273 273 274 274 274 276 281 283 284 283 283 284 284 284 283 283 282 281 281 282 281 280 280 281 279 279 277 276 275 275
273 273 272 272 271 271 271 271 271 271 271 271 271 271 271 272 272 271 271 272 272 273 275 278 281 283 284 283 283 282 281 281 282 281 281 281 280 279 279 277 277 275 275
271 271 270 270 269 269 269 269 269 268 268 268 267 268 269 269 270 269 269 269 270 271 270 272 274 278 280 283 283 282 281 281 282 282 281 281 281 280 279 278 276 275 275
269 269 269 268 267 267 267 267 266 266 266 266 266 266 266 267 267 267 267 267 268 269 270 270 272 274 277 279 280 282 282 282 282 283 282 281 281 280 279 278 276 275 275
268 267 267 266 266 265 265 265 264 264 264 264 264 264 264 264 265 266 265 265 266 267 269 269 270 271 273 275 278 279 281 282 282 283 283 282 281 281 279 278 277 275 275
267 266 265 265 264 264 263 263 263 263 263 263 263 263 263 263 263 264 264 264 264 265 267 267 269 270 272 273 275 277 280 281 283 283 282 282 281 281 280 278 277 275 274
266 265 265 264 264 263 262 262 262 262 262 262 261 262 262 262 262 262 262 262 263 264 265 266 268 270 272 273 273 275 280 282 282 283 282 281 280 280 280 278 276 275 274

GFSGL_925_thetae_057.txt.gz
Theta_e
323 322 321 320 319 320 320 316 312 310 310 301 299 301 304 301 296 298 295 294 294 294 293 293 293 292 292 291 291 290 289 289 290 289 287 285 285 284 284 283 281 281 281
323 322 321 320 320 319 317 315 311 308 304 301 302 304 300 298 297 296 297 294 294 294 294 293 293 292 292 291 290 289 288 289 288 288 287 285 284 284 283 282 281 280 281
321 320 320 318 317 312 309 308 306 303 301 302 304 299 298 296 297 296 294 294 294 294 294 293 293 292 292 291 290 289 289 289 286 286 286 285 284 283 283 281 280 281 280
319 318 314 310 308 308 308 307 306 302 302 303 299 298 298 297 296 295 295 294 294 294 293 293 293 292 291 290 289 288 289 287 286 285 285 285 284 283 282 281 281 281 280
314 311 308 308 307 304 302 302 302 303 301 300 298 297 297 295 294 295 294 294 294 294 293 293 292 292 291 289 288 288 287 286 286 286 285 285 284 284 282 280 280 280 281
309 307 305 303 302 302 301 301 300 300 298 296 296 296 295 295 296 296 294 294 294 293 293 292 292 292 290 289 288 287 287 287 287 286 285 285 284 283 281 280 280 280 281
305 303 301 301 301 300 299 298 295 294 295 296 298 298 296 297 294 293 293 293 293 293 292 292 291 291 291 288 287 287 286 286 285 284 284 284 283 282 280 280 280 280 281
299 298 299 298 297 297 297 298 297 297 298 298 297 296 294 293 292 292 291 291 292 292 291 291 291 290 289 288 287 287 286 285 284 283 283 283 282 280 279 280 280 280 280
296 297 298 299 299 298 298 298 298 298 296 294 293 292 292 292 292 291 291 291 291 291 291 291 290 290 289 289 286 286 286 285 283 283 282 281 281 279 280 280 280 280 280
298 299 298 299 299 299 297 294 293 293 292 292 291 291 291 290 290 290 291 290 290 290 291 290 290 291 290 289 287 286 286 285 284 282 282 281 280 280 279 279 280 280 280
299 298 298 297 295 293 292 292 291 290 290 290 290 289 289 289 289 289 289 290 290 290 290 290 289 290 290 288 287 286 286 285 283 282 282 281 280 280 281 280 280 279 279
294 293 291 290 290 290 289 289 289 289 289 289 289 289 289 289 289 289 289 289 289 288 289 289 289 289 289 288 287 287 286 285 283 283 282 282 282 282 281 281 280 279 279
290 289 289 289 289 289 288 288 288 288 287 287 287 287 287 286 286 286 286 286 286 287 287 288 288 288 288 288 288 287 286 284 283 283 283 282 282 282 281 280 279 279 278
288 288 287 286 285 285 284 284 284 284 284 284 284 284 284 284 284 284 284 284 285 286 286 286 287 287 287 287 287 286 286 285 284 283 283 283 282 281 280 280 279 279 278
286 284 283 282 282 282 282 282 281 282 282 282 282 282 282 282 282 281 281 282 283 283 285 285 286 286 285 285 285 285 285 285 284 283 283 282 281 281 281 280 279 279 278
282 281 280 280 280 280 280 280 279 279 279 280 280 279 279 279 278 279 279 281 282 283 284 285 286 286 286 286 285 285 284 284 283 283 282 282 282 281 281 280 279 279 278
279 279 279 279 279 279 279 279 279 279 278 279 277 277 277 276 276 277 278 279 282 283 284 285 286 286 286 285 284 284 284 284 283 282 282 282 281 281 280 280 280 279 278
278 277 277 278 278 277 277 277 277 277 278 277 276 275 274 273 275 275 275 277 277 280 283 285 286 287 286 285 285 285 284 283 282 282 282 282 281 280 281 280 280 279 278
277 276 276 276 275 275 275 275 275 275 275 274 274 273 272 271 273 273 273 273 274 275 275 275 280 284 285 285 284 284 283 283 282 282 282 281 281 281 281 280 280 278 277
275 274 273 274 274 273 273 273 273 273 272 272 272 271 270 270 271 272 271 271 271 272 271 273 273 275 279 284 284 284 283 282 282 281 281 281 280 280 280 280 279 279 278
273 273 271 272 271 271 271 271 271 270 270 270 270 269 267 268 269 270 270 270 270 270 270 270 271 272 274 276 280 284 283 282 281 281 281 280 280 279 280 280 279 278 277
271 270 270 270 269 269 268 268 269 268 268 268 268 267 266 268 268 268 269 268 267 268 267 267 268 269 270 272 272 276 281 282 281 280 281 280 279 279 279 279 278 278 277
269 268 268 268 267 266 266 266 266 266 266 266 266 266 266 266 266 266 267 266 266 266 266 266 266 267 268 268 270 271 274 278 281 281 280 280 279 279 279 278 278 277 277
267 267 266 266 265 265 264 264 264 264 263 264 264 264 264 264 264 264 265 265 264 264 265 265 265 266 267 268 268 269 272 274 277 280 281 280 280 279 278 278 277 277 276
267 266 265 265 264 263 263 263 262 262 262 262 262 262 263 263 263 263 263 263 263 263 263 263 264 265 266 268 270 270 270 274 276 279 280 281 280 280 278 278 277 276 275
266 265 265 264 263 262 262 261 261 261 261 261 261 261 261 261 261 262 262 262 262 261 262 263 263 264 266 267 268 270 272 274 276 279 280 280 280 278 278 278 277 276 275

GFSGL_925_thetae_060.txt.gz
Theta_e
329 328 324 324 324 322 321 317 318 316 311 307 305 303 302 300 303 300 296 296 296 295 296 296 296 296 296 295 294 294 293 293 293 292 292 291 290 289 288 287 286 285 284
328 327 324 323 321 321 318 316 315 310 306 302 302 302 300 302 301 298 297 298 297 297 297 296 296 296 295 295 294 294 293 292 292 292 292 291 290 289 288 287 286 285 284
327 324 322 321 319 316 313 310 308 305 303 303 302 301 302 298 299 298 299 297 298 297 296 296 296 296 295 295 294 293 292 292 291 292 291 290 289 289 288 287 286 284 284
320 319 317 314 313 312 310 308 307 305 303 301 301 302 300 300 299 298 297 297 297 296 296 296 296 295 295 294 294 293 292 291 291 291 290 289 289 288 288 286 286 284 284
314 311 309 308 307 306 305 304 303 302 301 301 301 299 298 297 297 297 297 297 297 297 296 296 295 295 294 293 293 292 291 291 291 290 290 289 289 288 288 287 285 284 284
311 307 305 304 303 302 302 302 302 300 299 299 298 298 298 297 297 296 296 297 296 296 296 295 295 294 293 292 292 291 290 290 290 289 289 289 288 288 287 286 285 284 285
308 306 305 305 304 303 301 298 297 297 297 298 297 297 297 298 297 297 295 293 295 295 295 295 294 294 293 292 292 291 289 288 287 288 288 289 288 287 286 285 284 284 284
305 304 302 301 299 299 299 298 298 297 297 297 298 297 297 297 295 293 292 292 293 293 293 293 293 293 293 293 292 291 291 290 288 287 287 287 286 286 285 284 283 283 283
302 301 301 301 300 299 299 298 298 297 298 296 296 295 295 295 293 292 291 291 292 292 293 293 292 292 292 292 292 291 291 290 289 287 286 285 284 284 283 282 282 283 284
302 301 301 301 300 299 298 296 297 296 295 294 293 293 292 292 292 290 289 290 291 291 291 291 292 292 292 291 291 290 290 290 289 288 286 284 283 283 282 281 282 283 283
300 299 298 297 297 296 295 294 293 293 292 293 292 292 292 292 291 290 288 288 289 289 290 290 291 291 291 291 290 289 290 289 288 288 287 286 285 284 283 282 282 282 283
297 294 294 293 292 292 293 293 292 292 292 292 290 289 289 288 287 286 285 285 285 286 286 287 288 289 289 289 290 288 288 288 288 288 286 285 285 284 284 283 283 283 282
294 293 292 291 291 290 291 290 289 288 287 287 287 287 286 286 285 284 284 282 282 283 284 284 285 286 286 287 287 287 287 287 287 287 287 286 285 285 284 284 283 282 282
292 291 290 287 288 286 286 285 286 286 285 285 285 285 284 283 283 282 280 281 281 281 283 284 285 283 284 285 286 287 288 287 287 287 287 286 286 285 284 283 283 282 282
288 287 286 285 285 285 284 283 283 283 281 282 283 282 281 281 280 277 278 279 279 279 281 283 284 285 286 286 287 287 287 287 286 286 287 286 286 285 284 283 283 282 282
285 284 283 284 283 283 283 283 281 279 279 280 279 278 278 277 276 276 277 277 278 279 282 285 285 285 286 286 287 288 287 286 286 286 286 286 285 285 284 284 283 282 282
283 282 282 282 282 282 282 282 282 281 279 279 277 276 275 275 274 275 275 275 278 278 280 281 281 281 286 287 287 288 287 287 286 286 286 285 285 285 284 284 283 282 282
280 279 281 281 280 280 280 280 280 280 280 279 278 275 274 273 273 274 274 276 277 277 277 278 278 279 280 282 287 287 287 287 286 285 285 285 284 284 284 283 282 282 282
280 279 279 279 278 277 278 278 278 278 277 277 277 276 274 272 273 274 274 275 275 275 275 275 276 275 277 278 280 285 285 286 285 285 284 284 284 284 283 283 282 282 281
278 275 276 277 277 276 276 276 276 276 276 275 275 274 272 271 274 274 273 274 273 273 273 273 273 274 273 275 277 279 281 285 285 284 284 284 284 283 283 283 282 282 281
277 276 273 275 275 274 274 274 274 274 274 273 273 273 268 269 272 272 272 272 272 271 271 271 272 272 272 272 274 275 277 279 284 284 284 284 284 283 283 283 282 282 281
274 273 274 273 273 273 271 272 272 272 272 272 272 271 269 271 271 271 271 270 270 270 269 270 270 270 271 270 270 272 274 276 279 281 283 283 283 283 282 282 282 282 281
272 272 272 271 271 270 271 271 271 270 270 270 270 270 269 269 269 269 269 269 269 268 268 268 268 268 269 269 268 269 271 273 275 274 276 282 283 283 282 282 282 281 281
271 271 270 270 270 269 270 269 269 268 268 268 268 268 268 268 268 268 267 267 267 267 267 267 266 267 268 268 268 268 269 271 270 271 272 277 282 282 282 282 282 281 281
270 270 270 269 269 269 268 268 268 267 267 267 267 267 267 267 267 267 266 266 265 266 266 265 265 266 266 266 266 266 268 268 267 268 270 274 280 282 282 282 282 281 280
270 269 269 268 268 268 267 267 266 266 266 266 265 265 265 265 265 265 265 265 265 264 264 265 265 265 265 265 266 267 267 267 267 268 269 272 278 282 282 282 281 281 280

GFSGL_925_thetae_063.txt.gz
Theta_e
333 332 331 329 327 325 324 322 321 321 318 313 312 309 306 305 303 301 301 300 298 297 298 298 299 299 298 298 297 297 296 295 296 295 294 294 293 293 292 291 291 289 289
333 333 330 327 325 324 323 322 320 318 314 311 310 307 305 303 301 301 299 299 298 298 298 299 299 298 298 298 297 296 296 295 295 295 294 293 293 292 292 291 290 289 288
330 330 327 325 323 322 321 319 316 313 311 307 306 303 302 300 301 301 300 300 299 299 299 299 299 298 298 297 297 296 296 295 295 294 294 293 293 292 291 291 290 289 288
325 321 321 319 318 316 314 311 309 307 305 303 302 302 301 301 300 300 300 299 299 298 299 299 298 298 297 297 297 296 296 295 295 294 294 293 293 292 291 290 290 289 288
315 313 311 310 309 307 306 305 303 302 302 302 301 301 300 300 300 299 298 297 298 298 298 298 298 298 297 296 296 295 295 295 294 293 293 293 292 291 290 290 290 289 288
310 308 306 305 304 303 303 303 302 301 300 300 300 300 299 299 299 298 297 296 297 298 299 298 297 297 297 296 295 294 294 293 293 293 292 292 291 290 290 290 289 288 288
309 308 307 307 306 305 304 302 301 300 300 300 299 299 298 298 298 298 297 296 296 296 296 296 296 296 295 295 295 294 294 293 292 291 291 291 290 290 289 289 288 287 287
310 309 308 306 304 303 302 302 300 298 298 298 298 298 299 299 297 295 294 293 294 294 294 294 294 294 294 294 294 294 294 293 292 291 289 289 289 288 288 288 287 286 285
307 306 305 304 304 302 301 299 300 299 299 300 299 299 298 297 294 293 292 292 292 292 292 292 293 293 293 293 292 293 293 293 292 291 290 290 289 288 287 286 285 285 285
306 305 304 304 303 302 301 300 300 300 298 297 296 295 294 293 293 292 291 290 291 290 290 291 291 291 291 291 291 291 292 292 292 292 290 289 288 287 285 284 284 284 284
304 304 302 300 300 300 299 298 296 295 294 295 294 294 293 293 292 288 286 286 286 285 286 286 287 287 287 287 287 287 289 290 291 291 291 290 289 287 286 285 284 283 284
302 299 298 297 295 296 295 295 294 294 294 293 291 290 290 289 288 286 284 283 282 283 283 283 284 284 283 283 284 285 286 287 288 290 290 289 289 287 287 286 285 284 284
298 297 295 294 293 293 293 292 291 290 290 289 288 288 288 287 286 285 283 280 280 281 281 281 281 282 283 285 286 286 286 286 287 288 289 289 288 287 287 286 286 285 285
296 294 292 292 290 289 289 288 288 288 287 286 287 287 286 285 284 282 279 279 280 279 280 280 281 283 285 285 286 286 286 287 287 288 289 288 288 287 287 287 286 285 284
292 290 289 288 288 288 287 286 285 283 282 283 285 283 282 282 280 277 277 278 278 277 278 280 283 284 284 285 286 287 287 288 287 287 288 288 288 288 287 286 286 285 285
289 288 287 287 286 286 286 285 282 282 280 279 279 278 278 278 276 275 276 277 276 278 279 281 281 281 282 282 283 284 288 288 288 287 287 288 288 287 287 286 285 285 285
287 286 284 285 285 285 284 284 285 282 281 280 279 278 276 275 275 275 275 276 277 278 279 279 279 279 279 279 280 281 284 288 288 287 287 287 287 287 287 286 285 285 284
283 283 285 284 284 283 283 283 283 282 282 282 280 278 277 275 274 274 275 276 278 278 278 277 277 277 277 277 277 278 280 283 287 287 286 287 287 286 286 286 286 285 284
283 283 283 282 281 280 280 281 281 280 281 280 279 279 278 275 273 276 276 276 277 276 276 276 276 275 275 275 276 276 277 279 281 286 286 286 286 286 286 286 285 284 284
279 277 279 280 279 279 279 279 279 279 279 279 278 278 277 273 273 276 276 275 275 275 274 274 274 274 274 274 274 274 274 276 277 281 286 285 285 285 285 285 285 284 283
280 278 276 278 278 277 277 277 277 277 277 277 276 276 273 271 273 275 274 274 274 273 272 272 272 272 272 272 273 273 272 273 275 277 280 283 285 285 285 285 284 284 283
276 276 276 276 276 276 275 275 275 275 275 275 275 274 273 272 273 273 273 273 272 271 272 271 271 270 271 271 271 271 271 271 273 275 275 275 278 284 285 284 284 284 283
275 275 275 275 274 273 274 275 274 274 274 273 273 273 273 272 272 271 271 271 270 270 269 269 269 269 269 268 269 269 270 270 270 272 272 272 274 277 284 284 284 284 283
274 274 273 273 274 272 273 273 273 272 272 272 272 272 271 271 271 270 270 270 269 268 268 268 268 267 267 268 268 268 268 269 269 269 269 270 272 274 278 284 283 283 283
273 273 273 273 273 273 272 272 272 271 271 271 270 270 270 269 269 269 269 268 267 267 267 266 266 267 267 267 267 267 268 268 268 267 267 270 271 272 276 281 283 283 282
273 272 272 272 272 272 271 271 270 270 269 269 268 268 268 268 268 267 267 266 267 266 265 266 266 266 266 266 267 267 267 266 266 266 267 269 270 271 275 281 283 283 282

GFSGL_925_thetae_066.txt.gz
Theta_e
332 332 332 334 333 332 330 328 327 325 322 321 318 315 312 310 309 307 306 304 302 301 300 298 299 300 299 299 299 299 298 297 296 296 296 295 295 294 293 293 293 292 291
334 333 333 333 331 329 327 325 324 322 321 319 315 312 310 309 307 306 303 302 301 300 301 300 300 299 299 300 299 298 298 297 296 295 296 295 295 294 293 293 292 292 291
334 332 332 328 326 325 324 323 322 321 318 315 312 309 307 305 303 302 302 301 300 301 300 299 300 300 300 299 298 298 298 297 297 296 295 295 295 294 293 293 292 291 291
326 325 322 321 322 321 318 316 315 313 311 308 307 306 304 303 303 301 300 300 300 299 299 299 299 300 299 299 298 298 298 297 297 296 295 295 294 294 293 292 291 291 290
315 314 312 313 314 312 311 309 308 306 305 304 304 303 302 302 301 300 300 299 299 298 298 299 299 299 298 298 298 297 297 297 296 294 293 294 293 292 292 291 290 290 290
313 310 310 309 308 306 304 304 303 303 302 302 302 301 301 300 300 299 299 298 298 297 297 298 299 298 297 298 297 297 297 296 295 295 294 292 292 292 291 291 290 290 289
309 307 306 305 304 303 302 302 302 301 301 301 300 300 299 299 299 298 297 296 296 297 296 295 295 295 295 295 295 295 295 295 295 294 294 293 292 292 291 290 289 289 288
309 308 307 306 305 303 303 303 301 300 300 299 299 299 299 299 299 297 296 293 293 293 293 293 293 293 293 293 292 291 291 292 293 293 293 293 292 291 291 289 289 289 287
310 309 307 305 304 304 302 300 299 299 299 299 299 299 300 296 294 293 292 292 292 291 291 291 290 289 288 288 287 287 288 289 290 291 292 292 292 291 290 289 287 287 286
307 306 305 305 303 302 301 301 300 300 300 300 298 295 294 293 292 292 290 288 287 286 286 285 284 285 285 285 284 285 286 286 286 287 286 288 291 291 290 288 288 286 285
306 305 304 303 302 302 301 301 300 297 296 295 294 295 293 291 289 288 287 285 283 283 283 283 283 283 283 281 280 282 282 283 284 285 286 287 289 290 289 288 287 286 285
304 303 302 301 300 298 296 295 294 295 295 294 291 290 290 289 288 286 284 283 282 280 281 281 281 281 280 281 283 284 284 285 285 285 285 286 288 289 289 286 286 285 285
301 299 297 296 296 296 295 294 292 291 290 289 289 289 288 287 286 284 284 281 279 280 279 279 279 280 282 283 284 285 285 285 285 285 286 285 286 288 289 287 287 287 286
298 296 295 293 292 291 289 289 289 288 287 287 287 287 286 285 283 282 279 277 278 278 277 277 279 281 282 281 282 282 283 283 285 287 286 286 286 288 288 287 287 286 286
295 293 290 289 289 288 287 286 286 284 283 285 284 283 282 282 279 277 276 277 277 277 277 278 280 280 280 279 279 280 280 281 281 286 287 287 287 287 288 287 287 286 285
291 290 289 288 287 287 286 283 283 282 282 281 279 279 278 278 277 276 276 276 277 277 278 279 279 279 278 278 278 278 278 278 280 280 287 287 288 288 288 287 287 286 285
287 287 287 286 286 286 285 285 283 281 281 281 280 279 278 277 276 276 275 276 277 278 278 278 278 277 277 276 276 276 276 276 277 280 285 287 287 288 287 287 286 286 285
285 286 286 285 284 284 284 283 283 283 283 282 280 279 278 276 276 275 276 277 277 277 277 277 276 275 275 275 274 274 275 275 275 276 278 285 287 287 287 287 286 286 285
284 284 284 283 282 281 281 281 281 281 281 281 280 280 278 276 275 275 277 277 276 276 275 275 274 274 273 273 273 273 273 274 273 274 276 278 284 286 286 286 286 286 285
280 281 281 281 280 280 280 280 280 280 279 279 279 278 277 276 274 273 275 275 275 275 274 273 273 273 272 272 272 272 272 272 272 272 274 276 276 280 285 285 286 285 284
279 277 278 279 279 278 278 278 278 277 278 277 277 276 275 273 273 273 274 274 273 272 272 272 272 271 271 270 270 270 270 271 271 271 272 273 273 274 277 283 285 285 284
277 277 277 277 276 277 276 275 276 276 276 276 275 275 274 274 274 273 272 272 271 271 270 270 269 269 269 269 268 268 269 269 270 270 270 271 271 272 273 276 284 284 284
276 276 276 275 275 274 275 275 275 275 274 274 273 273 273 273 272 272 271 270 270 270 269 268 268 268 267 267 267 268 268 268 268 268 268 269 269 270 271 274 276 284 284
274 274 274 274 275 273 274 274 273 273 273 273 272 272 272 271 271 270 270 269 269 268 267 267 267 266 266 267 267 266 266 266 267 267 268 268 267 268 270 272 274 280 284
274 274 274 274 274 274 273 273 273 272 272 271 271 270 270 269 269 269 268 268 267 266 267 266 265 266 266 265 265 266 266 267 267 266 266 267 267 268 269 270 272 276 283
274 273 273 273 273 272 272 271 271 270 270 269 269 268 268 268 267 267 266 266 266 265 265 264 264 264 264 265 265 266 266 266 266 266 267 267 267 268 268 271 272 275 282

GFSGL_925_thetae_069.txt.gz
Theta_e
328 329 328 330 330 329 329 329 327 327 326 324 324 323 320 317 314 313 310 309 308 305 302 302 303 302 301 300 300 298 298 299 297 297 297 296 296 295 295 294 294 293 293
330 330 330 329 331 329 329 324 323 326 325 323 321 318 315 314 313 310 308 306 303 302 302 301 301 300 300 300 299 299 299 299 298 296 297 297 296 295 295 295 294 294 293
331 331 330 330 330 328 323 325 325 323 321 320 319 317 314 311 309 307 306 304 303 302 301 301 300 300 299 300 300 299 299 298 298 297 296 296 296 296 295 295 294 294 293
327 322 322 322 324 322 321 321 321 320 319 317 314 312 309 307 306 304 303 302 301 301 300 299 299 299 299 300 299 298 298 298 298 297 296 295 295 295 294 294 293 292 292
317 317 316 317 316 316 315 315 314 314 312 311 308 306 305 304 303 303 302 301 300 299 299 299 299 298 298 298 299 298 298 298 297 296 294 294 293 293 293 293 291 290 290
316 313 313 312 311 310 310 309 308 307 306 305 305 304 303 302 301 301 300 300 299 298 298 297 297 297 295 295 294 294 293 292 293 294 294 294 294 293 293 292 291 290 288
311 310 310 309 307 306 306 305 304 304 304 303 302 302 301 300 300 300 299 298 297 295 296 294 293 293 293 292 292 292 291 291 289 289 291 291 292 293 293 291 290 290 289
307 307 306 305 305 304 303 302 302 302 302 301 301 300 300 299 299 297 296 295 293 293 292 291 291 290 289 287 286 285 285 284 285 286 288 289 290 291 291 291 291 290 289
308 307 305 304 303 303 302 301 300 301 300 300 299 299 299 299 299 298 294 292 291 291 290 288 285 284 283 282 282 281 281 281 281 282 282 284 284 284 284 287 290 288 287
308 307 305 304 303 302 301 300 300 300 300 299 299 298 296 293 292 291 290 289 287 285 284 283 281 281 280 281 281 281 282 283 284 284 284 284 284 284 285 286 289 288 287
306 305 304 303 302 301 300 300 300 300 299 295 293 293 292 292 289 288 286 285 284 282 280 280 279 279 280 281 282 283 283 284 284 284 284 284 284 284 285 287 288 288 287
305 304 303 302 302 301 301 300 298 296 295 294 293 289 289 287 286 286 285 284 280 279 279 278 278 278 280 281 281 281 281 281 282 282 283 284 284 284 285 285 287 287 288
304 303 302 301 300 297 295 295 294 294 293 290 290 288 286 284 284 284 283 281 278 278 277 277 278 280 281 280 279 279 279 279 279 280 281 282 285 286 286 285 286 287 286
301 298 296 296 295 293 291 291 290 289 288 288 288 286 284 283 282 282 281 277 277 277 277 277 279 280 279 278 277 277 277 277 277 278 279 279 280 285 286 286 286 285 285
296 294 292 290 289 288 288 288 288 286 286 286 285 285 284 282 280 279 277 277 277 277 277 278 278 278 277 277 276 276 275 275 275 275 276 278 279 286 286 286 287 286 285
290 289 288 288 287 286 286 284 282 283 282 281 281 280 279 278 278 277 277 277 277 278 278 278 277 276 275 275 275 274 274 274 274 274 274 276 278 283 287 287 287 287 286
288 287 287 286 286 285 284 283 281 281 281 282 281 280 279 278 277 277 277 277 277 277 276 276 276 274 274 274 273 273 273 273 273 272 273 275 276 276 285 287 286 285 285
286 285 285 284 284 284 283 283 283 282 282 281 281 280 278 277 276 276 277 277 277 276 275 275 274 273 273 272 272 271 271 271 271 271 271 272 275 275 275 286 286 285 285
284 284 284 283 282 282 282 281 281 281 281 280 280 279 277 276 276 275 275 276 275 274 274 273 272 272 272 271 271 270 270 270 270 270 270 271 272 273 273 274 284 286 285
282 282 281 280 280 280 279 279 279 279 279 278 278 278 277 275 274 274 274 274 273 273 272 271 271 270 270 269 269 269 269 268 269 269 269 270 270 271 271 272 275 282 285
279 278 279 279 278 278 278 277 277 277 277 277 276 275 275 274 273 273 274 272 272 271 270 270 269 269 268 268 268 268 267 267 268 268 268 268 268 269 270 271 271 274 283
277 277 277 277 276 276 276 275 275 275 275 275 274 274 273 273 273 272 272 271 270 270 270 269 268 267 267 267 266 266 267 267 267 267 266 267 267 269 268 269 270 273 276
276 276 275 275 275 275 274 275 275 274 274 273 273 273 272 272 271 270 270 270 269 268 268 267 267 267 266 266 266 266 266 265 266 266 266 266 267 267 267 268 269 271 273
274 274 274 274 274 274 274 273 273 273 272 272 271 271 270 270 269 269 268 268 267 267 266 266 266 265 265 265 264 264 265 265 266 266 266 266 266 266 266 267 268 270 271
274 274 273 273 273 273 273 272 272 271 270 270 270 269 268 268 267 267 266 266 266 265 265 265 264 264 264 264 264 264 265 265 265 265 266 266 266 266 266 267 268 269 271
273 272 272 272 272 271 271 271 270 269 269 269 268 267 267 266 266 265 265 264 264 264 264 263 263 263 263 263 264 263 264 264 264 265 266 266 266 266 267 268 268 268 270

GFSGL_925_thetae_072.txt.gz
Theta_e
323 323 322 322 322 324 325 323 323 323 324 324 322 323 324 322 321 319 317 314 312 310 309 307 304 303 303 302 301 300 300 298 296 297 298 298 297 297 296 296 295 295 294
324 325 325 326 326 325 325 325 324 324 318 321 324 323 322 321 319 317 314 312 309 308 306 303 302 301 300 300 300 299 299 299 298 296 297 297 297 298 297 297 296 296 295
328 328 328 328 327 326 327 327 327 323 319 320 322 322 320 317 315 313 312 309 307 305 303 302 301 300 300 299 299 300 299 298 298 297 296 297 297 297 297 297 296 296 295
329 326 326 328 327 328 327 325 323 320 318 320 318 317 317 315 312 309 307 306 304 303 301 301 300 299 299 299 299 299 298 298 297 296 295 295 295 295 295 295 294 294 294
323 320 321 322 324 322 321 322 322 319 318 317 317 313 310 309 307 306 305 303 302 300 300 299 299 298 298 297 297 295 294 293 293 292 292 292 293 293 292 293 293 293 292
317 315 318 319 316 317 318 318 318 316 315 312 309 308 306 305 304 304 303 300 300 299 298 297 296 294 293 293 292 291 290 289 288 287 288 288 289 289 291 291 290 290 290
316 314 314 316 315 313 313 312 310 309 307 306 305 305 303 303 302 301 300 299 298 297 296 294 292 291 291 290 290 289 288 284 281 281 284 285 286 287 287 288 289 289 290
311 310 310 309 308 307 307 307 305 305 304 303 303 302 301 301 300 299 299 297 295 293 292 291 290 289 286 284 284 282 281 280 282 283 284 284 284 283 284 284 285 285 286
308 307 306 306 304 304 303 303 303 303 303 302 301 300 299 299 298 297 296 294 292 290 289 286 285 283 281 280 280 280 282 282 283 283 283 283 284 284 284 284 284 284 285
308 306 305 304 303 302 302 303 302 302 301 299 299 299 298 298 297 296 293 291 289 286 284 282 280 279 279 279 281 282 282 282 282 281 282 283 283 283 284 284 284 284 285
307 305 304 303 304 304 302 301 300 299 299 298 298 295 293 292 289 289 288 287 285 284 281 279 278 278 279 281 281 280 280 280 279 279 279 281 281 282 283 284 284 284 285
304 304 304 303 302 301 300 299 299 299 297 294 291 288 287 286 285 285 285 284 283 280 278 278 277 279 280 280 279 279 278 277 277 277 278 278 279 280 279 281 285 285 285
304 303 302 302 301 300 299 299 297 294 292 290 288 285 283 283 283 283 283 282 279 277 277 277 278 279 279 278 277 277 276 275 275 275 276 276 276 276 278 280 284 285 285
303 302 301 300 298 297 297 295 294 292 290 288 286 284 282 282 282 281 280 278 277 277 277 278 278 278 277 276 276 275 274 274 274 274 274 274 274 276 278 279 285 285 286
297 294 293 292 292 290 289 288 288 287 288 288 286 285 283 281 280 278 277 277 277 278 278 278 277 276 275 275 275 274 273 273 273 273 272 272 273 274 276 277 278 285 286
290 289 288 288 287 285 284 282 282 282 283 284 284 282 280 279 278 277 277 277 278 278 277 276 275 274 274 273 273 272 272 271 271 271 271 271 271 273 275 275 277 286 285
286 286 285 285 284 283 283 283 282 282 282 282 282 281 279 278 277 278 277 277 277 277 275 275 274 273 272 272 272 271 271 270 270 270 270 269 270 271 273 273 275 283 286
284 284 284 284 284 284 284 283 282 282 282 282 281 280 279 278 277 276 276 276 276 275 275 274 272 272 271 271 270 270 269 269 268 268 268 268 269 269 271 272 273 274 280
286 285 285 283 282 282 282 282 281 281 280 280 280 280 278 277 276 275 274 275 274 273 273 272 271 271 270 269 268 268 268 268 267 267 268 267 268 267 269 270 271 272 273
283 281 281 281 281 280 280 279 279 279 278 278 278 277 276 275 274 274 273 273 273 272 271 270 270 269 269 268 267 267 267 266 266 266 267 267 267 266 267 269 270 270 271
280 279 279 279 278 278 277 277 277 277 276 276 275 275 274 274 273 273 273 272 271 270 270 269 269 268 267 267 267 266 266 266 266 266 266 266 266 266 266 268 268 269 270
278 277 277 277 276 276 275 275 275 275 275 274 273 273 273 272 272 271 271 270 270 269 268 268 267 267 266 266 265 265 265 265 265 265 265 265 265 265 266 266 267 268 269
276 275 275 275 275 274 274 274 273 273 273 273 272 271 271 270 269 269 269 268 267 267 266 266 266 265 265 265 264 264 264 264 264 264 265 265 265 265 265 265 266 267 268
274 274 274 274 273 273 273 273 272 271 271 270 270 269 269 268 268 267 267 266 265 265 265 265 264 264 264 264 264 264 264 264 264 264 264 265 264 265 265 265 266 267 268
273 272 272 272 272 271 271 271 270 269 269 269 268 268 267 267 266 266 265 264 264 264 264 263 263 263 263 263 264 264 264 263 263 263 263 264 264 264 265 265 265 267 268
270 270 270 269 269 268 268 268 267 267 267 267 267 266 266 265 264 264 263 263 262 262 262 262 262 262 262 263 263 263 263 264 265 265 263 263 264 264 264 264 266 267 267

GFSGL_925_thetae_075.txt.gz
Theta_e
319 320 320 321 321 321 321 322 323 322 320 320 321 323 323 321 321 323 322 320 318 316 315 313 311 310 306 303 302 302 301 299 298 298 298 298 298 298 298 297 297 297 297
321 321 321 322 321 321 321 321 322 322 322 323 323 323 321 322 320 321 320 318 315 313 312 309 307 304 302 301 301 300 300 299 298 296 298 298 297 297 297 297 297 297 296
322 322 322 323 322 322 322 323 323 323 323 323 321 320 321 322 321 320 317 316 313 312 310 307 305 302 302 300 300 299 299 299 298 296 296 296 296 296 295 295 295 295 295
322 323 323 324 325 325 325 325 324 324 324 323 322 318 317 319 319 317 313 311 310 308 306 304 302 301 300 300 299 299 298 297 297 295 293 292 292 292 292 292 292 292 292
324 324 324 325 324 325 325 325 324 324 321 321 318 316 317 315 313 312 310 308 306 304 302 301 300 299 299 298 298 297 295 293 291 289 289 288 288 288 288 288 289 289 289
325 322 321 323 322 324 325 323 322 320 318 316 314 315 312 310 310 309 307 305 303 301 300 299 297 297 295 293 293 292 291 288 287 285 284 283 283 283 284 285 286 286 286
319 315 316 317 318 318 318 317 315 313 313 312 310 309 306 306 306 305 304 302 300 299 298 296 293 291 290 290 289 289 287 283 281 281 282 283 283 283 283 283 284 284 284
314 314 314 313 312 310 311 310 309 308 308 307 306 306 305 303 302 301 300 299 298 296 293 291 290 288 287 286 285 282 281 281 282 282 282 283 283 283 283 283 283 283 283
311 310 310 311 309 308 306 306 306 306 305 304 303 302 302 300 300 299 299 296 293 290 289 287 286 284 282 280 280 280 281 281 281 281 280 281 282 282 282 283 283 283 284
310 309 309 309 308 306 306 304 303 303 302 301 300 300 300 298 297 297 296 293 290 288 286 284 281 280 279 279 281 281 280 280 279 278 278 278 279 280 281 281 282 283 284
309 308 307 306 306 305 304 303 302 300 299 299 297 296 296 296 294 294 292 290 288 286 283 280 279 278 279 280 281 279 279 278 277 276 276 277 277 278 278 279 279 280 283
306 305 304 304 303 302 302 301 300 299 297 294 292 289 288 288 288 287 287 286 285 283 280 278 278 278 280 280 278 278 277 275 275 275 275 275 275 275 275 276 277 278 280
305 303 302 301 301 301 300 298 297 297 294 289 287 285 284 284 284 284 284 283 281 279 278 277 278 279 279 278 277 276 275 274 273 274 274 273 273 273 274 275 276 277 279
301 300 300 300 299 298 298 297 295 293 290 287 285 283 282 281 281 280 280 279 277 277 277 278 278 278 277 276 275 275 273 273 272 273 272 272 272 272 272 273 275 275 276
298 297 296 296 295 292 291 290 290 289 291 289 287 285 283 281 280 278 278 278 278 278 278 278 277 276 275 275 274 273 273 272 272 271 271 271 271 270 271 272 273 274 275
292 290 288 287 285 285 284 282 283 285 286 286 285 285 282 281 278 278 278 277 278 277 277 276 275 274 273 273 273 272 271 271 270 270 269 269 269 269 269 270 271 273 274
287 285 284 284 284 283 283 282 282 281 282 282 282 282 280 278 278 278 278 278 278 277 276 275 273 272 272 272 271 271 270 269 269 268 267 268 268 267 268 268 270 271 273
284 284 284 284 284 284 284 283 283 283 282 282 281 280 279 278 278 278 277 276 276 275 275 273 272 271 271 270 270 269 268 268 268 267 267 267 267 267 267 267 268 270 271
287 286 285 284 283 283 282 282 282 281 281 281 280 279 278 277 276 275 274 274 274 273 273 272 271 270 269 269 268 267 267 266 266 266 266 266 266 266 265 265 266 268 269
282 282 282 281 280 280 279 279 279 278 278 278 278 277 276 275 274 274 273 273 272 272 271 270 270 269 268 267 267 266 266 266 266 266 266 265 265 265 265 265 265 267 268
279 279 278 278 277 277 276 276 276 276 276 275 275 274 274 273 273 272 272 271 270 270 269 269 268 267 267 266 266 265 265 265 265 265 265 264 264 265 265 265 265 265 266
277 276 276 275 275 275 275 275 274 274 274 273 273 272 272 271 271 270 269 269 268 268 267 267 266 266 265 265 264 264 264 264 264 264 264 264 263 264 264 264 264 264 265
275 275 274 274 274 274 273 273 272 272 271 271 270 270 269 269 268 268 267 267 266 266 265 265 265 264 264 264 264 263 263 263 263 263 263 263 263 263 264 264 264 264 265
273 273 272 272 272 271 271 270 270 269 269 269 268 268 267 267 266 266 265 265 264 264 263 263 263 263 263 262 262 263 263 263 263 262 262 263 263 263 263 263 264 264 264
271 270 270 269 269 268 268 268 267 267 267 266 266 266 266 265 264 264 263 263 262 262 262 262 261 261 261 261 262 263 263 263 263 262 262 262 262 262 262 263 263 263 264
269 268 268 267 267 266 266 265 265 265 265 265 265 264 263 263 262 262 261 261 260 260 260 260 260 260 261 261 262 263 263 264 264 265 264 263 262 261 262 263 263 263 264

GFSGL_925_thetae_078.txt.gz
Theta_e
314 314 315 316 317 317 317 315 314 317 319 320 320 319 319 321 322 321 321 321 321 319 318 316 313 314 313 309 307 304 302 302 299 299 300 301 299 298 298 297 297 297 296
314 314 315 315 315 315 317 317 318 318 320 321 321 321 322 322 322 322 321 321 320 319 317 313 311 310 308 306 305 302 302 301 299 297 298 298 298 297 297 297 296 296 295
316 316 317 318 318 319 319 320 320 320 320 321 321 321 321 322 321 321 320 318 318 317 314 311 308 307 305 303 302 301 301 299 298 297 297 296 295 296 294 293 292 292 292
317 318 319 319 319 320 320 320 320 320 320 321 322 322 322 321 319 319 318 317 314 311 309 308 306 306 305 302 300 300 299 298 296 295 293 292 291 291 289 288 286 285 284
320 320 320 320 321 321 322 321 321 321 321 322 322 321 321 320 319 317 315 312 309 307 304 303 302 301 300 300 299 298 297 295 292 290 289 288 287 285 283 283 283 284 284
320 321 321 321 321 322 323 323 323 322 322 322 321 320 319 316 316 314 310 307 305 304 300 299 299 299 298 297 296 294 292 290 289 286 284 283 282 282 283 283 283 283 284
320 321 320 318 319 322 322 322 321 321 320 318 316 314 313 313 309 307 306 304 302 301 299 297 295 293 293 292 291 289 288 285 283 282 282 282 282 282 282 282 282 282 282
318 317 317 318 319 319 318 318 316 313 312 311 310 308 307 305 303 302 303 302 300 298 296 294 293 290 289 288 287 284 282 281 281 282 282 282 281 281 282 282 282 282 282
313 313 315 316 316 314 311 310 309 307 306 304 304 304 304 300 300 301 300 298 295 292 290 289 288 286 284 283 281 280 281 281 280 280 279 278 278 279 281 282 281 282 282
312 312 313 312 311 308 307 305 303 303 301 301 300 300 299 298 298 298 298 296 291 288 285 283 283 281 279 279 280 281 280 280 279 278 277 277 277 277 278 278 280 280 280
311 309 308 308 307 306 304 302 301 300 299 298 297 296 296 296 295 295 293 292 289 285 283 281 279 278 279 280 280 279 279 278 277 276 276 276 276 276 275 275 276 277 278
308 307 306 305 303 302 301 299 299 298 295 293 292 290 289 289 289 288 288 287 285 284 281 279 278 279 280 280 279 278 277 276 275 274 274 275 275 274 274 274 275 275 276
304 302 302 301 300 300 299 297 295 295 292 289 288 285 284 285 285 285 284 284 283 281 279 278 278 278 279 278 277 277 276 274 273 273 273 273 273 273 272 272 273 274 274
301 300 300 299 298 298 297 297 296 294 292 289 286 284 282 281 281 281 281 280 280 279 278 278 278 278 277 277 276 275 274 273 272 273 272 272 271 271 271 271 271 272 273
299 298 297 296 295 292 290 290 291 290 292 288 285 283 282 281 280 280 280 279 279 278 278 278 277 276 276 275 274 274 273 272 272 271 271 270 270 270 269 270 270 270 271
291 289 287 287 285 284 283 283 285 286 288 288 287 286 283 282 279 279 278 278 278 277 277 276 276 275 274 274 273 273 272 271 271 270 270 269 268 269 268 269 268 268 270
286 285 284 284 284 283 284 283 282 281 282 282 282 281 280 279 279 278 278 278 278 277 276 276 275 274 273 272 272 271 271 270 269 269 268 267 267 267 266 267 267 267 268
284 284 284 284 284 284 284 283 283 282 281 280 281 280 280 279 278 278 277 277 276 276 275 274 273 272 271 271 270 269 269 268 267 267 266 266 266 266 266 266 266 266 266
285 284 284 283 283 283 282 282 281 281 281 280 279 279 277 277 276 275 275 274 274 274 273 272 272 271 270 269 268 268 267 267 266 266 266 265 266 265 264 264 265 265 265
281 282 281 280 280 279 279 278 278 278 277 277 276 275 275 275 274 273 273 272 272 271 271 270 270 269 268 267 267 266 266 265 265 265 265 265 265 264 264 264 264 264 265
279 278 278 277 277 276 276 276 276 275 275 274 273 273 273 272 271 271 270 270 269 268 268 267 267 267 266 266 265 264 264 264 264 264 264 264 263 263 264 263 263 264 264
276 275 275 275 275 274 274 273 273 273 272 272 271 270 270 270 269 268 268 267 267 266 266 265 265 264 264 263 263 263 263 263 263 263 263 263 263 262 263 263 263 263 263
274 274 273 273 272 272 271 271 270 270 269 269 269 268 268 267 267 266 265 265 264 264 264 263 263 262 262 262 262 262 261 261 262 262 261 262 262 262 262 262 263 263 263
272 271 271 270 270 269 268 268 268 268 267 267 266 266 266 265 264 264 263 263 263 262 262 261 261 261 260 260 261 261 261 261 261 261 261 261 261 261 262 262 262 263 263
270 269 268 268 267 267 266 266 265 265 265 265 265 264 263 263 263 262 262 261 261 260 260 260 260 260 260 260 260 261 261 261 261 261 261 261 261 262 262 261 262 262 262
267 267 266 265 265 265 264 264 263 263 263 262 262 262 261 261 261 260 260 260 259 259 259 259 259 259 259 260 261 261 262 262 262 262 262 262 262 263 262 262 261 262 262

GFSGL_925_thetae_081.txt.gz
Theta_e
318 318 318 318 318 317 317 318 317 317 317 317 316 316 318 320 320 319 320 320 321 320 320 319 319 317 315 313 312 312 307 307 307 303 302 301 302 300 298 297 297 297 297
316 316 317 317 318 317 316 316 317 317 317 316 316 316 319 319 319 319 320 320 320 319 319 320 319 316 311 311 311 308 305 303 303 302 300 300 299 298 297 297 296 295 295
316 315 315 316 317 317 316 317 317 317 317 316 316 317 318 319 320 321 321 320 320 320 319 317 316 313 309 308 306 303 303 302 301 300 298 298 297 297 295 295 293 292 291
316 316 316 315 315 315 316 317 318 319 319 319 318 319 320 320 320 320 320 320 319 317 316 313 311 309 308 306 303 302 301 299 298 297 296 295 294 293 291 291 289 287 286
317 316 316 316 316 316 317 318 319 320 320 320 320 320 320 320 320 321 320 319 316 312 310 308 306 305 305 304 302 300 299 298 296 294 291 291 291 291 289 286 285 285 285
316 317 317 317 317 318 319 319 319 320 320 320 320 319 320 320 321 320 318 316 311 308 305 302 301 301 300 299 299 298 297 294 292 290 290 289 288 285 285 285 285 285 285
317 318 318 318 318 319 319 319 319 320 321 321 321 320 319 318 315 314 312 310 305 303 301 298 297 296 297 295 294 292 291 291 289 287 285 285 285 284 284 284 284 284 284
320 320 320 319 319 318 318 319 320 320 317 315 314 312 310 307 305 304 304 302 300 298 297 296 296 292 291 291 289 287 285 283 282 282 282 283 283 283 283 283 283 283 283
318 317 317 317 317 317 316 315 313 310 308 307 305 304 304 301 300 301 302 299 296 293 291 291 290 288 289 288 284 282 282 281 281 280 280 279 278 278 279 281 282 282 283
314 315 317 317 316 313 311 308 305 304 302 301 300 299 299 297 298 299 299 296 291 288 286 287 286 285 282 281 281 281 282 281 280 279 279 278 278 279 277 279 279 280 281
313 313 312 311 310 308 305 303 302 300 298 296 295 294 294 294 295 296 296 294 291 286 284 281 280 279 280 280 280 281 280 279 278 277 277 277 277 277 277 276 276 277 278
307 306 305 305 303 302 302 300 298 297 294 291 290 288 288 289 290 289 289 288 286 284 281 279 279 280 281 280 279 278 278 277 277 277 276 277 276 276 276 275 275 275 276
304 302 302 302 301 300 300 296 294 293 290 288 286 284 283 283 283 284 283 282 282 282 281 279 278 280 279 278 277 277 276 276 276 276 276 276 275 274 274 274 274 274 274
300 298 298 298 296 296 295 294 292 291 289 287 285 283 281 280 281 282 283 283 282 280 279 278 279 279 278 277 277 276 276 275 274 275 275 274 273 273 273 273 272 273 273
295 293 291 291 290 289 289 289 290 290 291 288 284 283 282 282 281 282 282 281 280 279 279 279 278 278 277 277 276 275 275 274 274 274 273 273 273 272 272 271 271 272 272
290 289 287 286 286 285 284 284 286 287 287 287 286 286 283 281 280 279 279 279 278 277 278 278 277 276 276 276 276 275 274 273 273 272 272 272 271 270 270 270 270 271 271
286 285 285 285 285 284 284 283 283 282 281 281 281 280 280 280 279 279 278 278 278 278 278 277 276 275 275 275 274 274 273 272 271 270 270 270 269 269 269 270 270 270 270
285 285 285 284 284 284 284 284 284 284 283 281 280 280 279 278 277 277 277 277 277 276 276 276 275 274 274 273 272 272 271 270 269 269 269 268 268 268 268 269 269 269 269
283 283 283 282 282 282 282 282 282 282 281 280 278 277 276 275 275 274 274 275 275 274 274 273 273 272 272 271 270 269 269 268 267 267 267 267 267 267 267 267 267 267 267
280 281 281 280 280 280 280 280 279 279 278 277 276 275 275 275 274 273 272 271 271 271 270 270 270 269 268 268 268 267 267 267 267 266 266 266 266 266 266 266 267 267 267
278 278 278 278 278 277 277 277 276 276 275 274 272 271 271 272 271 270 270 269 268 268 267 267 267 266 266 266 265 265 265 264 264 264 264 265 265 265 265 265 266 267 267
276 276 276 275 275 274 274 274 273 273 272 272 270 269 268 269 268 268 267 265 265 265 264 264 264 264 263 263 263 263 263 263 263 263 263 263 263 264 265 265 265 266 266
274 274 273 272 271 271 271 271 270 270 269 268 268 268 267 266 265 264 264 263 263 262 262 262 261 261 261 261 261 261 261 261 262 261 262 262 263 264 264 265 265 266 266
271 271 270 269 269 268 268 267 267 266 266 266 265 265 264 263 263 262 262 262 262 261 260 260 260 259 259 259 259 260 260 260 260 260 261 261 262 263 264 264 265 265 265
268 267 267 266 266 265 265 264 264 264 263 263 263 262 262 262 261 261 260 260 260 259 259 259 259 259 259 259 260 260 260 260 260 259 259 260 260 261 262 262 263 264 265
266 265 265 264 264 263 263 263 262 262 261 261 260 260 260 260 259 259 258 258 257 258 257 258 258 259 260 260 260 261 261 262 262 262 261 259 260 261 262 263 263 264 265

GFSGL_925_thetae_084.txt.gz
Theta_e
323 324 323 323 322 321 322 322 322 322 322 322 322 322 321 321 321 322 323 323 324 323 323 321 321 320 319 319 317 315 313 311 313 309 309 305 304 303 301 300 301 300 301
323 323 323 323 323 322 322 322 322 322 322 321 321 321 320 320 320 321 322 323 323 321 320 320 319 318 316 316 315 314 312 310 310 307 305 302 302 301 301 300 299 300 299
323 323 323 323 323 323 322 322 322 321 321 321 321 321 320 320 320 321 321 322 321 320 319 319 319 316 314 313 311 310 309 305 305 304 301 300 300 298 298 298 298 299 297
322 322 322 322 323 322 322 322 321 320 320 320 320 320 319 319 319 319 321 321 320 319 318 318 317 316 314 311 309 306 303 303 303 302 299 298 297 297 296 297 298 296 294
322 321 321 321 321 321 321 321 320 319 320 321 321 321 321 321 321 322 322 320 319 317 317 316 314 313 310 308 306 304 301 301 299 298 295 294 294 294 295 296 293 291 290
323 322 321 321 321 320 320 320 320 320 320 321 322 322 323 323 322 321 320 319 318 316 313 309 307 305 303 301 301 301 300 299 296 293 293 292 293 293 292 291 290 289 289
323 323 322 322 321 321 321 321 321 322 321 322 322 323 323 321 320 318 317 315 312 310 307 302 299 297 298 299 298 296 294 294 294 293 291 291 290 290 289 288 288 288 288
323 323 322 322 322 322 321 321 322 321 319 319 318 317 315 313 312 311 310 308 304 300 298 297 297 294 294 295 293 293 292 290 288 286 285 286 286 286 286 286 286 286 286
323 323 322 322 322 322 321 318 316 317 314 312 309 308 307 305 304 305 305 301 296 293 293 293 293 292 292 291 288 286 284 283 282 281 282 282 281 280 279 281 283 285 286
324 324 322 321 318 317 316 315 311 309 306 304 301 300 299 298 299 300 300 296 292 289 289 289 288 288 288 285 283 284 284 285 283 283 282 281 280 281 280 279 281 282 283
319 318 316 315 314 314 310 307 305 302 299 296 294 292 293 293 293 295 295 293 290 287 284 283 282 284 281 280 282 284 284 282 281 280 281 281 281 281 280 280 279 279 280
308 308 308 308 306 305 304 300 298 295 292 289 289 287 287 288 289 291 291 290 287 285 282 282 280 281 280 280 281 280 279 279 280 280 281 281 280 280 279 279 278 278 278
304 301 301 301 300 299 298 294 292 292 289 287 286 284 283 283 284 285 285 284 284 284 283 282 281 281 280 279 278 278 278 279 279 279 280 279 279 278 277 277 277 277 277
297 296 295 294 293 293 293 292 291 290 288 287 285 283 282 281 282 284 285 285 284 282 280 281 281 281 280 280 279 279 279 278 277 277 278 278 277 277 277 277 277 276 276
293 291 290 289 288 287 288 289 289 289 288 286 283 283 283 283 282 283 283 283 282 281 282 281 282 281 281 280 280 279 278 278 277 277 276 276 276 276 276 275 275 275 275
291 289 289 288 287 286 285 284 285 285 286 285 284 284 282 281 280 280 280 279 278 280 282 282 281 280 280 279 279 278 277 277 276 275 274 274 274 274 274 274 273 274 274
288 288 287 286 285 285 284 283 282 281 281 281 281 281 281 280 280 280 279 278 278 280 281 280 279 278 278 277 276 276 275 275 273 273 273 273 273 272 272 272 273 273 274
287 286 285 285 285 285 285 284 284 283 282 280 279 279 278 278 277 277 278 279 279 278 278 277 276 276 275 275 274 274 273 272 272 271 271 271 271 271 271 271 272 272 272
283 283 283 284 284 284 284 284 284 283 281 280 279 277 276 276 275 275 276 277 277 276 275 275 274 273 273 272 271 271 271 270 270 270 270 269 269 269 269 269 270 270 270
281 282 282 282 282 283 283 282 282 281 280 279 278 277 277 277 276 275 274 273 273 273 272 271 271 271 270 270 269 269 269 269 268 268 268 268 268 268 268 268 269 269 269
279 279 280 280 280 280 280 279 279 278 277 275 273 272 272 275 274 273 272 271 270 270 269 269 269 268 268 268 268 267 267 267 267 267 266 267 267 267 267 267 268 268 269
278 278 277 277 277 277 277 277 277 276 275 274 273 270 270 271 271 270 269 268 268 267 267 267 266 267 266 266 265 266 265 265 265 266 266 266 266 266 267 267 267 268 268
277 276 275 275 275 274 274 274 273 273 272 272 271 270 269 269 268 268 267 266 266 265 265 264 264 264 264 264 264 264 264 264 264 264 264 264 265 265 266 266 267 267 268
274 273 273 272 272 272 271 270 269 269 269 269 269 268 267 267 267 266 265 264 264 264 263 263 262 262 262 261 262 262 263 263 262 262 262 263 264 265 265 266 266 267 267
271 270 270 270 269 269 269 268 268 268 267 267 267 266 266 265 265 265 264 263 262 262 262 261 261 261 261 260 259 259 260 260 260 260 260 262 263 263 264 265 265 266 267
269 268 268 268 268 268 267 267 266 266 266 265 265 265 264 264 264 263 262 262 261 260 260 261 260 260 259 260 261 261 260 261 261 261 259 260 262 263 264 265 266 266 267

GFSGL_925_thetae_087.txt.gz
Theta_e
323 323 323 324 324 324 324 322 322 319 319 320 321 322 324 325 324 323 324 324 324 324 324 324 324 324 324 323 322 321 318 315 314 315 314 314 311 309 307 306 305 304 304
326 325 324 324 324 324 325 324 323 323 321 322 322 323 324 324 323 323 324 324 324 324 323 323 323 324 323 321 320 318 316 315 314 314 312 310 307 307 303 303 302 301 301
326 327 327 325 324 324 325 325 325 324 323 323 323 324 324 323 323 323 323 323 323 323 323 323 323 322 320 318 318 316 314 313 312 311 304 303 302 304 303 301 300 300 300
326 326 326 327 327 326 326 325 325 325 324 324 324 324 324 323 322 322 321 322 322 323 323 323 321 321 319 316 316 314 312 309 307 306 303 301 301 299 299 299 298 299 299
326 326 326 327 326 326 326 326 325 324 325 324 324 324 323 323 322 322 321 321 321 322 322 321 319 318 317 315 314 311 308 305 302 301 298 297 297 296 296 296 296 296 295
327 326 325 326 325 326 326 326 325 325 324 324 323 323 323 323 322 322 321 323 323 323 322 319 314 311 310 308 306 304 304 302 299 297 294 294 294 295 295 294 294 293 293
327 326 326 325 325 325 325 324 324 324 323 323 323 322 323 323 324 324 323 322 320 318 313 307 303 300 301 301 300 299 299 298 297 295 294 293 293 292 292 292 291 291 291
328 327 326 326 325 324 324 323 323 323 323 323 323 322 321 320 321 322 320 314 309 304 301 299 298 296 295 296 295 295 293 293 293 293 292 289 288 288 288 288 288 288 288
328 327 327 326 325 325 325 324 324 324 321 319 317 315 314 310 307 308 308 304 300 295 294 294 294 293 292 292 292 291 289 287 286 286 285 285 285 285 284 282 283 285 287
327 326 326 326 325 325 325 318 313 314 312 309 304 301 298 297 299 301 302 298 293 290 290 291 291 291 290 287 285 284 285 285 284 284 284 284 283 282 282 281 281 283 284
326 326 325 325 325 319 313 311 307 303 299 295 293 291 292 293 293 296 296 294 291 288 287 286 286 285 282 282 284 285 285 284 283 282 283 283 283 283 283 283 282 282 281
313 312 311 311 311 307 305 299 297 295 291 288 288 286 287 287 289 290 291 291 288 286 283 282 282 281 280 281 281 280 279 281 282 283 283 283 283 283 282 281 281 280 280
305 301 300 300 298 297 295 293 291 290 289 287 285 284 283 283 284 285 285 285 284 284 284 283 282 281 281 281 279 279 280 281 281 282 282 281 281 281 280 279 279 279 279
295 293 293 292 291 291 291 291 290 289 287 286 285 283 283 283 283 285 286 286 285 284 282 282 282 282 282 281 281 281 281 280 279 279 280 279 279 279 278 278 278 278 277
292 291 289 288 287 286 286 287 286 287 286 284 283 284 284 283 284 285 285 284 283 283 283 283 283 283 283 282 282 281 280 279 279 278 277 277 277 276 276 277 276 276 276
290 289 288 287 286 285 284 284 284 285 285 285 284 283 281 281 281 280 280 280 281 283 284 283 283 282 281 280 280 279 278 278 277 276 275 275 275 275 275 274 274 274 275
288 287 287 286 285 284 283 283 282 282 281 281 281 281 280 280 280 279 279 279 281 282 281 281 280 279 278 278 277 277 276 276 274 274 274 273 273 272 272 273 273 273 274
286 286 286 285 284 284 284 283 283 282 280 279 278 278 278 278 278 279 279 281 279 279 278 278 277 277 276 275 275 274 273 273 273 272 272 272 271 271 271 271 271 271 272
285 285 285 285 285 285 284 283 281 280 279 279 278 277 277 277 276 276 277 277 277 276 276 275 275 274 273 273 272 272 272 271 271 271 270 270 270 270 270 270 270 270 270
283 283 284 284 284 284 283 282 282 280 279 277 277 278 278 277 276 275 274 274 274 274 273 273 272 272 271 271 271 270 270 270 270 269 269 269 269 269 269 269 269 269 270
281 281 281 281 281 281 281 280 279 277 276 275 274 273 275 276 275 274 273 272 272 271 271 270 270 270 270 270 269 269 269 268 268 268 268 268 268 268 268 268 269 269 269
280 279 279 279 279 279 279 279 278 277 276 275 274 272 273 273 273 272 271 270 270 269 269 269 268 268 268 268 267 267 267 267 267 267 267 267 267 267 267 268 268 268 269
279 279 278 278 277 277 277 276 276 275 274 274 273 272 271 271 270 270 269 269 268 267 267 267 266 266 266 266 265 265 266 266 266 266 265 265 266 266 266 267 267 268 268
276 275 275 275 275 274 273 272 272 272 272 272 271 271 270 270 269 269 268 267 266 266 266 265 265 265 264 263 264 264 264 264 263 263 263 264 264 265 265 266 266 267 267
273 273 273 273 273 272 272 271 271 271 270 270 270 269 269 268 268 268 267 266 265 264 264 264 264 264 263 262 262 262 262 262 261 261 261 262 263 264 264 265 266 267 267
272 272 272 271 271 271 271 270 270 269 269 269 268 268 268 267 267 266 266 265 263 262 263 264 263 263 262 262 263 263 262 260 260 260 260 261 262 263 264 265 266 266 267

GFSGL_925_thetae_093.txt.gz
Theta_e
322 322 322 319 318 317 317 315 316 316 316 316 315 314 314 314 316 319 320 321 322 322 322 321 322 321 322 322 322 322 322 322 320 320 320 320 319 319 319 317 316 315 315
322 322 322 322 320 318 317 317 316 317 316 316 315 315 315 314 317 320 321 321 321 322 322 322 322 322 322 322 322 322 322 322 320 319 319 319 319 318 317 316 315 313 314
322 322 322 323 322 320 319 319 317 317 316 315 316 316 317 318 318 318 319 320 321 321 322 322 322 322 322 323 322 322 323 322 322 319 319 317 316 315 313 312 311 309 306
323 322 322 322 323 322 319 319 320 319 317 316 316 315 316 316 318 319 321 320 320 320 321 321 322 322 322 323 323 323 323 321 320 317 314 310 306 305 304 303 303 302 302
323 323 322 321 321 322 322 321 320 320 320 319 318 316 316 316 316 319 321 321 321 321 322 322 323 323 323 323 323 322 321 319 316 310 302 300 298 298 298 298 297 297 297
325 323 323 322 322 323 324 324 323 322 321 320 320 319 318 317 317 317 318 320 321 323 323 322 320 319 318 317 318 318 314 310 306 302 296 295 294 294 294 294 294 293 293
325 325 324 323 323 323 324 324 324 325 325 323 322 321 320 319 320 320 320 322 323 323 321 319 313 308 306 307 305 304 302 301 300 299 295 293 291 291 291 291 290 290 290
325 325 326 326 325 324 324 323 323 324 324 325 324 323 323 322 322 323 323 322 319 316 313 309 305 300 300 300 297 295 293 293 293 293 292 291 290 289 288 287 286 285 284
326 326 326 326 327 326 326 325 324 325 324 324 324 323 323 319 317 321 322 315 308 301 298 297 297 294 293 294 294 290 287 285 284 284 284 283 283 283 283 283 283 282 282
327 327 326 326 326 326 326 326 326 326 321 317 316 314 313 312 308 311 314 308 298 292 290 290 290 289 288 289 288 286 284 283 283 283 283 283 283 283 282 282 282 281 281
308 325 327 327 327 326 326 322 317 312 307 303 300 296 297 299 298 301 304 300 291 286 285 285 285 286 286 285 285 283 283 283 283 283 283 282 281 281 280 280 280 279 279
305 302 303 309 314 318 317 308 306 305 299 293 292 289 289 290 291 293 293 293 288 285 283 282 281 281 282 282 282 282 282 282 282 281 280 279 278 278 278 278 277 277 277
297 296 294 296 298 298 299 297 295 293 290 288 287 285 285 285 285 286 285 286 285 283 283 283 283 282 282 282 281 280 280 280 280 279 277 276 276 276 276 275 275 274 274
289 289 289 289 288 289 290 291 290 289 288 287 286 284 284 284 284 284 284 284 283 283 283 282 282 282 281 281 280 279 279 278 277 276 276 275 275 274 273 272 272 272 272
287 286 286 285 285 285 285 285 285 286 286 286 285 285 285 284 284 284 284 283 283 283 282 282 282 281 280 279 278 277 276 275 275 274 274 273 273 272 272 271 271 271 271
286 285 284 284 283 283 283 283 283 283 285 284 284 284 284 284 284 284 284 284 283 282 281 280 279 279 278 277 276 275 274 273 273 272 272 271 271 270 270 270 270 270 270
285 284 283 283 282 282 282 282 281 281 282 282 282 282 282 282 282 282 282 282 281 280 278 277 276 275 275 274 273 272 272 271 271 271 270 270 269 269 269 269 269 269 269
284 283 282 281 281 280 280 280 280 279 279 279 280 280 281 280 280 279 279 278 276 276 275 274 273 273 272 272 271 271 271 270 270 270 269 269 268 268 268 268 268 268 268
283 283 282 281 280 280 279 279 278 278 278 277 277 277 276 276 276 276 275 274 274 273 272 272 272 271 271 270 270 270 269 269 269 268 268 268 268 267 267 267 267 267 267
283 283 282 281 279 278 278 277 277 276 277 277 276 275 274 274 273 272 272 272 271 271 271 270 270 270 269 269 269 268 268 267 267 267 267 267 266 266 266 266 266 266 267
281 280 279 279 278 277 276 275 274 274 274 274 274 273 272 271 271 270 270 270 269 269 269 269 268 268 268 268 267 267 266 266 266 266 266 266 265 265 265 265 265 265 265
279 279 278 278 277 276 275 274 274 273 273 272 272 272 271 270 269 269 268 268 268 267 267 267 267 266 266 266 265 265 265 265 265 265 265 264 264 264 264 264 264 264 264
276 276 275 275 275 274 274 273 273 272 271 271 270 270 269 269 268 267 267 267 266 266 266 265 265 265 265 264 264 264 264 264 263 264 264 264 263 263 263 262 262 262 263
274 274 274 273 273 272 272 272 271 271 270 270 269 269 268 268 267 266 266 265 265 265 264 264 264 264 263 263 263 263 263 263 263 263 263 263 263 262 262 261 262 262 262
273 272 272 272 271 271 271 270 270 270 269 269 269 268 267 267 266 265 265 265 264 264 263 263 263 263 263 263 263 263 263 263 263 263 262 262 262 261 261 261 261 262 262
271 271 271 270 270 270 269 269 269 268 268 268 267 267 267 266 265 264 264 264 263 263 263 262 262 262 262 262 262 262 262 262 262 262 262 261 261 261 261 261 262 262 262

GFSGL_925_thetae_096.txt.gz
Theta_e
321 319 317 316 316 316 315 314 315 314 314 315 314 315 314 316 316 315 315 316 316 317 319 320 320 319 320 321 321 320 320 320 319 320 320 319 319 319 319 319 319 319 318
322 321 319 317 317 316 316 314 314 315 314 314 315 315 316 317 317 317 317 317 319 318 319 320 320 320 319 320 320 321 321 321 320 319 319 320 319 319 319 319 318 317 315
322 322 321 319 317 317 317 316 314 315 315 315 314 315 314 314 315 317 318 318 319 319 320 320 320 320 320 320 320 321 321 321 321 320 320 319 318 318 317 314 312 310 309
321 322 322 322 320 318 317 317 316 315 315 315 316 315 315 314 313 314 316 318 319 320 320 320 320 320 320 320 321 321 321 321 320 319 318 316 312 308 307 305 304 302 303
321 321 320 321 322 321 319 317 317 316 316 315 315 315 315 315 315 316 316 316 317 318 319 319 320 320 320 320 321 320 320 319 319 317 310 302 300 299 299 298 298 297 296
321 320 320 320 321 322 321 319 318 318 318 316 315 315 314 314 314 315 316 318 319 320 320 320 320 320 320 320 320 320 318 317 316 309 300 297 295 294 294 295 294 294 293
321 321 321 321 320 321 322 321 319 319 319 319 318 316 315 315 315 315 315 315 317 318 320 320 319 314 312 311 310 310 308 307 306 303 297 294 292 292 291 290 289 289 289
323 322 322 322 321 320 321 321 322 321 320 320 319 319 319 318 318 317 316 315 315 316 318 318 316 311 305 303 302 300 296 295 295 294 293 291 288 286 286 285 283 283 283
324 324 323 322 322 321 321 322 322 322 322 322 322 321 320 320 320 319 318 317 312 310 309 306 303 299 295 295 296 290 287 284 284 284 283 282 282 283 283 284 283 283 282
308 311 320 324 323 323 322 322 322 322 322 322 322 323 322 321 319 321 321 316 306 300 295 293 293 292 290 289 288 285 284 283 283 283 283 283 283 282 281 281 280 280 280
301 304 310 320 323 324 324 323 322 321 317 311 308 305 306 304 301 302 305 310 302 290 287 286 287 288 289 288 286 285 283 283 283 283 282 281 280 279 278 278 278 278 278
295 296 297 299 304 310 317 312 309 309 301 294 291 290 291 292 292 291 291 290 287 284 283 283 283 283 283 284 283 283 283 283 282 280 279 278 277 276 276 275 275 275 274
293 290 291 292 292 293 295 296 295 294 291 289 287 286 285 285 285 286 285 283 283 283 283 283 283 282 282 282 281 281 281 280 278 277 276 276 275 275 274 273 272 272 272
288 288 287 287 287 288 288 289 290 290 289 288 286 285 284 284 284 284 284 284 284 283 282 282 281 280 280 279 279 278 277 277 276 276 275 274 273 272 271 271 271 270 271
286 286 286 285 285 285 284 285 285 286 286 286 285 284 284 284 284 284 283 283 283 282 281 281 280 279 278 277 276 275 275 274 274 273 272 272 271 270 270 270 270 269 269
284 284 284 284 284 284 284 284 284 285 285 285 285 285 284 284 284 283 282 282 282 281 280 279 278 277 276 275 274 274 273 272 272 271 271 270 269 269 269 269 268 268 268
283 283 282 283 283 283 283 283 283 283 283 283 283 283 283 283 282 282 282 281 280 280 277 275 275 274 274 273 272 271 271 270 270 270 269 269 268 268 268 268 267 267 267
281 281 280 280 280 280 280 280 280 280 280 280 280 279 279 279 279 279 280 280 277 276 274 273 273 272 272 271 271 270 270 269 269 268 268 268 268 267 267 267 266 266 267
281 280 279 279 279 279 278 278 278 277 277 276 275 276 275 276 277 276 277 274 273 272 272 271 271 271 270 270 269 269 269 268 268 267 267 267 266 266 266 266 266 266 266
280 279 279 278 277 277 277 277 277 276 276 275 274 273 274 275 273 272 272 272 271 270 270 270 270 269 269 269 268 268 267 267 267 267 266 266 265 265 265 265 265 264 265
279 278 277 277 276 275 275 275 275 274 273 272 271 271 272 271 270 270 270 270 270 269 269 269 268 268 267 267 267 266 266 266 266 265 265 265 265 264 264 264 264 264 264
278 277 277 276 275 274 274 273 273 272 271 270 270 270 270 269 269 268 268 267 267 267 267 267 267 266 266 265 265 265 265 265 265 264 264 264 264 264 264 263 263 263 263
276 275 275 274 274 273 272 272 271 271 270 270 269 269 268 268 267 267 266 266 266 266 265 265 265 265 264 264 264 264 264 264 263 263 263 264 264 264 263 263 263 263 262
275 274 273 272 272 271 271 271 270 270 270 269 268 268 267 266 266 265 265 265 265 264 264 264 264 264 263 263 263 263 263 263 263 263 263 263 263 263 263 263 263 262 262
272 272 271 271 271 270 270 270 269 269 269 268 267 267 266 266 265 265 265 264 264 264 263 263 263 262 262 262 263 263 262 262 263 263 262 262 263 264 263 263 262 262 262
271 271 270 270 270 269 269 269 268 268 268 267 267 266 266 265 264 264 264 263 263 262 262 262 261 261 262 261 261 262 262 262 262 262 262 263 264 263 263 263 263 262 262

GFSGL_925_thetae_099.txt.gz
Theta_e
318 317 316 315 315 316 315 315 315 316 316 317 317 317 316 315 316 315 316 315 314 315 315 316 316 318 319 318 317 318 319 319 317 319 319 318 319 319 319 319 319 319 318
318 317 316 316 315 315 315 315 315 315 315 315 315 315 316 316 315 315 315 315 316 315 315 316 317 316 319 319 319 319 319 320 319 318 318 318 319 319 319 319 318 317 317
319 318 316 316 316 315 315 315 315 314 314 314 314 315 315 315 315 315 315 315 315 315 316 316 317 318 318 319 319 319 319 319 319 318 318 319 319 319 318 318 317 315 311
319 319 318 316 316 316 316 315 314 315 314 314 315 314 314 315 314 315 316 316 316 316 316 316 316 318 319 319 319 319 319 319 319 317 317 318 318 316 314 310 306 304 303
321 320 319 318 317 317 316 316 315 315 315 314 314 314 315 314 315 316 316 317 317 318 318 318 318 318 319 319 319 319 319 319 318 318 318 314 310 306 305 303 301 300 296
320 321 320 321 320 318 317 317 317 316 315 315 314 314 314 314 314 314 314 314 315 316 316 317 319 319 319 319 320 320 319 317 317 317 315 305 301 300 299 298 296 294 293
321 321 320 320 321 321 320 318 317 317 316 315 315 314 314 314 314 314 314 314 314 315 316 316 316 317 317 316 314 312 310 311 312 312 306 296 293 292 293 292 292 291 289
321 321 320 319 320 320 321 321 319 318 318 317 316 315 315 314 314 314 314 314 315 315 315 316 317 317 314 309 306 303 299 297 296 297 294 290 289 289 290 286 284 283 283
316 320 321 321 320 320 320 321 321 319 319 318 319 318 316 315 316 315 315 314 313 312 312 314 313 312 306 302 301 295 287 284 284 283 284 284 284 283 284 285 283 284 283
304 304 309 315 321 321 320 320 320 320 321 320 319 319 318 318 318 318 317 316 311 307 304 303 301 299 292 290 290 285 284 283 283 283 283 283 282 281 281 282 281 281 281
298 300 303 306 310 315 321 321 320 321 321 319 316 312 313 313 315 317 317 314 308 297 292 289 288 288 287 287 287 286 284 283 282 281 280 279 279 278 277 277 277 277 277
292 293 294 297 301 303 309 308 312 310 305 300 295 292 294 295 295 296 297 298 291 288 285 285 284 285 286 286 285 284 284 283 282 280 278 277 276 275 274 274 274 273 274
288 288 289 290 291 294 295 295 294 294 291 290 289 288 288 286 286 291 290 286 285 284 283 283 284 284 284 282 282 281 281 280 278 277 275 275 274 273 273 272 272 272 271
286 286 286 286 287 288 290 290 289 288 287 286 286 285 285 285 284 284 285 286 286 284 282 281 280 279 279 280 280 279 278 277 276 275 274 273 272 271 271 271 270 270 270
285 285 285 285 285 285 285 286 287 288 291 286 285 285 284 284 284 284 283 283 282 280 280 279 279 278 276 276 275 275 275 274 274 273 272 271 270 270 270 269 269 269 269
284 284 284 284 285 285 285 284 284 285 285 285 285 284 284 284 283 283 282 282 281 280 279 278 277 276 275 274 273 273 272 272 271 271 270 270 270 269 269 268 268 268 267
280 281 281 282 282 283 283 283 282 281 281 282 283 283 282 282 281 281 280 280 279 280 276 275 274 274 273 273 272 271 271 270 270 269 269 268 268 268 267 267 267 267 267
280 280 280 280 279 279 279 278 278 277 277 277 278 279 279 279 279 279 280 280 277 275 274 273 272 272 272 271 270 270 269 269 269 268 268 267 267 267 266 266 266 266 266
279 278 278 278 278 278 278 277 276 276 275 274 275 276 275 278 278 278 278 274 272 272 272 271 271 271 270 270 269 269 269 268 268 267 267 266 266 266 265 265 265 265 265
278 277 277 277 277 277 276 276 275 274 273 273 273 273 275 277 274 272 272 272 271 270 270 270 270 269 269 268 268 268 267 267 267 266 266 265 265 265 265 265 265 264 264
277 277 277 276 276 275 275 274 273 272 271 270 270 271 272 272 270 270 270 270 270 269 269 269 268 268 267 267 267 267 266 266 265 265 265 264 264 265 264 264 264 264 264
277 276 275 275 274 274 273 273 272 271 270 269 269 270 270 270 269 268 268 268 268 268 267 267 267 266 266 265 265 265 265 265 264 264 264 264 264 264 264 264 264 264 263
276 275 274 273 273 273 272 271 270 270 269 269 269 268 268 268 267 266 266 266 266 266 266 265 265 265 264 264 264 264 264 264 263 263 263 264 264 264 264 264 263 263 263
275 274 273 272 272 271 271 270 270 269 269 268 267 267 266 266 266 265 265 265 265 264 264 264 264 263 263 263 263 263 263 263 263 263 263 264 264 264 264 264 263 263 263
273 272 272 271 270 270 270 269 269 268 268 267 267 266 265 265 265 264 264 264 264 264 263 263 263 263 262 262 263 263 263 263 263 263 263 263 264 264 263 263 263 263 263
271 271 270 270 270 269 269 268 268 268 267 267 266 266 265 265 264 264 263 263 263 262 262 262 261 261 261 262 262 262 262 262 262 262 262 263 263 263 263 263 263 263 263

GFSGL_925_thetae_102.txt.gz
Theta_e
318 315 316 317 317 317 316 316 316 317 316 316 317 316 316 316 315 316 316 315 314 315 313 314 314 315 315 314 316 318 318 319 317 317 318 318 319 318 318 318 318 319 319
317 315 315 317 316 316 316 315 316 317 317 316 317 316 316 316 316 316 316 315 314 315 315 314 314 315 314 314 317 319 318 317 317 317 317 318 318 318 318 318 318 318 318
318 316 314 315 315 315 315 315 315 316 317 317 317 317 316 316 316 315 315 315 315 315 315 315 315 315 316 317 317 318 318 318 318 317 317 318 318 318 318 318 318 316 314
318 316 315 315 315 315 315 315 315 315 315 315 315 317 317 317 316 315 315 315 315 315 315 315 315 316 315 316 317 317 317 318 317 316 316 317 317 316 316 315 312 308 304
319 318 316 315 316 315 315 315 315 315 314 314 314 314 315 315 316 315 315 315 315 315 314 314 315 315 314 315 316 318 318 318 317 316 316 316 315 311 309 309 305 301 295
319 319 318 317 316 316 316 315 314 314 314 314 313 314 314 314 315 315 315 315 315 315 315 315 314 314 315 317 318 318 318 317 317 317 316 314 312 310 308 303 299 294 293
321 320 319 319 318 317 316 316 316 315 314 314 314 314 314 314 314 314 314 314 314 315 315 316 316 317 317 317 317 316 314 314 314 312 310 305 300 299 298 294 294 292 286
320 321 320 320 320 320 318 317 317 316 316 315 315 315 314 314 314 314 314 314 314 314 314 315 315 314 314 314 312 307 302 301 300 302 300 294 292 292 293 291 288 285 283
309 311 314 318 319 320 320 320 319 318 317 317 316 315 315 314 315 315 314 314 313 313 313 314 314 314 315 312 307 298 289 285 283 285 285 285 285 286 286 286 285 285 283
299 299 301 306 310 317 319 319 320 320 318 318 317 317 316 316 316 316 316 314 311 311 309 309 309 310 309 304 301 293 284 282 282 282 282 283 283 283 284 283 282 281 281
293 293 295 298 299 303 312 318 319 320 319 316 312 306 307 307 311 313 313 314 310 304 300 296 295 295 291 289 289 286 283 282 281 280 279 278 278 278 278 279 278 278 278
290 290 291 292 293 296 300 303 308 312 307 297 295 292 292 293 294 298 301 301 294 288 286 286 286 285 285 286 285 282 281 281 279 277 276 275 275 274 274 273 273 273 273
288 287 288 289 289 290 291 292 293 293 291 288 287 286 285 286 286 287 290 293 293 290 286 283 282 281 280 280 280 281 281 280 278 276 274 273 273 273 272 272 272 272 271
286 286 286 286 286 287 287 288 288 288 288 287 286 285 285 285 285 285 284 283 282 281 280 279 279 279 279 280 280 278 277 277 276 274 273 272 271 271 271 270 270 271 271
285 285 285 285 285 284 284 285 285 286 286 286 285 285 284 284 283 282 281 280 280 279 279 280 279 278 276 276 275 275 275 274 273 272 271 271 271 270 269 269 269 269 269
283 283 284 284 283 283 282 282 283 284 284 284 284 284 283 283 282 281 280 280 280 280 278 276 275 275 274 273 273 272 272 271 271 271 270 270 270 269 269 268 268 268 268
281 281 281 281 280 281 281 281 280 280 280 281 281 281 281 280 280 279 280 280 280 281 275 274 274 273 273 272 271 271 270 270 269 269 269 268 268 268 268 267 267 267 267
279 279 279 279 278 278 277 276 275 275 274 275 278 279 279 279 279 281 281 281 277 276 274 273 272 272 271 271 270 269 269 269 268 268 267 267 267 267 267 266 266 266 266
278 278 278 277 277 276 276 275 275 274 273 273 274 276 275 275 275 277 279 276 272 271 272 271 271 271 270 270 269 269 268 268 267 267 266 266 266 266 266 266 266 266 266
277 277 277 277 276 276 275 274 273 272 272 271 272 272 274 277 274 272 272 272 271 270 270 270 270 269 269 269 268 268 267 267 267 266 266 265 265 266 266 266 265 265 265
277 276 276 276 275 275 274 273 272 271 269 268 268 270 272 272 269 270 270 270 269 269 269 269 268 268 268 267 267 267 267 266 265 265 265 265 266 266 265 265 265 265 264
276 276 275 274 274 273 272 272 270 269 268 268 268 269 270 270 268 268 268 268 268 267 267 267 267 266 266 266 266 266 265 265 265 265 265 265 265 265 265 265 264 264 264
276 275 274 273 272 272 271 270 269 269 268 268 268 267 267 267 266 266 266 266 266 266 265 266 265 265 265 264 264 264 264 264 264 264 265 264 264 264 264 264 264 264 264
275 274 273 272 272 271 270 269 268 268 268 267 267 266 266 265 265 265 265 265 265 265 264 264 264 264 264 263 263 263 263 263 263 263 264 263 263 263 263 264 264 264 263
273 272 271 271 270 269 269 268 268 267 267 266 266 265 265 265 264 264 264 264 264 264 264 263 263 263 263 263 263 263 263 263 263 262 262 263 263 263 263 263 263 263 263
271 271 270 270 269 269 268 268 267 267 266 266 265 265 265 264 264 264 263 263 263 263 263 263 263 262 262 262 262 262 262 262 262 262 262 262 263 263 263 263 263 263 263

GFSGL_925_thetae_105.txt.gz
Theta_e
319 319 317 317 318 318 317 317 318 318 317 317 319 319 317 317 315 314 313 313 315 314 315 316 315 314 313 315 314 314 315 315 318 317 316 317 316 316 317 318 318 318 318
319 318 316 316 317 317 317 317 317 317 316 316 317 317 317 316 315 314 312 312 314 314 314 314 314 314 314 313 314 315 314 315 317 318 317 317 316 316 317 318 317 317 316
318 316 314 315 316 317 317 317 317 317 317 315 317 316 316 316 315 314 314 312 313 314 313 314 314 313 314 314 315 315 315 316 317 319 318 318 318 318 318 318 317 315 313
318 316 314 314 316 316 316 316 316 316 316 316 317 316 316 316 316 315 315 314 313 313 314 314 314 314 313 314 315 315 315 316 316 316 317 317 317 317 316 315 313 311 307
318 317 315 314 315 316 316 316 316 315 316 317 316 316 316 316 316 316 315 315 315 315 315 314 315 314 314 314 315 315 316 316 316 316 316 316 317 315 314 313 311 308 298
318 317 316 315 315 315 316 316 316 315 315 316 315 316 317 316 316 316 315 315 315 315 315 315 315 315 315 315 315 315 315 316 316 316 316 315 316 315 313 310 306 296 292
319 319 317 316 316 316 316 316 315 315 315 315 315 314 314 315 315 317 316 316 315 315 315 315 315 314 314 314 315 316 316 316 316 316 315 314 312 311 306 300 298 293 285
321 320 319 318 317 316 316 316 316 315 315 315 314 314 314 314 314 314 315 315 316 316 316 316 315 315 315 315 313 310 307 305 304 304 303 301 299 299 297 296 293 288 283
302 303 305 314 318 319 317 317 317 317 316 315 315 314 314 314 314 314 314 314 314 314 314 314 315 315 314 314 312 304 296 289 285 288 287 287 288 290 289 289 285 285 282
295 295 297 301 303 308 312 318 318 318 317 316 315 314 314 313 313 314 314 313 312 311 310 310 311 311 311 311 307 301 289 282 283 284 285 285 285 285 286 286 285 283 281
291 292 293 295 296 299 302 307 314 318 316 310 303 300 301 303 306 309 312 309 309 305 301 299 299 299 294 290 291 287 283 281 280 280 279 279 280 280 281 281 282 280 279
289 289 289 291 292 293 295 297 301 302 297 293 292 290 291 293 298 301 303 305 303 299 290 287 286 288 288 288 284 280 280 280 279 277 276 275 275 274 274 274 274 274 274
287 287 287 287 288 289 290 290 291 292 290 288 287 286 285 286 287 288 291 292 290 287 285 283 282 281 280 279 279 281 281 280 278 276 274 273 273 273 273 273 273 272 272
286 286 285 285 285 286 286 286 287 288 288 287 286 285 285 284 282 282 281 280 280 280 278 279 279 279 279 280 280 279 278 277 276 274 273 272 272 272 272 272 273 272 272
286 285 284 284 284 284 284 285 285 285 285 285 285 284 283 282 281 281 281 280 279 279 279 279 278 277 276 275 275 275 274 274 273 273 272 272 271 271 271 271 271 272 272
285 284 284 284 283 283 283 282 282 283 283 283 282 282 282 281 281 281 280 280 280 282 280 278 278 277 276 275 275 274 273 273 272 272 272 271 271 271 270 270 271 271 272
282 282 281 281 281 281 280 281 280 280 281 281 281 281 281 281 280 280 279 279 280 281 278 278 277 276 275 274 273 272 271 271 270 270 270 270 270 270 270 270 270 271 271
279 279 279 279 279 279 278 277 277 277 277 277 278 279 279 278 278 277 278 280 277 276 277 276 275 274 273 273 272 271 270 269 269 268 268 268 269 269 269 269 269 269 270
278 278 278 278 277 277 277 277 277 277 276 276 276 275 274 275 276 277 277 275 274 274 273 273 272 272 271 270 270 269 268 268 267 267 267 267 267 268 268 268 268 267 268
277 277 278 278 277 277 277 276 276 275 274 274 273 273 273 276 274 272 272 272 271 271 271 270 270 270 269 269 268 268 267 267 267 266 266 266 266 267 267 267 267 268 268
277 276 276 277 277 276 275 274 273 273 272 271 270 268 270 271 270 270 269 269 269 269 269 269 268 268 268 268 268 267 267 266 266 266 266 265 265 266 266 266 266 266 266
276 276 276 275 275 274 273 273 272 271 270 270 268 268 269 268 268 268 267 267 266 267 267 267 266 266 266 266 266 266 265 265 265 265 265 265 265 265 265 265 265 265 266
275 274 274 273 272 271 271 270 270 270 269 268 268 267 267 266 266 266 265 265 265 266 266 266 265 265 265 265 265 265 265 264 264 264 264 264 264 264 264 264 264 265 265
273 273 272 271 271 270 270 269 268 267 267 267 266 265 265 264 264 264 264 264 264 265 265 265 264 264 264 264 263 263 263 263 263 264 264 264 263 263 263 263 264 263 263
272 271 270 270 270 269 269 268 267 267 266 266 265 264 264 264 263 263 264 264 264 264 264 263 263 263 263 263 263 263 263 263 263 263 263 263 264 264 264 263 263 263 263
270 269 269 269 268 268 268 267 267 266 265 265 264 264 263 263 263 263 263 263 263 263 263 263 262 263 262 262 262 262 262 262 262 262 262 263 263 262 262 262 262 262 263

GFSGL_925_thetae_108.txt.gz
Theta_e
321 320 322 325 325 324 323 320 320 322 321 321 323 321 319 318 317 316 315 315 316 317 317 317 317 316 315 313 314 314 316 317 317 316 318 319 318 318 319 320 320 320 320
321 321 322 323 324 322 321 320 320 321 321 321 320 319 319 318 316 315 314 315 315 316 316 316 316 315 315 315 315 315 316 316 315 316 316 317 317 317 317 317 318 317 316
321 321 321 320 322 320 321 320 320 321 321 320 320 318 317 317 316 315 314 314 315 315 315 315 314 315 315 314 314 316 317 316 315 315 316 316 318 317 317 317 317 315 312
320 320 319 319 320 320 320 320 320 320 319 319 318 319 318 317 316 315 314 313 313 314 314 314 314 315 315 314 314 314 314 314 315 316 316 316 317 318 318 317 314 310 305
319 318 318 318 318 320 320 319 319 319 319 319 319 319 318 317 316 315 314 313 313 313 314 313 313 314 314 314 314 314 314 315 315 315 316 316 316 317 316 316 314 310 300
319 318 317 317 317 318 320 319 319 318 319 319 318 318 317 317 317 316 315 314 313 313 313 314 313 313 314 314 314 313 315 315 315 315 315 315 315 315 316 315 312 301 293
319 318 318 318 317 317 318 318 319 319 319 319 318 319 318 317 316 316 315 315 315 314 314 314 314 314 314 314 315 314 314 315 315 315 315 315 315 315 314 311 305 299 291
315 317 318 318 319 319 318 318 318 318 318 318 318 318 317 317 317 316 316 315 315 315 315 314 314 314 314 314 314 314 312 310 309 309 308 306 305 306 302 302 301 293 286
300 301 302 308 314 317 317 318 319 318 319 319 318 317 316 315 315 315 315 315 317 317 316 316 315 315 315 314 314 308 297 292 288 289 287 287 290 293 294 293 288 286 282
294 294 296 298 302 304 310 315 317 318 318 316 315 314 314 314 314 314 314 313 313 315 317 315 316 316 316 316 311 303 289 284 284 283 285 287 287 286 286 286 286 283 281
291 291 291 293 295 297 300 306 309 314 312 306 302 300 302 302 306 311 313 312 311 309 303 301 303 307 308 301 300 293 286 282 281 282 282 282 282 283 283 283 284 282 279
290 289 289 290 290 292 295 296 297 297 294 291 291 290 290 291 296 302 305 307 306 303 293 291 290 293 292 292 291 287 284 284 281 280 278 277 277 276 276 277 277 277 276
288 287 287 288 288 288 289 290 290 291 289 288 287 285 284 285 285 288 290 291 291 288 285 283 281 281 280 279 278 279 281 280 278 277 275 275 275 275 274 274 274 273 273
288 287 286 285 285 286 286 286 287 288 287 286 285 284 282 282 282 282 282 281 280 280 279 279 279 279 279 280 281 280 279 278 278 276 276 275 274 274 274 274 274 274 274
288 287 286 285 284 284 284 284 284 285 285 284 284 283 282 282 282 281 282 281 280 281 281 281 281 281 281 280 279 278 278 278 278 276 276 275 274 274 274 274 274 275 275
287 286 286 285 284 284 283 283 282 282 282 282 282 282 282 281 281 281 281 281 282 283 283 283 283 282 281 280 279 278 277 277 276 276 275 275 275 274 274 275 275 275 275
285 285 284 284 284 284 283 283 282 281 281 281 281 281 281 281 281 281 281 281 282 283 282 281 281 280 280 278 277 276 276 275 275 275 275 275 274 274 275 275 275 275 275
282 283 283 283 283 282 282 282 282 282 281 279 278 278 279 279 279 280 281 282 281 281 280 280 279 278 277 276 275 275 274 274 274 274 274 274 274 274 274 274 274 275 275
282 282 282 281 281 281 282 282 282 282 281 280 279 277 277 277 277 278 279 280 279 278 277 277 276 275 275 274 274 273 273 273 272 272 272 273 273 273 273 273 271 271 273
281 281 282 282 281 281 281 281 281 280 280 279 278 279 279 279 278 277 276 276 276 275 275 274 274 274 273 273 272 272 272 272 272 272 271 272 272 272 272 272 272 273 273
281 280 281 281 281 280 280 279 279 279 277 276 274 273 274 276 275 275 274 274 274 273 273 273 273 272 272 272 272 272 271 271 271 271 270 270 271 271 271 271 271 271 271
280 280 280 279 279 279 278 278 277 276 275 274 273 272 272 273 273 272 272 271 271 271 271 271 271 271 271 271 271 270 270 270 269 270 269 269 270 269 270 270 270 270 271
279 279 278 277 276 276 276 275 275 274 274 273 272 272 272 271 271 270 270 269 269 269 269 269 268 268 268 268 269 269 269 268 268 268 268 269 269 269 269 269 269 270 269
277 277 276 276 275 275 274 273 272 272 272 272 271 271 270 269 269 268 268 268 267 267 266 266 266 266 266 267 267 266 265 265 265 265 265 266 267 267 268 268 268 268 268
276 276 275 275 274 273 273 272 272 271 271 270 270 269 269 268 268 267 266 265 265 265 264 264 265 264 263 263 263 263 263 263 263 263 264 264 265 264 265 266 266 267 267
274 274 273 273 273 273 272 272 271 270 270 269 269 268 268 267 267 266 265 264 264 264 264 263 262 263 262 263 262 262 262 262 262 262 263 264 264 265 266 266 266 266 267

GFSGL_925_thetae_111.txt.gz
Theta_e
326 325 325 325 328 330 329 327 325 324 324 324 324 322 321 320 319 318 318 319 319 319 319 318 318 319 318 318 318 317 316 318 318 318 319 319 320 319 319 319 320 321 320
325 324 323 323 327 328 327 324 324 324 324 323 324 322 320 320 318 317 317 317 318 319 319 319 318 318 317 318 318 318 316 316 317 318 318 318 318 317 317 317 317 318 318
323 322 322 322 326 326 325 322 322 324 323 322 322 322 319 319 318 317 317 316 317 317 318 318 318 317 316 315 314 315 315 316 317 316 316 317 316 316 317 317 317 317 314
322 322 323 324 325 323 322 322 321 323 322 321 320 320 318 319 318 317 316 315 315 316 317 317 316 316 316 316 315 315 314 315 316 316 316 316 315 315 315 317 314 314 308
322 322 321 322 322 322 321 321 321 322 322 320 319 319 319 318 317 316 316 315 315 315 315 316 316 315 315 315 314 314 314 315 315 316 316 315 315 316 317 316 316 310 299
320 319 319 320 321 322 321 320 320 321 321 321 319 319 319 319 318 317 316 315 314 314 314 314 315 314 314 313 312 315 314 314 315 315 315 315 315 315 315 315 315 303 296
319 318 318 318 320 320 320 320 320 320 320 321 321 321 320 320 317 317 316 316 314 313 313 314 314 313 314 313 314 314 314 314 314 314 315 314 314 314 314 314 313 306 297
313 316 318 318 318 319 319 320 320 320 320 320 320 320 320 320 318 317 316 316 316 315 314 314 314 314 313 313 314 313 312 311 311 312 311 310 310 310 308 308 306 297 289
298 300 303 313 318 319 319 319 319 320 320 319 319 319 319 318 318 317 316 316 316 315 315 314 314 314 313 314 314 311 302 298 295 298 298 296 297 298 298 297 296 291 283
292 293 295 299 305 310 313 317 318 320 318 315 314 313 315 314 315 316 316 315 315 314 313 312 314 314 314 314 314 310 296 290 290 288 288 289 290 289 290 291 289 288 282
291 292 292 293 294 297 301 307 310 313 311 306 304 300 301 301 304 310 313 312 313 310 305 303 303 306 312 311 306 297 290 285 285 286 285 284 285 285 285 285 286 285 284
289 291 290 291 291 292 294 294 295 295 295 292 291 289 289 291 295 300 306 307 306 303 292 291 291 295 296 296 295 290 288 288 284 282 281 280 279 279 279 280 281 282 281
288 287 287 288 288 288 290 290 290 290 289 287 286 284 283 284 285 288 291 293 292 289 285 282 283 286 285 282 280 281 284 283 281 280 278 278 277 276 276 276 276 275 275
288 287 286 285 285 285 285 286 287 287 286 285 284 283 283 282 282 282 282 282 283 283 282 282 281 280 280 281 281 281 280 280 279 279 278 278 278 278 277 277 277 277 276
287 287 286 285 284 284 283 284 283 284 284 284 284 283 283 282 283 282 282 282 281 281 282 283 282 282 281 281 281 281 280 280 280 280 279 278 277 277 277 277 278 278 278
287 286 285 285 284 284 283 282 282 283 283 283 283 283 282 283 283 283 283 284 284 285 285 285 284 283 283 282 281 281 280 280 279 278 278 278 278 278 278 278 278 278 278
285 285 285 284 285 285 284 283 281 280 280 281 281 282 282 283 283 283 283 283 283 284 283 283 283 282 282 281 280 279 278 278 278 278 278 278 277 277 278 278 278 278 278
284 284 284 284 284 284 284 283 283 282 281 280 280 280 281 282 283 283 283 283 283 282 282 282 281 280 280 279 278 278 277 277 277 277 277 277 277 277 277 277 278 278 277
284 284 283 283 283 284 284 284 284 284 283 282 281 280 280 280 280 281 281 281 281 280 280 279 279 278 278 278 277 277 276 276 276 276 276 276 276 276 276 275 274 274 275
283 283 284 284 283 284 283 283 282 281 280 279 280 282 282 281 280 279 279 279 278 278 277 277 277 277 276 276 275 275 275 275 275 275 275 275 275 275 275 275 275 276 275
283 283 282 282 282 282 282 282 281 280 278 277 276 277 278 279 278 278 277 277 277 277 276 276 276 276 275 275 275 275 274 274 274 274 274 274 274 274 274 274 274 274 273
282 282 281 281 281 281 281 280 279 278 277 276 275 275 276 276 276 275 274 274 274 274 274 274 274 274 274 274 273 273 273 273 273 273 272 272 273 272 273 272 273 273 273
281 281 280 280 279 279 279 279 278 278 277 276 276 275 275 274 274 273 272 272 271 271 271 271 271 271 271 271 272 272 272 271 270 270 271 271 272 272 272 272 271 272 272
279 279 279 278 278 278 277 276 275 275 276 275 275 274 273 272 271 271 271 270 270 269 269 267 268 268 269 270 269 269 267 268 268 267 268 269 270 270 270 270 271 270 270
279 278 278 278 277 277 276 276 275 275 274 274 273 273 272 271 271 270 269 268 268 267 267 267 267 266 266 266 265 265 265 265 266 265 266 267 268 266 267 268 269 269 269
277 277 277 276 276 276 275 275 274 274 273 273 272 272 271 270 270 269 268 267 266 266 266 265 264 264 266 265 263 264 264 264 264 264 264 265 267 267 268 268 268 268 269

GFSGL_925_thetae_114.txt.gz
Theta_e
312 320 328 327 327 329 331 332 330 328 326 327 325 324 323 321 321 321 320 320 319 319 319 320 319 320 320 317 318 319 318 319 317 319 319 320 320 320 320 321 320 320 320
309 322 327 326 326 328 330 330 329 326 325 325 324 323 322 322 321 321 320 320 319 319 319 319 319 319 319 318 319 318 317 317 316 318 319 319 318 318 318 317 316 317 316
306 317 325 325 325 327 329 328 326 325 324 324 325 323 321 320 320 320 319 319 319 319 319 319 319 319 318 318 318 318 317 317 316 316 317 318 318 317 317 317 317 315 315
303 315 323 323 323 325 327 325 324 324 323 323 323 323 321 319 320 319 318 317 318 318 319 319 319 318 317 317 317 316 317 315 317 316 316 315 316 316 316 316 314 313 309
300 309 322 322 323 324 324 323 322 323 322 321 321 320 319 319 318 318 317 317 316 317 317 318 318 318 318 317 316 316 316 315 315 315 315 315 316 315 315 315 315 311 306
301 309 322 322 324 323 322 322 321 323 322 321 320 320 319 318 318 317 317 316 316 315 316 317 317 317 317 317 316 316 315 315 315 315 314 314 315 315 315 315 315 304 297
302 316 321 322 322 322 321 321 322 321 321 320 319 319 319 318 317 316 316 315 315 315 315 315 316 315 315 316 315 315 315 314 314 314 314 314 315 315 315 315 314 312 303
294 299 312 320 321 322 321 321 321 321 321 321 320 319 319 319 318 316 315 316 315 314 314 314 315 314 314 314 314 313 313 313 313 313 313 313 312 312 312 311 311 302 292
291 292 295 305 320 320 320 320 320 320 320 321 321 320 319 318 317 316 315 316 316 315 314 314 314 314 314 313 313 311 306 303 302 306 306 305 302 301 300 300 299 295 285
290 290 292 295 304 314 318 319 319 318 313 312 311 309 307 310 315 316 315 315 315 314 314 313 314 314 314 314 313 311 302 293 294 292 292 292 293 293 293 294 293 293 285
289 290 291 293 293 298 304 309 313 310 305 300 300 297 301 302 305 311 314 313 312 307 304 304 305 309 312 311 311 306 300 290 287 289 288 287 287 287 286 287 288 289 286
287 288 289 292 291 291 293 294 296 296 293 289 289 287 289 291 296 301 307 309 306 304 293 291 291 297 299 299 298 294 290 290 287 284 282 280 280 280 281 282 283 284 283
286 286 286 287 290 291 289 290 289 289 288 286 285 284 283 283 285 288 291 293 293 291 286 284 285 287 286 284 283 284 286 284 282 281 278 278 278 278 279 279 279 280 279
286 285 285 285 285 286 287 289 286 286 286 285 284 283 283 282 282 283 283 283 283 283 283 282 282 282 282 282 282 282 282 282 280 279 279 278 278 278 278 277 277 276 276
286 286 285 283 283 283 284 284 284 284 284 284 284 284 284 283 283 283 283 283 283 282 282 282 282 282 282 281 280 280 280 280 279 279 278 278 278 277 278 278 279 278 278
286 285 285 284 283 282 282 282 283 283 283 283 284 284 284 284 285 284 285 285 285 284 284 284 283 282 282 281 281 280 279 279 279 278 278 278 278 278 278 279 279 278 278
285 285 285 285 285 284 283 281 281 281 282 283 283 283 284 284 284 284 284 284 283 283 283 283 282 281 281 280 279 278 278 279 279 278 278 278 278 278 278 278 278 278 278
284 284 285 285 285 284 283 282 281 281 281 281 281 282 282 283 284 283 283 282 281 281 281 280 280 279 279 278 278 278 278 278 278 278 278 278 278 278 278 278 278 278 277
284 284 284 284 284 284 283 283 283 283 283 282 282 281 281 281 280 280 280 280 279 279 279 278 278 278 277 277 277 277 277 277 277 277 277 277 277 276 275 275 275 276 276
283 283 284 284 283 283 282 281 280 279 279 279 280 281 280 279 279 278 278 278 278 278 277 277 277 276 276 276 276 275 275 275 275 275 276 276 275 275 275 275 275 275 275
283 283 283 282 282 282 281 280 279 278 277 277 277 278 278 277 276 276 276 276 276 276 276 276 276 275 275 275 275 275 274 274 274 274 274 274 274 274 274 274 274 274 273
281 281 281 281 281 280 280 279 278 277 277 276 276 276 275 275 274 274 274 274 273 274 274 274 273 273 274 274 273 273 273 273 273 272 272 273 273 273 273 272 273 273 273
281 280 280 280 279 279 279 279 278 277 277 276 275 275 274 273 273 272 271 271 271 271 271 271 271 271 272 272 272 272 271 271 271 271 271 271 272 272 271 272 271 271 271
279 279 279 278 278 277 276 276 276 276 276 275 274 273 272 271 271 271 270 270 269 269 269 269 270 270 270 269 269 269 269 268 268 269 269 270 270 270 270 270 270 270 270
279 278 278 278 277 277 277 276 276 275 274 274 273 272 272 271 270 269 268 268 268 267 267 267 266 267 267 267 267 266 267 267 267 267 267 268 268 268 268 268 268 268 269
277 277 277 277 276 276 275 275 274 274 273 273 272 271 271 270 269 268 267 267 267 266 266 265 266 265 265 265 265 265 265 265 265 266 266 266 267 267 267 268 267 267 268

GFSGL_925_thetae_117.txt.gz
Theta_e
304 304 305 311 319 326 330 328 328 331 329 329 329 328 328 325 325 323 322 322 321 320 319 320 320 320 320 320 319 318 317 318 317 317 318 318 319 318 318 319 319 319 319
301 301 303 311 323 326 327 326 329 331 329 328 327 326 325 324 323 323 322 321 320 319 319 319 320 320 320 320 318 317 317 318 317 318 318 319 318 318 318 318 319 319 319
298 299 301 309 324 327 327 327 329 328 327 327 326 325 324 323 322 321 321 320 319 319 319 319 319 319 319 319 319 318 318 318 317 316 317 318 318 318 318 317 317 316 315
297 297 300 305 320 325 325 326 328 327 326 325 324 323 322 322 321 321 321 320 320 319 319 319 319 319 319 318 318 317 318 317 317 316 317 317 318 317 317 316 313 311 311
296 297 299 304 317 324 324 325 326 325 325 324 324 324 322 320 320 320 319 319 319 319 319 319 319 319 319 319 318 317 317 317 316 316 316 315 316 316 316 315 313 310 304
295 296 298 307 318 322 322 324 324 324 323 323 323 323 321 320 319 319 319 318 318 318 318 318 319 319 318 318 318 318 318 316 315 315 315 314 315 315 315 315 314 304 298
293 294 295 298 322 322 323 323 323 322 322 321 321 320 319 317 317 318 318 317 317 316 316 316 317 318 318 317 317 316 316 316 315 315 314 314 315 315 314 315 314 311 304
291 292 293 294 304 322 322 322 322 322 321 320 320 319 318 317 316 316 315 315 316 315 315 315 316 316 316 316 314 312 313 313 313 314 314 314 313 314 314 314 313 307 296
289 289 291 293 296 318 321 321 321 321 321 319 318 318 318 317 316 315 314 315 315 314 314 314 314 315 315 315 314 311 308 306 307 311 311 310 309 309 308 306 303 296 287
287 288 289 292 293 298 317 320 320 316 312 313 311 312 310 314 315 315 315 316 314 313 311 312 313 314 314 314 313 311 304 297 298 297 297 296 297 298 299 299 298 296 287
286 286 288 291 292 292 299 309 313 306 302 297 299 297 300 304 311 315 314 315 313 307 306 306 308 312 312 312 312 309 305 295 290 292 292 291 291 291 291 292 293 293 290
285 285 285 288 291 292 290 292 293 295 293 290 290 289 290 293 300 308 312 313 308 306 295 294 294 302 305 303 302 298 293 291 290 288 286 283 284 285 285 286 287 288 288
285 284 283 285 287 290 290 288 288 288 287 286 285 284 283 285 286 289 296 298 295 293 287 284 284 287 289 287 286 287 289 288 286 283 280 280 281 281 282 282 282 282 282
286 284 283 283 284 285 286 287 287 286 285 285 284 283 283 283 283 284 284 284 285 284 283 283 283 283 283 283 284 284 284 283 282 280 279 279 279 277 277 277 276 276 276
286 285 283 282 282 283 284 285 285 285 285 285 284 284 284 283 283 284 284 283 283 283 283 283 282 282 281 281 280 280 280 280 280 279 279 278 278 278 278 278 277 277 277
285 285 285 284 282 282 283 283 284 284 285 285 285 285 285 285 285 284 284 284 284 283 283 282 281 281 280 280 279 279 279 279 278 278 278 278 278 279 278 278 278 277 278
284 285 284 283 282 282 281 282 282 282 283 284 284 284 284 283 283 283 283 282 282 282 281 280 279 279 278 278 278 278 278 278 278 278 278 278 279 279 278 278 278 277 277
284 284 284 284 284 282 282 281 281 281 281 281 281 282 282 282 282 281 281 280 279 279 279 278 278 278 278 278 278 278 278 278 278 278 278 278 278 278 278 278 277 277 277
284 284 283 282 282 281 280 280 279 280 281 280 280 279 279 279 279 279 278 278 278 277 277 277 278 278 277 277 277 277 277 277 277 277 277 277 277 277 276 276 276 276 276
283 283 282 282 281 280 279 278 278 278 278 278 278 277 277 277 277 276 276 276 276 276 276 275 275 276 275 276 276 276 276 276 276 275 275 275 275 276 275 275 275 275 274
282 281 281 280 280 279 278 277 277 276 276 276 275 275 275 274 274 274 274 274 274 275 275 275 275 275 275 275 275 274 274 274 274 274 274 274 274 274 274 274 274 273 273
280 280 280 280 279 279 278 277 276 276 275 275 274 274 274 274 273 273 273 273 273 274 274 274 274 274 274 273 273 273 273 273 273 273 273 273 273 273 272 273 273 272 272
279 279 279 278 278 278 277 276 276 275 274 273 273 272 272 271 271 271 271 271 272 272 272 272 272 272 272 272 272 272 272 271 271 271 272 272 272 272 271 271 271 271 270
278 278 277 277 276 276 276 275 275 274 273 272 272 271 270 270 270 269 269 269 269 270 270 270 270 270 270 270 270 270 270 270 270 270 270 270 270 270 270 270 270 270 269
277 277 277 277 276 276 275 274 274 273 273 272 271 270 269 269 268 268 268 268 268 267 268 268 268 268 268 268 267 268 268 268 268 268 268 268 268 268 268 268 268 268 268
276 276 276 275 275 274 274 273 273 272 272 271 271 270 269 268 267 267 267 267 266 266 266 266 266 266 266 265 266 266 266 266 266 266 267 267 267 267 267 267 267 267 267

GFSGL_925_thetae_120.txt.gz
Theta_e
300 300 300 302 302 306 312 318 323 330 331 331 331 331 329 329 329 327 325 324 322 322 322 321 320 321 320 320 320 319 319 318 318 318 319 318 319 319 318 318 318 319 318
297 298 298 299 300 303 311 321 323 328 329 328 330 330 329 327 328 326 324 322 322 322 321 320 320 320 320 320 319 318 318 317 317 317 318 317 319 318 319 318 317 316 317
296 297 297 298 299 302 310 323 326 328 327 329 329 328 328 325 326 325 324 322 322 321 320 320 320 319 320 319 318 318 317 317 317 317 317 318 318 318 317 316 316 315 315
294 295 296 297 298 300 307 318 326 326 327 328 328 328 326 324 324 323 323 322 322 321 320 319 319 320 319 319 319 318 317 317 317 316 317 317 318 316 316 315 310 310 308
293 294 295 295 297 299 306 316 324 325 326 327 326 325 324 323 322 322 322 321 320 320 319 319 319 319 319 319 318 318 317 316 316 316 316 316 317 315 314 312 309 308 305
291 292 293 294 295 298 306 316 323 324 325 325 325 325 322 321 321 321 321 320 320 320 319 319 319 319 319 319 319 318 318 317 316 316 315 315 315 316 315 314 311 303 299
290 290 291 292 293 296 302 317 323 323 323 324 322 323 321 321 320 320 320 319 319 318 319 318 318 319 319 319 318 317 317 317 316 316 315 315 315 316 315 314 314 311 307
288 288 289 290 291 294 298 308 322 322 321 322 321 321 322 320 319 318 318 318 318 317 317 317 317 317 317 317 316 315 313 313 315 315 315 314 315 315 315 315 314 309 300
287 287 287 288 290 292 295 300 322 321 320 320 320 320 319 317 317 317 316 316 316 315 315 315 315 316 316 315 313 310 307 307 308 313 313 313 314 314 313 313 310 301 289
286 285 285 286 288 291 293 299 320 320 316 318 316 316 317 317 316 315 315 314 314 313 312 314 314 314 315 315 314 310 305 299 302 304 304 306 304 304 306 305 305 299 289
285 284 284 285 286 289 293 294 299 305 303 300 303 304 307 312 315 315 314 314 313 309 308 308 311 313 313 313 313 311 308 301 296 297 295 295 295 295 296 296 297 298 295
284 283 283 284 285 287 290 292 291 292 293 291 291 291 295 300 309 313 314 315 311 309 300 299 300 305 307 307 306 305 302 297 293 292 291 288 289 289 289 290 290 291 292
284 283 283 284 285 285 286 290 287 288 288 289 288 285 284 287 291 298 307 307 303 301 293 288 289 293 295 295 292 292 293 293 290 287 283 282 283 283 285 286 286 286 285
285 284 283 283 284 284 285 286 286 286 286 286 285 284 285 284 284 285 287 289 287 287 285 286 287 286 285 283 284 286 287 287 286 282 281 281 281 281 281 281 281 281 280
285 284 283 283 282 284 284 285 285 285 285 285 285 285 285 284 284 284 284 284 284 283 283 283 283 283 282 281 281 281 281 282 281 280 279 278 277 277 277 277 277 277 277
285 284 283 282 282 282 283 283 283 284 284 284 285 285 285 285 284 284 284 284 284 284 283 281 281 280 280 280 280 279 280 280 279 279 278 278 278 278 277 277 278 278 278
283 283 283 282 282 282 282 282 282 282 282 282 283 283 283 283 282 282 281 281 282 284 280 279 279 279 279 279 279 278 278 278 278 278 278 278 278 278 278 278 278 278 277
283 282 282 281 281 280 280 280 281 280 280 279 280 280 280 280 280 280 282 282 279 278 278 278 278 278 278 277 277 277 278 278 278 279 279 278 278 278 277 277 277 277 276
282 281 281 280 280 279 279 279 279 279 278 278 278 278 278 278 278 278 278 277 277 277 276 276 277 277 277 277 277 277 278 278 278 278 278 278 278 277 276 276 276 276 275
281 281 280 280 280 279 278 277 277 277 276 275 275 275 276 277 276 275 275 275 275 275 276 276 276 277 277 277 277 277 276 276 276 276 276 276 276 276 275 275 275 275 274
280 280 279 278 278 277 277 276 276 275 274 273 273 273 275 274 273 273 274 274 274 274 275 275 275 275 275 275 276 275 275 275 275 275 275 275 275 275 274 274 274 274 273
279 279 279 278 277 277 276 276 275 274 273 273 272 273 274 274 273 273 274 274 274 274 274 275 274 274 274 274 274 274 273 273 273 274 274 274 273 273 273 273 273 272 272
279 278 278 277 277 276 275 275 274 273 272 272 272 271 272 271 271 271 272 272 272 273 273 273 273 272 272 272 272 272 272 272 272 272 272 272 272 272 272 271 271 271 270
277 276 276 276 276 275 274 273 273 272 271 271 270 270 270 269 269 270 270 270 270 271 271 271 271 271 271 271 271 271 270 270 271 271 271 271 271 270 270 270 270 269 269
277 276 276 275 275 274 273 273 272 271 271 270 269 269 268 268 268 268 268 268 268 269 268 268 268 268 268 268 268 268 268 268 269 269 269 269 269 269 269 269 268 268 268
275 275 275 274 274 273 273 272 272 271 270 269 269 268 268 267 267 267 266 266 267 266 266 266 266 266 265 266 266 266 267 267 267 267 268 268 268 268 267 267 267 267 267

GFSGL_925_thetae_123.txt.gz
Theta_e
297 297 298 298 299 301 303 306 310 315 319 326 329 330 330 328 328 328 328 327 326 325 324 322 321 322 322 321 321 320 320 320 319 318 319 318 318 319 319 319 319 319 319
295 296 297 298 299 299 301 304 307 312 319 322 328 329 329 328 327 327 326 326 325 323 323 320 321 322 321 321 320 320 319 319 319 318 318 318 318 317 318 318 318 317 317
293 293 295 296 296 297 298 302 307 313 320 324 328 329 329 328 327 327 326 324 324 323 322 319 321 321 320 320 320 320 319 319 319 318 318 318 317 317 315 313 313 314 314
291 292 293 293 294 295 296 299 305 311 320 324 326 328 328 327 326 325 325 324 323 323 320 321 320 320 320 320 319 319 318 318 317 317 317 317 316 313 314 312 308 310 310
290 290 291 292 293 293 295 298 303 308 318 325 326 327 327 326 325 324 325 323 322 321 320 321 320 321 320 320 319 318 318 317 316 316 316 317 316 311 311 308 306 306 304
290 290 290 290 291 292 294 296 299 308 318 323 325 326 325 324 324 325 324 322 321 321 320 320 320 320 319 319 319 319 318 317 316 315 316 316 316 315 312 310 303 299 298
289 288 288 288 289 291 292 295 298 304 316 323 325 325 324 323 324 324 322 321 320 320 319 319 319 319 319 319 319 319 318 317 317 316 315 315 314 315 313 310 308 305 305
287 287 287 287 288 289 291 293 295 299 311 323 323 324 322 321 323 323 321 320 319 319 319 319 319 319 319 319 318 316 315 316 316 316 316 315 316 316 316 314 310 306 303
286 285 285 285 286 288 290 291 293 297 308 322 322 322 321 320 322 320 319 319 318 318 318 318 318 318 317 317 316 312 309 309 311 315 315 315 315 315 316 315 309 304 291
285 283 283 284 285 287 288 290 291 297 310 320 319 319 319 320 320 319 317 316 315 314 314 315 315 316 316 316 315 310 305 304 306 306 308 310 309 310 310 311 313 304 292
284 283 282 284 285 286 287 289 290 295 296 304 310 306 311 316 317 316 316 316 314 311 311 311 313 314 314 313 313 311 310 304 299 301 301 301 302 302 303 303 302 303 298
285 283 282 283 284 285 286 287 288 292 292 292 293 295 298 303 313 314 315 315 314 311 306 304 307 311 308 307 308 307 306 302 298 297 295 292 294 294 294 295 295 295 295
283 283 282 282 284 284 285 286 287 287 287 287 289 289 288 291 293 304 310 311 309 305 299 295 296 299 300 298 296 295 296 295 294 291 286 285 286 286 287 288 289 289 288
283 282 282 282 283 283 283 284 285 286 286 286 286 286 286 287 285 286 290 291 290 294 290 289 290 290 291 288 287 289 289 289 288 284 282 282 282 283 285 285 285 285 284
284 283 282 282 282 282 283 282 283 284 284 285 285 286 286 285 285 285 285 286 285 284 285 285 284 284 283 283 283 284 284 285 284 281 280 280 280 280 280 281 282 281 278
283 282 281 281 281 281 282 282 281 281 282 282 283 283 283 283 283 283 283 283 283 284 283 281 281 280 280 280 280 280 280 280 280 281 280 279 279 278 277 277 278 278 277
281 281 281 280 280 280 280 280 280 280 279 279 280 281 281 281 281 282 284 282 283 284 280 279 279 279 279 279 279 279 278 279 279 279 279 278 277 277 277 277 277 277 277
281 280 280 280 280 279 279 278 278 278 277 277 277 278 279 279 280 280 281 284 279 279 278 277 277 277 277 277 277 278 278 279 279 278 278 277 277 277 277 277 276 276 275
279 280 280 279 279 278 278 277 277 276 275 275 275 276 276 276 277 277 278 277 276 276 276 276 276 276 277 277 277 278 278 278 278 278 277 277 277 277 276 276 276 275 275
279 279 279 278 278 277 277 276 275 274 274 273 272 273 275 278 275 274 274 274 274 274 275 275 276 276 276 276 277 277 277 277 277 277 277 276 276 276 276 276 275 275 275
279 278 278 277 277 276 275 275 274 273 272 271 270 272 274 273 271 272 273 274 274 275 275 275 275 276 276 276 276 276 276 275 275 275 275 275 275 275 275 274 274 274 274
278 278 277 276 276 275 274 274 273 272 271 271 271 272 273 272 272 272 272 273 273 274 274 274 274 274 274 274 274 274 274 274 274 274 274 274 274 274 274 273 273 272 272
277 277 276 276 275 275 274 273 272 271 271 271 271 271 271 271 271 271 271 272 272 272 273 273 273 272 273 273 273 273 273 272 272 273 273 273 272 272 272 272 272 271 271
276 276 275 275 274 273 272 272 271 271 270 270 270 269 269 269 269 270 270 270 271 271 271 271 271 271 271 271 271 271 271 271 271 271 271 272 271 271 271 270 270 270 269
275 275 275 274 273 273 272 271 270 270 269 269 269 268 268 268 268 268 269 269 269 269 268 268 268 269 269 269 269 269 270 270 270 270 270 270 270 270 269 269 269 268 268
274 274 273 273 273 272 272 271 270 270 269 268 268 267 267 267 266 267 267 267 267 267 266 266 266 266 266 266 267 267 267 268 268 268 268 268 268 268 268 268 267 267 267

GFSGL_925_thetae_126.txt.gz
Theta_e
294 295 296 298 299 302 303 304 305 306 309 312 316 321 326 328 328 330 330 327 326 326 325 327 326 325 324 322 320 322 321 321 321 319 320 321 321 321 320 318 319 319 318
293 293 294 295 295 296 297 299 301 303 305 308 314 318 322 326 327 326 326 325 325 325 325 325 324 324 323 320 321 321 320 320 321 318 318 319 319 320 319 318 319 318 318
291 291 292 292 293 293 294 296 298 300 303 307 312 318 321 324 327 327 325 325 326 325 325 324 324 323 320 320 321 320 320 320 319 319 318 317 317 318 318 317 316 317 316
290 290 291 291 291 291 292 294 295 298 301 305 312 320 322 324 326 327 326 325 324 325 325 324 324 323 320 320 320 320 320 319 318 318 317 317 314 313 316 312 308 311 311
289 289 289 290 290 290 291 292 293 296 300 304 309 319 323 325 327 327 326 325 323 323 323 323 322 321 319 320 320 320 319 319 318 317 317 316 313 308 310 308 305 305 302
288 288 288 288 288 289 290 291 292 295 298 301 308 319 325 326 327 326 326 324 323 322 321 322 322 320 320 320 320 320 320 318 317 317 316 316 313 311 310 308 301 298 297
287 286 286 286 286 287 289 290 292 293 295 299 306 318 324 325 325 324 325 323 322 321 321 320 319 319 320 320 320 319 319 319 319 317 316 316 315 314 312 308 306 304 304
285 285 284 284 285 286 288 289 290 292 293 296 303 315 322 324 324 324 324 322 321 321 321 320 319 320 320 319 319 318 317 317 317 317 316 316 317 315 315 314 309 305 303
285 284 283 284 285 286 287 287 289 290 292 296 302 314 322 323 323 323 324 320 319 320 320 320 318 319 320 319 318 315 312 312 314 315 316 316 316 315 316 314 308 303 293
284 283 283 283 284 285 286 287 288 289 291 293 300 310 321 321 322 323 321 317 318 318 318 318 318 319 319 318 317 315 308 307 308 309 312 313 313 313 314 313 313 304 298
283 282 282 283 283 284 285 286 287 288 289 291 295 296 298 310 318 320 318 317 317 315 315 314 316 317 317 317 316 314 314 308 303 305 304 304 304 304 304 305 306 306 303
283 282 281 282 283 282 283 284 286 287 288 288 289 290 291 295 302 309 317 319 317 314 310 310 312 314 313 311 310 310 308 304 300 298 297 295 296 296 297 299 300 300 300
283 282 282 282 282 282 282 283 284 285 286 286 287 287 287 288 289 299 310 313 312 308 303 302 301 303 303 300 299 300 301 298 295 292 288 287 287 288 289 290 292 292 292
282 281 281 281 281 281 281 281 281 282 283 283 284 285 286 286 288 287 289 292 295 295 292 292 294 294 295 290 290 291 292 293 293 288 284 284 284 286 287 287 287 287 287
282 281 280 280 280 280 281 280 280 280 281 282 282 283 284 284 285 287 287 286 287 285 286 287 286 285 284 284 284 285 285 286 285 283 282 281 282 283 282 284 284 284 280
281 280 279 279 279 279 279 279 280 279 278 279 280 281 282 282 282 283 284 286 284 285 283 282 281 281 281 280 280 280 281 281 281 281 281 280 280 280 280 280 281 279 278
279 280 279 279 278 278 278 278 277 279 278 277 277 278 279 280 280 280 280 280 281 282 280 279 279 279 279 279 279 279 279 279 280 280 279 279 278 278 279 278 278 277 276
279 279 279 278 278 277 277 276 276 275 275 275 276 275 276 277 277 278 278 281 277 277 277 277 277 277 277 277 277 278 278 279 279 278 278 278 278 277 276 276 276 276 276
278 278 278 278 277 277 276 275 274 274 273 272 273 276 276 275 275 275 276 275 275 275 275 275 275 275 276 276 277 278 278 278 278 277 277 277 277 277 276 276 275 275 275
278 277 277 276 276 275 275 274 274 273 272 271 270 271 272 274 273 272 272 272 273 273 273 274 275 276 276 276 276 276 276 276 276 276 276 276 276 276 275 275 275 275 275
277 277 276 275 274 274 273 273 272 272 271 270 270 270 271 270 269 269 270 271 272 273 274 275 275 275 276 276 277 277 276 276 276 276 276 276 276 275 275 275 275 274 274
276 276 275 274 273 273 272 271 271 271 270 270 271 272 272 271 270 270 270 271 271 272 272 273 273 274 274 274 274 275 274 274 275 275 275 275 274 274 274 274 273 273 273
275 275 274 273 272 272 271 270 270 269 269 269 270 270 270 270 270 270 270 270 271 271 271 272 272 272 272 273 273 273 273 273 273 273 273 273 273 273 273 272 272 271 270
275 274 273 273 272 271 270 270 269 269 268 268 268 268 268 268 268 269 269 269 270 270 270 270 270 270 270 271 271 271 271 271 272 272 272 272 271 271 271 270 270 270 269
274 273 273 272 272 271 270 269 269 268 268 267 267 267 267 267 267 267 267 267 267 267 267 267 268 268 268 268 269 269 270 270 270 270 270 270 270 270 270 269 269 269 269
272 272 272 271 271 270 270 269 269 268 267 267 267 266 266 266 266 266 265 266 265 265 265 265 265 265 266 266 267 267 267 268 268 268 268 268 268 268 268 268 268 267 267